<?xml version="1.0" encoding="UTF-8" standalone="no" ?>
<gpx xmlns="http://www.topografix.com/GPX/1/1" xmlns:xsi="http://www.w3.org/2001/XMLSchema-instance" xsi:schemaLocation="http://www.topografix.com/GPX/1/1 http://www.topografix.com/GPX/1/1/gpx.xsd" version="1.1" creator="VisuGPX - https://www.visugpx.com">
  <metadata>
    <name>ski st martin de belleville - J4</name>
    <desc><![CDATA[Ski st martin de belleville 
Et 3 Vallees
Mercredi 29 janvier 2014]]></desc>
  </metadata>
  <trk>
    <name><![CDATA[2014-01-29 08:52]]></name>
    <desc><![CDATA[<h1>OruxMaps</h1><br /><hr align="center" width="480" style="height: 2px; width: 517px"/><h2>Nom: 2014-01-29 08:52</h2><br /><p>Temps de départ: 01/29/2014 08:53</p><p>Temps d'arrivée: 01/29/2014 16:48</p><p>Distance: 103,4 km (07:54)</p><p>Temps déplacement: 05:31</p><p>Vitesse moyenne: 13,1 km/h</p><p>Vitesse moyenne: 18,7 km/h</p><p>Vitess Max.: 108,1 km/h</p><p>Altitude minimale: 1259 m</p><p>Altitude maximale: 2714 m</p><p>Vitesse d'élévation: 2779,4 m/h</p><p>Vitesse de descente: -3299 m/h</p><p>Gain Altitude: 11553 m</p><p>Perte Altitude: -11476 m</p><p>Temps d'élévation: 04:09</p><p>Temps de descente: 03:28</p><hr align="center" width="480" style="height: 2px; width: 517px"/>]]></desc>
    <trkseg>
      <trkpt lat="45.37827" lon="6.50516">
        <ele>1423.65</ele>
        <time>2014-01-29T07:53:50Z</time>
      </trkpt>
      <trkpt lat="45.3778" lon="6.50492">
        <ele>1426.86</ele>
        <time>2014-01-29T07:53:55Z</time>
      </trkpt>
      <trkpt lat="45.37784" lon="6.50439">
        <ele>1419.54</ele>
        <time>2014-01-29T07:56:35Z</time>
      </trkpt>
      <trkpt lat="45.37751" lon="6.50436">
        <ele>1421.07</ele>
        <time>2014-01-29T07:58:07Z</time>
      </trkpt>
      <trkpt lat="45.3772" lon="6.50423">
        <ele>1423.72</ele>
        <time>2014-01-29T08:04:30Z</time>
      </trkpt>
      <trkpt lat="45.37689" lon="6.50452">
        <ele>1426.7</ele>
        <time>2014-01-29T08:05:13Z</time>
      </trkpt>
      <trkpt lat="45.37678" lon="6.50463">
        <ele>1427.81</ele>
        <time>2014-01-29T08:06:43Z</time>
      </trkpt>
      <trkpt lat="45.37668" lon="6.50523">
        <ele>1436.27</ele>
        <time>2014-01-29T08:06:53Z</time>
      </trkpt>
      <trkpt lat="45.3766" lon="6.5058">
        <ele>1447.79</ele>
        <time>2014-01-29T08:07:03Z</time>
      </trkpt>
      <trkpt lat="45.3765" lon="6.50638">
        <ele>1457.74</ele>
        <time>2014-01-29T08:07:13Z</time>
      </trkpt>
      <trkpt lat="45.37645" lon="6.507">
        <ele>1474.75</ele>
        <time>2014-01-29T08:07:23Z</time>
      </trkpt>
      <trkpt lat="45.37639" lon="6.50756">
        <ele>1486.95</ele>
        <time>2014-01-29T08:07:32Z</time>
      </trkpt>
      <trkpt lat="45.37631" lon="6.50813">
        <ele>1491.76</ele>
        <time>2014-01-29T08:07:42Z</time>
      </trkpt>
      <trkpt lat="45.37622" lon="6.5087">
        <ele>1501.3</ele>
        <time>2014-01-29T08:07:52Z</time>
      </trkpt>
      <trkpt lat="45.37613" lon="6.50931">
        <ele>1513.59</ele>
        <time>2014-01-29T08:08:03Z</time>
      </trkpt>
      <trkpt lat="45.37605" lon="6.5099">
        <ele>1525.39</ele>
        <time>2014-01-29T08:08:13Z</time>
      </trkpt>
      <trkpt lat="45.37597" lon="6.51048">
        <ele>1541.2</ele>
        <time>2014-01-29T08:08:23Z</time>
      </trkpt>
      <trkpt lat="45.37588" lon="6.51107">
        <ele>1550.85</ele>
        <time>2014-01-29T08:08:33Z</time>
      </trkpt>
      <trkpt lat="45.37582" lon="6.51164">
        <ele>1571.39</ele>
        <time>2014-01-29T08:08:42Z</time>
      </trkpt>
      <trkpt lat="45.37573" lon="6.51222">
        <ele>1581.6</ele>
        <time>2014-01-29T08:08:52Z</time>
      </trkpt>
      <trkpt lat="45.37565" lon="6.51279">
        <ele>1586.42</ele>
        <time>2014-01-29T08:09:02Z</time>
      </trkpt>
      <trkpt lat="45.37555" lon="6.51334">
        <ele>1592.02</ele>
        <time>2014-01-29T08:09:12Z</time>
      </trkpt>
      <trkpt lat="45.37546" lon="6.51394">
        <ele>1597.45</ele>
        <time>2014-01-29T08:09:22Z</time>
      </trkpt>
      <trkpt lat="45.37538" lon="6.51454">
        <ele>1602.78</ele>
        <time>2014-01-29T08:09:32Z</time>
      </trkpt>
      <trkpt lat="45.3753" lon="6.51509">
        <ele>1611.8</ele>
        <time>2014-01-29T08:09:41Z</time>
      </trkpt>
      <trkpt lat="45.37516" lon="6.51562">
        <ele>1618.29</ele>
        <time>2014-01-29T08:09:51Z</time>
      </trkpt>
      <trkpt lat="45.37505" lon="6.51621">
        <ele>1619.07</ele>
        <time>2014-01-29T08:10:01Z</time>
      </trkpt>
      <trkpt lat="45.37494" lon="6.51677">
        <ele>1619</ele>
        <time>2014-01-29T08:10:11Z</time>
      </trkpt>
      <trkpt lat="45.37485" lon="6.51736">
        <ele>1619.12</ele>
        <time>2014-01-29T08:10:21Z</time>
      </trkpt>
      <trkpt lat="45.37476" lon="6.51796">
        <ele>1618.71</ele>
        <time>2014-01-29T08:10:31Z</time>
      </trkpt>
      <trkpt lat="45.37468" lon="6.51853">
        <ele>1621.32</ele>
        <time>2014-01-29T08:10:40Z</time>
      </trkpt>
      <trkpt lat="45.37461" lon="6.51909">
        <ele>1629.96</ele>
        <time>2014-01-29T08:10:49Z</time>
      </trkpt>
      <trkpt lat="45.37454" lon="6.5196">
        <ele>1646.58</ele>
        <time>2014-01-29T08:10:57Z</time>
      </trkpt>
      <trkpt lat="45.37444" lon="6.52018">
        <ele>1659.82</ele>
        <time>2014-01-29T08:11:07Z</time>
      </trkpt>
      <trkpt lat="45.37436" lon="6.52075">
        <ele>1678.93</ele>
        <time>2014-01-29T08:11:17Z</time>
      </trkpt>
      <trkpt lat="45.37428" lon="6.52134">
        <ele>1698.63</ele>
        <time>2014-01-29T08:11:27Z</time>
      </trkpt>
      <trkpt lat="45.3742" lon="6.52186">
        <ele>1710.29</ele>
        <time>2014-01-29T08:11:35Z</time>
      </trkpt>
      <trkpt lat="45.37412" lon="6.52237">
        <ele>1721.05</ele>
        <time>2014-01-29T08:11:43Z</time>
      </trkpt>
      <trkpt lat="45.37405" lon="6.52293">
        <ele>1736.79</ele>
        <time>2014-01-29T08:11:52Z</time>
      </trkpt>
      <trkpt lat="45.37395" lon="6.52352">
        <ele>1752.61</ele>
        <time>2014-01-29T08:12:02Z</time>
      </trkpt>
      <trkpt lat="45.37385" lon="6.52413">
        <ele>1763.63</ele>
        <time>2014-01-29T08:12:12Z</time>
      </trkpt>
      <trkpt lat="45.37378" lon="6.52471">
        <ele>1779.32</ele>
        <time>2014-01-29T08:12:22Z</time>
      </trkpt>
      <trkpt lat="45.37369" lon="6.52525">
        <ele>1785.22</ele>
        <time>2014-01-29T08:12:32Z</time>
      </trkpt>
      <trkpt lat="45.3736" lon="6.52578">
        <ele>1780.04</ele>
        <time>2014-01-29T08:12:44Z</time>
      </trkpt>
      <trkpt lat="45.37356" lon="6.52633">
        <ele>1779.58</ele>
        <time>2014-01-29T08:12:54Z</time>
      </trkpt>
      <trkpt lat="45.37345" lon="6.52692">
        <ele>1783.85</ele>
        <time>2014-01-29T08:13:04Z</time>
      </trkpt>
      <trkpt lat="45.37341" lon="6.52753">
        <ele>1789.64</ele>
        <time>2014-01-29T08:13:13Z</time>
      </trkpt>
      <trkpt lat="45.37333" lon="6.52812">
        <ele>1791.71</ele>
        <time>2014-01-29T08:13:23Z</time>
      </trkpt>
      <trkpt lat="45.37325" lon="6.52869">
        <ele>1798.04</ele>
        <time>2014-01-29T08:13:33Z</time>
      </trkpt>
      <trkpt lat="45.37288" lon="6.52873">
        <ele>1794.03</ele>
        <time>2014-01-29T08:15:29Z</time>
      </trkpt>
      <trkpt lat="45.37257" lon="6.52877">
        <ele>1788.37</ele>
        <time>2014-01-29T08:16:06Z</time>
      </trkpt>
      <trkpt lat="45.37246" lon="6.52936">
        <ele>1797.29</ele>
        <time>2014-01-29T08:16:36Z</time>
      </trkpt>
      <trkpt lat="45.3723" lon="6.52993">
        <ele>1806.5</ele>
        <time>2014-01-29T08:16:46Z</time>
      </trkpt>
      <trkpt lat="45.37216" lon="6.53045">
        <ele>1813.11</ele>
        <time>2014-01-29T08:16:56Z</time>
      </trkpt>
      <trkpt lat="45.37203" lon="6.53095">
        <ele>1820.8</ele>
        <time>2014-01-29T08:17:04Z</time>
      </trkpt>
      <trkpt lat="45.37187" lon="6.53149">
        <ele>1835.17</ele>
        <time>2014-01-29T08:17:14Z</time>
      </trkpt>
      <trkpt lat="45.37173" lon="6.53205">
        <ele>1856.59</ele>
        <time>2014-01-29T08:17:24Z</time>
      </trkpt>
      <trkpt lat="45.3716" lon="6.5326">
        <ele>1872.26</ele>
        <time>2014-01-29T08:17:34Z</time>
      </trkpt>
      <trkpt lat="45.37141" lon="6.53313">
        <ele>1879.72</ele>
        <time>2014-01-29T08:17:44Z</time>
      </trkpt>
      <trkpt lat="45.37125" lon="6.53369">
        <ele>1886.75</ele>
        <time>2014-01-29T08:17:54Z</time>
      </trkpt>
      <trkpt lat="45.37109" lon="6.53421">
        <ele>1895.13</ele>
        <time>2014-01-29T08:18:04Z</time>
      </trkpt>
      <trkpt lat="45.37094" lon="6.53473">
        <ele>1903.77</ele>
        <time>2014-01-29T08:18:13Z</time>
      </trkpt>
      <trkpt lat="45.37079" lon="6.53525">
        <ele>1910.43</ele>
        <time>2014-01-29T08:18:22Z</time>
      </trkpt>
      <trkpt lat="45.37065" lon="6.5358">
        <ele>1922.33</ele>
        <time>2014-01-29T08:18:32Z</time>
      </trkpt>
      <trkpt lat="45.37051" lon="6.53635">
        <ele>1938.08</ele>
        <time>2014-01-29T08:18:42Z</time>
      </trkpt>
      <trkpt lat="45.37035" lon="6.5369">
        <ele>1945.86</ele>
        <time>2014-01-29T08:18:52Z</time>
      </trkpt>
      <trkpt lat="45.37021" lon="6.53747">
        <ele>1964.98</ele>
        <time>2014-01-29T08:19:02Z</time>
      </trkpt>
      <trkpt lat="45.37006" lon="6.53797">
        <ele>1973.67</ele>
        <time>2014-01-29T08:19:11Z</time>
      </trkpt>
      <trkpt lat="45.36992" lon="6.53853">
        <ele>1987.74</ele>
        <time>2014-01-29T08:19:21Z</time>
      </trkpt>
      <trkpt lat="45.36978" lon="6.53906">
        <ele>1996.53</ele>
        <time>2014-01-29T08:19:31Z</time>
      </trkpt>
      <trkpt lat="45.36959" lon="6.53962">
        <ele>2001.97</ele>
        <time>2014-01-29T08:19:41Z</time>
      </trkpt>
      <trkpt lat="45.36945" lon="6.54014">
        <ele>2009.53</ele>
        <time>2014-01-29T08:19:50Z</time>
      </trkpt>
      <trkpt lat="45.36932" lon="6.54068">
        <ele>2018.05</ele>
        <time>2014-01-29T08:20:00Z</time>
      </trkpt>
      <trkpt lat="45.36918" lon="6.54121">
        <ele>2040.1</ele>
        <time>2014-01-29T08:20:10Z</time>
      </trkpt>
      <trkpt lat="45.36906" lon="6.54175">
        <ele>2064.73</ele>
        <time>2014-01-29T08:20:20Z</time>
      </trkpt>
      <trkpt lat="45.36894" lon="6.54227">
        <ele>2081.8</ele>
        <time>2014-01-29T08:20:29Z</time>
      </trkpt>
      <trkpt lat="45.36879" lon="6.54281">
        <ele>2094.96</ele>
        <time>2014-01-29T08:20:39Z</time>
      </trkpt>
      <trkpt lat="45.36865" lon="6.54336">
        <ele>2103.23</ele>
        <time>2014-01-29T08:20:49Z</time>
      </trkpt>
      <trkpt lat="45.36848" lon="6.54387">
        <ele>2102.89</ele>
        <time>2014-01-29T08:20:58Z</time>
      </trkpt>
      <trkpt lat="45.36832" lon="6.54442">
        <ele>2107.24</ele>
        <time>2014-01-29T08:21:08Z</time>
      </trkpt>
      <trkpt lat="45.36817" lon="6.54498">
        <ele>2123.14</ele>
        <time>2014-01-29T08:21:18Z</time>
      </trkpt>
      <trkpt lat="45.36801" lon="6.5455">
        <ele>2130.67</ele>
        <time>2014-01-29T08:21:28Z</time>
      </trkpt>
      <trkpt lat="45.36786" lon="6.54606">
        <ele>2134.57</ele>
        <time>2014-01-29T08:21:38Z</time>
      </trkpt>
      <trkpt lat="45.36771" lon="6.54664">
        <ele>2145.7</ele>
        <time>2014-01-29T08:21:48Z</time>
      </trkpt>
      <trkpt lat="45.3676" lon="6.54724">
        <ele>2164.05</ele>
        <time>2014-01-29T08:21:58Z</time>
      </trkpt>
      <trkpt lat="45.36748" lon="6.54777">
        <ele>2198.66</ele>
        <time>2014-01-29T08:22:08Z</time>
      </trkpt>
      <trkpt lat="45.3673" lon="6.54826">
        <ele>2194.05</ele>
        <time>2014-01-29T08:22:18Z</time>
      </trkpt>
      <trkpt lat="45.36709" lon="6.54878">
        <ele>2197.12</ele>
        <time>2014-01-29T08:22:28Z</time>
      </trkpt>
      <trkpt lat="45.3669" lon="6.54933">
        <ele>2197.41</ele>
        <time>2014-01-29T08:22:38Z</time>
      </trkpt>
      <trkpt lat="45.36674" lon="6.54989">
        <ele>2197.85</ele>
        <time>2014-01-29T08:22:48Z</time>
      </trkpt>
      <trkpt lat="45.36659" lon="6.55047">
        <ele>2210.2</ele>
        <time>2014-01-29T08:22:58Z</time>
      </trkpt>
      <trkpt lat="45.36645" lon="6.55106">
        <ele>2226.32</ele>
        <time>2014-01-29T08:23:08Z</time>
      </trkpt>
      <trkpt lat="45.36631" lon="6.55161">
        <ele>2241.53</ele>
        <time>2014-01-29T08:23:18Z</time>
      </trkpt>
      <trkpt lat="45.36617" lon="6.55219">
        <ele>2252.06</ele>
        <time>2014-01-29T08:23:28Z</time>
      </trkpt>
      <trkpt lat="45.36604" lon="6.55272">
        <ele>2260.51</ele>
        <time>2014-01-29T08:23:38Z</time>
      </trkpt>
      <trkpt lat="45.36589" lon="6.55329">
        <ele>2268.83</ele>
        <time>2014-01-29T08:23:48Z</time>
      </trkpt>
      <trkpt lat="45.36568" lon="6.55383">
        <ele>2279.29</ele>
        <time>2014-01-29T08:23:58Z</time>
      </trkpt>
      <trkpt lat="45.36551" lon="6.55439">
        <ele>2291.45</ele>
        <time>2014-01-29T08:24:08Z</time>
      </trkpt>
      <trkpt lat="45.36539" lon="6.55498">
        <ele>2300.07</ele>
        <time>2014-01-29T08:24:18Z</time>
      </trkpt>
      <trkpt lat="45.36528" lon="6.55552">
        <ele>2316.16</ele>
        <time>2014-01-29T08:24:28Z</time>
      </trkpt>
      <trkpt lat="45.36515" lon="6.55603">
        <ele>2334.32</ele>
        <time>2014-01-29T08:24:37Z</time>
      </trkpt>
      <trkpt lat="45.36502" lon="6.55657">
        <ele>2369.35</ele>
        <time>2014-01-29T08:24:47Z</time>
      </trkpt>
      <trkpt lat="45.36498" lon="6.55712">
        <ele>2395.49</ele>
        <time>2014-01-29T08:24:57Z</time>
      </trkpt>
      <trkpt lat="45.36516" lon="6.55739">
        <ele>2403.68</ele>
        <time>2014-01-29T08:25:21Z</time>
      </trkpt>
      <trkpt lat="45.36549" lon="6.55716">
        <ele>2403.62</ele>
        <time>2014-01-29T08:25:32Z</time>
      </trkpt>
      <trkpt lat="45.36584" lon="6.5569">
        <ele>2402.26</ele>
        <time>2014-01-29T08:25:43Z</time>
      </trkpt>
      <trkpt lat="45.3662" lon="6.55665">
        <ele>2387.35</ele>
        <time>2014-01-29T08:25:49Z</time>
      </trkpt>
      <trkpt lat="45.36662" lon="6.55632">
        <ele>2368.86</ele>
        <time>2014-01-29T08:25:53Z</time>
      </trkpt>
      <trkpt lat="45.36696" lon="6.55594">
        <ele>2356.47</ele>
        <time>2014-01-29T08:25:56Z</time>
      </trkpt>
      <trkpt lat="45.36713" lon="6.55539">
        <ele>2344.83</ele>
        <time>2014-01-29T08:26:00Z</time>
      </trkpt>
      <trkpt lat="45.36732" lon="6.55487">
        <ele>2336.86</ele>
        <time>2014-01-29T08:26:04Z</time>
      </trkpt>
      <trkpt lat="45.3675" lon="6.55431">
        <ele>2337.57</ele>
        <time>2014-01-29T08:26:09Z</time>
      </trkpt>
      <trkpt lat="45.36773" lon="6.55381">
        <ele>2332.13</ele>
        <time>2014-01-29T08:26:15Z</time>
      </trkpt>
      <trkpt lat="45.36803" lon="6.55341">
        <ele>2321.46</ele>
        <time>2014-01-29T08:26:20Z</time>
      </trkpt>
      <trkpt lat="45.36836" lon="6.553">
        <ele>2306.27</ele>
        <time>2014-01-29T08:26:25Z</time>
      </trkpt>
      <trkpt lat="45.36851" lon="6.55244">
        <ele>2304.29</ele>
        <time>2014-01-29T08:26:31Z</time>
      </trkpt>
      <trkpt lat="45.36874" lon="6.55199">
        <ele>2306.73</ele>
        <time>2014-01-29T08:26:37Z</time>
      </trkpt>
      <trkpt lat="45.36915" lon="6.5517">
        <ele>2303.66</ele>
        <time>2014-01-29T08:26:43Z</time>
      </trkpt>
      <trkpt lat="45.3695" lon="6.55135">
        <ele>2301.41</ele>
        <time>2014-01-29T08:26:49Z</time>
      </trkpt>
      <trkpt lat="45.36981" lon="6.55093">
        <ele>2297.26</ele>
        <time>2014-01-29T08:26:55Z</time>
      </trkpt>
      <trkpt lat="45.37009" lon="6.55048">
        <ele>2294.18</ele>
        <time>2014-01-29T08:27:03Z</time>
      </trkpt>
      <trkpt lat="45.37035" lon="6.55002">
        <ele>2287.96</ele>
        <time>2014-01-29T08:27:15Z</time>
      </trkpt>
      <trkpt lat="45.37062" lon="6.54959">
        <ele>2279.83</ele>
        <time>2014-01-29T08:27:23Z</time>
      </trkpt>
      <trkpt lat="45.37077" lon="6.54912">
        <ele>2269.76</ele>
        <time>2014-01-29T08:27:41Z</time>
      </trkpt>
      <trkpt lat="45.37107" lon="6.54882">
        <ele>2263.68</ele>
        <time>2014-01-29T08:27:49Z</time>
      </trkpt>
      <trkpt lat="45.37103" lon="6.5483">
        <ele>2246.16</ele>
        <time>2014-01-29T08:28:05Z</time>
      </trkpt>
      <trkpt lat="45.37114" lon="6.54786">
        <ele>2231.13</ele>
        <time>2014-01-29T08:28:16Z</time>
      </trkpt>
      <trkpt lat="45.37141" lon="6.5475">
        <ele>2221.83</ele>
        <time>2014-01-29T08:28:24Z</time>
      </trkpt>
      <trkpt lat="45.37139" lon="6.54709">
        <ele>2208.81</ele>
        <time>2014-01-29T08:28:35Z</time>
      </trkpt>
      <trkpt lat="45.3716" lon="6.54663">
        <ele>2196.8</ele>
        <time>2014-01-29T08:29:00Z</time>
      </trkpt>
      <trkpt lat="45.37197" lon="6.54637">
        <ele>2191.05</ele>
        <time>2014-01-29T08:29:32Z</time>
      </trkpt>
      <trkpt lat="45.37229" lon="6.54591">
        <ele>2174.92</ele>
        <time>2014-01-29T08:29:42Z</time>
      </trkpt>
      <trkpt lat="45.37259" lon="6.54548">
        <ele>2162.26</ele>
        <time>2014-01-29T08:29:49Z</time>
      </trkpt>
      <trkpt lat="45.37297" lon="6.54528">
        <ele>2157.44</ele>
        <time>2014-01-29T08:29:57Z</time>
      </trkpt>
      <trkpt lat="45.37261" lon="6.54511">
        <ele>2147.67</ele>
        <time>2014-01-29T08:30:22Z</time>
      </trkpt>
      <trkpt lat="45.37257" lon="6.54488">
        <ele>2137.5</ele>
        <time>2014-01-29T08:30:38Z</time>
      </trkpt>
      <trkpt lat="45.37245" lon="6.54442">
        <ele>2120.92</ele>
        <time>2014-01-29T08:32:27Z</time>
      </trkpt>
      <trkpt lat="45.37273" lon="6.544">
        <ele>2107.89</ele>
        <time>2014-01-29T08:32:42Z</time>
      </trkpt>
      <trkpt lat="45.37288" lon="6.54347">
        <ele>2094.32</ele>
        <time>2014-01-29T08:32:52Z</time>
      </trkpt>
      <trkpt lat="45.37304" lon="6.54304">
        <ele>2084.51</ele>
        <time>2014-01-29T08:33:03Z</time>
      </trkpt>
      <trkpt lat="45.37304" lon="6.54255">
        <ele>2068.05</ele>
        <time>2014-01-29T08:33:16Z</time>
      </trkpt>
      <trkpt lat="45.37326" lon="6.5421">
        <ele>2057.85</ele>
        <time>2014-01-29T08:33:32Z</time>
      </trkpt>
      <trkpt lat="45.37362" lon="6.54183">
        <ele>2048.12</ele>
        <time>2014-01-29T08:33:52Z</time>
      </trkpt>
      <trkpt lat="45.37404" lon="6.54173">
        <ele>2038.58</ele>
        <time>2014-01-29T08:34:02Z</time>
      </trkpt>
      <trkpt lat="45.37438" lon="6.54144">
        <ele>2024.97</ele>
        <time>2014-01-29T08:34:11Z</time>
      </trkpt>
      <trkpt lat="45.37418" lon="6.54107">
        <ele>2013.65</ele>
        <time>2014-01-29T08:34:21Z</time>
      </trkpt>
      <trkpt lat="45.3742" lon="6.54044">
        <ele>1999.24</ele>
        <time>2014-01-29T08:34:27Z</time>
      </trkpt>
      <trkpt lat="45.37412" lon="6.5398">
        <ele>1993.69</ele>
        <time>2014-01-29T08:34:33Z</time>
      </trkpt>
      <trkpt lat="45.37389" lon="6.53934">
        <ele>1989.44</ele>
        <time>2014-01-29T08:34:42Z</time>
      </trkpt>
      <trkpt lat="45.37419" lon="6.53897">
        <ele>1982.68</ele>
        <time>2014-01-29T08:34:53Z</time>
      </trkpt>
      <trkpt lat="45.37437" lon="6.53847">
        <ele>1972.89</ele>
        <time>2014-01-29T08:35:04Z</time>
      </trkpt>
      <trkpt lat="45.37441" lon="6.53792">
        <ele>1961.15</ele>
        <time>2014-01-29T08:35:14Z</time>
      </trkpt>
      <trkpt lat="45.3745" lon="6.53738">
        <ele>1951.32</ele>
        <time>2014-01-29T08:35:24Z</time>
      </trkpt>
      <trkpt lat="45.37442" lon="6.5368">
        <ele>1943.2</ele>
        <time>2014-01-29T08:35:31Z</time>
      </trkpt>
      <trkpt lat="45.37424" lon="6.5363">
        <ele>1933.58</ele>
        <time>2014-01-29T08:35:39Z</time>
      </trkpt>
      <trkpt lat="45.37408" lon="6.53583">
        <ele>1926.07</ele>
        <time>2014-01-29T08:35:48Z</time>
      </trkpt>
      <trkpt lat="45.37396" lon="6.53526">
        <ele>1921.38</ele>
        <time>2014-01-29T08:35:55Z</time>
      </trkpt>
      <trkpt lat="45.37384" lon="6.53472">
        <ele>1920.8</ele>
        <time>2014-01-29T08:36:05Z</time>
      </trkpt>
      <trkpt lat="45.37359" lon="6.53425">
        <ele>1910.63</ele>
        <time>2014-01-29T08:36:18Z</time>
      </trkpt>
      <trkpt lat="45.3735" lon="6.53373">
        <ele>1896.46</ele>
        <time>2014-01-29T08:36:28Z</time>
      </trkpt>
      <trkpt lat="45.37312" lon="6.53399">
        <ele>1897.16</ele>
        <time>2014-01-29T08:36:41Z</time>
      </trkpt>
      <trkpt lat="45.373" lon="6.53349">
        <ele>1885</ele>
        <time>2014-01-29T08:36:50Z</time>
      </trkpt>
      <trkpt lat="45.37278" lon="6.53305">
        <ele>1871.88</ele>
        <time>2014-01-29T08:37:03Z</time>
      </trkpt>
      <trkpt lat="45.37254" lon="6.53278">
        <ele>1860.17</ele>
        <time>2014-01-29T08:37:17Z</time>
      </trkpt>
      <trkpt lat="45.37244" lon="6.53232">
        <ele>1849.11</ele>
        <time>2014-01-29T08:38:22Z</time>
      </trkpt>
      <trkpt lat="45.37229" lon="6.53178">
        <ele>1836.62</ele>
        <time>2014-01-29T08:38:33Z</time>
      </trkpt>
      <trkpt lat="45.37214" lon="6.53125">
        <ele>1826.22</ele>
        <time>2014-01-29T08:38:45Z</time>
      </trkpt>
      <trkpt lat="45.37215" lon="6.53068">
        <ele>1816.34</ele>
        <time>2014-01-29T08:38:51Z</time>
      </trkpt>
      <trkpt lat="45.37241" lon="6.53009">
        <ele>1809.43</ele>
        <time>2014-01-29T08:38:55Z</time>
      </trkpt>
      <trkpt lat="45.37272" lon="6.52949">
        <ele>1800.46</ele>
        <time>2014-01-29T08:38:59Z</time>
      </trkpt>
      <trkpt lat="45.37283" lon="6.52897">
        <ele>1795.55</ele>
        <time>2014-01-29T08:39:05Z</time>
      </trkpt>
      <trkpt lat="45.37259" lon="6.52892">
        <ele>1790.55</ele>
        <time>2014-01-29T08:39:38Z</time>
      </trkpt>
      <trkpt lat="45.37243" lon="6.52948">
        <ele>1799.75</ele>
        <time>2014-01-29T08:39:58Z</time>
      </trkpt>
      <trkpt lat="45.37227" lon="6.53004">
        <ele>1807.96</ele>
        <time>2014-01-29T08:40:08Z</time>
      </trkpt>
      <trkpt lat="45.37213" lon="6.53059">
        <ele>1815.18</ele>
        <time>2014-01-29T08:40:18Z</time>
      </trkpt>
      <trkpt lat="45.37197" lon="6.53114">
        <ele>1824.56</ele>
        <time>2014-01-29T08:40:28Z</time>
      </trkpt>
      <trkpt lat="45.37182" lon="6.53168">
        <ele>1843.02</ele>
        <time>2014-01-29T08:40:38Z</time>
      </trkpt>
      <trkpt lat="45.37168" lon="6.53223">
        <ele>1862.89</ele>
        <time>2014-01-29T08:40:48Z</time>
      </trkpt>
      <trkpt lat="45.37154" lon="6.53279">
        <ele>1875.04</ele>
        <time>2014-01-29T08:40:58Z</time>
      </trkpt>
      <trkpt lat="45.37136" lon="6.53335">
        <ele>1882.52</ele>
        <time>2014-01-29T08:41:08Z</time>
      </trkpt>
      <trkpt lat="45.37121" lon="6.53387">
        <ele>1888.72</ele>
        <time>2014-01-29T08:41:17Z</time>
      </trkpt>
      <trkpt lat="45.37112" lon="6.53445">
        <ele>1898.95</ele>
        <time>2014-01-29T08:41:27Z</time>
      </trkpt>
      <trkpt lat="45.37099" lon="6.53499">
        <ele>1906.82</ele>
        <time>2014-01-29T08:41:36Z</time>
      </trkpt>
      <trkpt lat="45.37076" lon="6.5355">
        <ele>1915.74</ele>
        <time>2014-01-29T08:41:46Z</time>
      </trkpt>
      <trkpt lat="45.37063" lon="6.53607">
        <ele>1928.97</ele>
        <time>2014-01-29T08:41:56Z</time>
      </trkpt>
      <trkpt lat="45.37045" lon="6.53662">
        <ele>1941.71</ele>
        <time>2014-01-29T08:42:07Z</time>
      </trkpt>
      <trkpt lat="45.37032" lon="6.53714">
        <ele>1953.99</ele>
        <time>2014-01-29T08:42:17Z</time>
      </trkpt>
      <trkpt lat="45.37017" lon="6.53763">
        <ele>1967.85</ele>
        <time>2014-01-29T08:42:26Z</time>
      </trkpt>
      <trkpt lat="45.37" lon="6.53822">
        <ele>1978.5</ele>
        <time>2014-01-29T08:42:36Z</time>
      </trkpt>
      <trkpt lat="45.36987" lon="6.53874">
        <ele>1992.56</ele>
        <time>2014-01-29T08:42:46Z</time>
      </trkpt>
      <trkpt lat="45.36972" lon="6.53924">
        <ele>1998.95</ele>
        <time>2014-01-29T08:42:55Z</time>
      </trkpt>
      <trkpt lat="45.36956" lon="6.53971">
        <ele>2003.08</ele>
        <time>2014-01-29T08:43:04Z</time>
      </trkpt>
      <trkpt lat="45.3694" lon="6.5402">
        <ele>2009.93</ele>
        <time>2014-01-29T08:43:15Z</time>
      </trkpt>
      <trkpt lat="45.36926" lon="6.54069">
        <ele>2017.59</ele>
        <time>2014-01-29T08:43:25Z</time>
      </trkpt>
      <trkpt lat="45.36906" lon="6.5413">
        <ele>2042.11</ele>
        <time>2014-01-29T08:43:42Z</time>
      </trkpt>
      <trkpt lat="45.36891" lon="6.54186">
        <ele>2066.23</ele>
        <time>2014-01-29T08:43:52Z</time>
      </trkpt>
      <trkpt lat="45.36876" lon="6.54242">
        <ele>2079.38</ele>
        <time>2014-01-29T08:44:02Z</time>
      </trkpt>
      <trkpt lat="45.36859" lon="6.54297">
        <ele>2092.39</ele>
        <time>2014-01-29T08:44:13Z</time>
      </trkpt>
      <trkpt lat="45.36843" lon="6.54359">
        <ele>2091.58</ele>
        <time>2014-01-29T08:44:22Z</time>
      </trkpt>
      <trkpt lat="45.36831" lon="6.54411">
        <ele>2100.82</ele>
        <time>2014-01-29T08:44:27Z</time>
      </trkpt>
      <trkpt lat="45.36818" lon="6.54464">
        <ele>2110.19</ele>
        <time>2014-01-29T08:44:34Z</time>
      </trkpt>
      <trkpt lat="45.36801" lon="6.54518">
        <ele>2122.88</ele>
        <time>2014-01-29T08:44:46Z</time>
      </trkpt>
      <trkpt lat="45.36785" lon="6.54578">
        <ele>2128.94</ele>
        <time>2014-01-29T08:44:54Z</time>
      </trkpt>
      <trkpt lat="45.36772" lon="6.54628">
        <ele>2132.94</ele>
        <time>2014-01-29T08:45:03Z</time>
      </trkpt>
      <trkpt lat="45.36755" lon="6.54677">
        <ele>2140.9</ele>
        <time>2014-01-29T08:45:17Z</time>
      </trkpt>
      <trkpt lat="45.36738" lon="6.54728">
        <ele>2164.49</ele>
        <time>2014-01-29T08:45:33Z</time>
      </trkpt>
      <trkpt lat="45.36726" lon="6.54777">
        <ele>2184.16</ele>
        <time>2014-01-29T08:45:41Z</time>
      </trkpt>
      <trkpt lat="45.36711" lon="6.54833">
        <ele>2189.43</ele>
        <time>2014-01-29T08:45:51Z</time>
      </trkpt>
      <trkpt lat="45.36699" lon="6.54888">
        <ele>2197.24</ele>
        <time>2014-01-29T08:45:56Z</time>
      </trkpt>
      <trkpt lat="45.36683" lon="6.54944">
        <ele>2194.25</ele>
        <time>2014-01-29T08:46:02Z</time>
      </trkpt>
      <trkpt lat="45.36669" lon="6.54996">
        <ele>2199.11</ele>
        <time>2014-01-29T08:46:09Z</time>
      </trkpt>
      <trkpt lat="45.36652" lon="6.55051">
        <ele>2209.26</ele>
        <time>2014-01-29T08:46:20Z</time>
      </trkpt>
      <trkpt lat="45.36637" lon="6.55105">
        <ele>2224.36</ele>
        <time>2014-01-29T08:46:31Z</time>
      </trkpt>
      <trkpt lat="45.36624" lon="6.55154">
        <ele>2238.6</ele>
        <time>2014-01-29T08:46:39Z</time>
      </trkpt>
      <trkpt lat="45.36609" lon="6.55209">
        <ele>2250.31</ele>
        <time>2014-01-29T08:46:48Z</time>
      </trkpt>
      <trkpt lat="45.36593" lon="6.55266">
        <ele>2260.27</ele>
        <time>2014-01-29T08:46:59Z</time>
      </trkpt>
      <trkpt lat="45.36577" lon="6.55319">
        <ele>2264.43</ele>
        <time>2014-01-29T08:47:09Z</time>
      </trkpt>
      <trkpt lat="45.36563" lon="6.55368">
        <ele>2274.36</ele>
        <time>2014-01-29T08:47:16Z</time>
      </trkpt>
      <trkpt lat="45.36548" lon="6.55422">
        <ele>2287.72</ele>
        <time>2014-01-29T08:47:26Z</time>
      </trkpt>
      <trkpt lat="45.36534" lon="6.55474">
        <ele>2295</ele>
        <time>2014-01-29T08:47:36Z</time>
      </trkpt>
      <trkpt lat="45.36528" lon="6.55532">
        <ele>2311.21</ele>
        <time>2014-01-29T08:47:44Z</time>
      </trkpt>
      <trkpt lat="45.36526" lon="6.55589">
        <ele>2328.94</ele>
        <time>2014-01-29T08:47:53Z</time>
      </trkpt>
      <trkpt lat="45.36526" lon="6.55646">
        <ele>2361.82</ele>
        <time>2014-01-29T08:48:02Z</time>
      </trkpt>
      <trkpt lat="45.36509" lon="6.5569">
        <ele>2386.96</ele>
        <time>2014-01-29T08:48:13Z</time>
      </trkpt>
      <trkpt lat="45.36494" lon="6.55744">
        <ele>2404.18</ele>
        <time>2014-01-29T08:48:26Z</time>
      </trkpt>
      <trkpt lat="45.36456" lon="6.5575">
        <ele>2397.76</ele>
        <time>2014-01-29T08:48:38Z</time>
      </trkpt>
      <trkpt lat="45.36417" lon="6.55746">
        <ele>2390.34</ele>
        <time>2014-01-29T08:48:52Z</time>
      </trkpt>
      <trkpt lat="45.36373" lon="6.55735">
        <ele>2387.58</ele>
        <time>2014-01-29T08:49:01Z</time>
      </trkpt>
      <trkpt lat="45.36331" lon="6.55714">
        <ele>2379.45</ele>
        <time>2014-01-29T08:49:07Z</time>
      </trkpt>
      <trkpt lat="45.36348" lon="6.55647">
        <ele>2364.05</ele>
        <time>2014-01-29T08:49:14Z</time>
      </trkpt>
      <trkpt lat="45.36365" lon="6.55596">
        <ele>2354.19</ele>
        <time>2014-01-29T08:49:18Z</time>
      </trkpt>
      <trkpt lat="45.36403" lon="6.55566">
        <ele>2348.24</ele>
        <time>2014-01-29T08:49:24Z</time>
      </trkpt>
      <trkpt lat="45.36428" lon="6.5551">
        <ele>2324.55</ele>
        <time>2014-01-29T08:49:29Z</time>
      </trkpt>
      <trkpt lat="45.36427" lon="6.55451">
        <ele>2307.55</ele>
        <time>2014-01-29T08:49:33Z</time>
      </trkpt>
      <trkpt lat="45.36441" lon="6.55385">
        <ele>2284.46</ele>
        <time>2014-01-29T08:49:38Z</time>
      </trkpt>
      <trkpt lat="45.36456" lon="6.55319">
        <ele>2271.49</ele>
        <time>2014-01-29T08:49:42Z</time>
      </trkpt>
      <trkpt lat="45.36439" lon="6.55267">
        <ele>2260.27</ele>
        <time>2014-01-29T08:49:46Z</time>
      </trkpt>
      <trkpt lat="45.36447" lon="6.55207">
        <ele>2247.64</ele>
        <time>2014-01-29T08:49:51Z</time>
      </trkpt>
      <trkpt lat="45.36453" lon="6.55149">
        <ele>2235.57</ele>
        <time>2014-01-29T08:49:55Z</time>
      </trkpt>
      <trkpt lat="45.36463" lon="6.55087">
        <ele>2219.66</ele>
        <time>2014-01-29T08:50:01Z</time>
      </trkpt>
      <trkpt lat="45.36473" lon="6.55026">
        <ele>2202.37</ele>
        <time>2014-01-29T08:50:07Z</time>
      </trkpt>
      <trkpt lat="45.36475" lon="6.54968">
        <ele>2185.93</ele>
        <time>2014-01-29T08:50:11Z</time>
      </trkpt>
      <trkpt lat="45.36482" lon="6.54898">
        <ele>2175.47</ele>
        <time>2014-01-29T08:50:15Z</time>
      </trkpt>
      <trkpt lat="45.3649" lon="6.54831">
        <ele>2164.66</ele>
        <time>2014-01-29T08:50:19Z</time>
      </trkpt>
      <trkpt lat="45.36501" lon="6.54769">
        <ele>2154.13</ele>
        <time>2014-01-29T08:50:24Z</time>
      </trkpt>
      <trkpt lat="45.36488" lon="6.54698">
        <ele>2137.2</ele>
        <time>2014-01-29T08:50:29Z</time>
      </trkpt>
      <trkpt lat="45.36467" lon="6.54636">
        <ele>2132.63</ele>
        <time>2014-01-29T08:50:33Z</time>
      </trkpt>
      <trkpt lat="45.36474" lon="6.54553">
        <ele>2121.93</ele>
        <time>2014-01-29T08:50:37Z</time>
      </trkpt>
      <trkpt lat="45.36499" lon="6.54484">
        <ele>2107.55</ele>
        <time>2014-01-29T08:50:41Z</time>
      </trkpt>
      <trkpt lat="45.36531" lon="6.5443">
        <ele>2096.79</ele>
        <time>2014-01-29T08:50:45Z</time>
      </trkpt>
      <trkpt lat="45.36562" lon="6.5439">
        <ele>2092.11</ele>
        <time>2014-01-29T08:50:49Z</time>
      </trkpt>
      <trkpt lat="45.36583" lon="6.54335">
        <ele>2082.42</ele>
        <time>2014-01-29T08:50:53Z</time>
      </trkpt>
      <trkpt lat="45.36588" lon="6.54283">
        <ele>2076.06</ele>
        <time>2014-01-29T08:50:57Z</time>
      </trkpt>
      <trkpt lat="45.36604" lon="6.54234">
        <ele>2068.57</ele>
        <time>2014-01-29T08:51:01Z</time>
      </trkpt>
      <trkpt lat="45.36634" lon="6.54188">
        <ele>2061.29</ele>
        <time>2014-01-29T08:51:06Z</time>
      </trkpt>
      <trkpt lat="45.36664" lon="6.54136">
        <ele>2047.49</ele>
        <time>2014-01-29T08:51:11Z</time>
      </trkpt>
      <trkpt lat="45.36686" lon="6.54076">
        <ele>2025.63</ele>
        <time>2014-01-29T08:51:15Z</time>
      </trkpt>
      <trkpt lat="45.36696" lon="6.54012">
        <ele>2019.76</ele>
        <time>2014-01-29T08:51:19Z</time>
      </trkpt>
      <trkpt lat="45.36709" lon="6.53949">
        <ele>2007.88</ele>
        <time>2014-01-29T08:51:23Z</time>
      </trkpt>
      <trkpt lat="45.36725" lon="6.5389">
        <ele>2002.11</ele>
        <time>2014-01-29T08:51:27Z</time>
      </trkpt>
      <trkpt lat="45.3676" lon="6.5386">
        <ele>1994.34</ele>
        <time>2014-01-29T08:51:32Z</time>
      </trkpt>
      <trkpt lat="45.36807" lon="6.53863">
        <ele>1990.6</ele>
        <time>2014-01-29T08:51:36Z</time>
      </trkpt>
      <trkpt lat="45.3685" lon="6.53862">
        <ele>1986.41</ele>
        <time>2014-01-29T08:51:40Z</time>
      </trkpt>
      <trkpt lat="45.36891" lon="6.53837">
        <ele>1977.73</ele>
        <time>2014-01-29T08:51:44Z</time>
      </trkpt>
      <trkpt lat="45.36921" lon="6.53797">
        <ele>1969.36</ele>
        <time>2014-01-29T08:51:48Z</time>
      </trkpt>
      <trkpt lat="45.3694" lon="6.5373">
        <ele>1958.21</ele>
        <time>2014-01-29T08:51:55Z</time>
      </trkpt>
      <trkpt lat="45.36959" lon="6.53672">
        <ele>1943.59</ele>
        <time>2014-01-29T08:52:00Z</time>
      </trkpt>
      <trkpt lat="45.36971" lon="6.53603">
        <ele>1932.32</ele>
        <time>2014-01-29T08:52:04Z</time>
      </trkpt>
      <trkpt lat="45.36981" lon="6.53541">
        <ele>1921.12</ele>
        <time>2014-01-29T08:52:09Z</time>
      </trkpt>
      <trkpt lat="45.36989" lon="6.53482">
        <ele>1911.59</ele>
        <time>2014-01-29T08:52:13Z</time>
      </trkpt>
      <trkpt lat="45.37008" lon="6.53424">
        <ele>1907.7</ele>
        <time>2014-01-29T08:52:17Z</time>
      </trkpt>
      <trkpt lat="45.37035" lon="6.53377">
        <ele>1901.57</ele>
        <time>2014-01-29T08:52:21Z</time>
      </trkpt>
      <trkpt lat="45.37072" lon="6.53332">
        <ele>1891.85</ele>
        <time>2014-01-29T08:52:28Z</time>
      </trkpt>
      <trkpt lat="45.37092" lon="6.53283">
        <ele>1884.79</ele>
        <time>2014-01-29T08:52:34Z</time>
      </trkpt>
      <trkpt lat="45.37129" lon="6.53264">
        <ele>1877.09</ele>
        <time>2014-01-29T08:52:42Z</time>
      </trkpt>
      <trkpt lat="45.37163" lon="6.53228">
        <ele>1865.48</ele>
        <time>2014-01-29T08:52:49Z</time>
      </trkpt>
      <trkpt lat="45.37191" lon="6.53185">
        <ele>1844.87</ele>
        <time>2014-01-29T08:52:54Z</time>
      </trkpt>
      <trkpt lat="45.37209" lon="6.53136">
        <ele>1828.88</ele>
        <time>2014-01-29T08:52:58Z</time>
      </trkpt>
      <trkpt lat="45.37227" lon="6.53072">
        <ele>1816.73</ele>
        <time>2014-01-29T08:53:02Z</time>
      </trkpt>
      <trkpt lat="45.37248" lon="6.53004">
        <ele>1809.38</ele>
        <time>2014-01-29T08:53:06Z</time>
      </trkpt>
      <trkpt lat="45.3728" lon="6.5296">
        <ele>1802.34</ele>
        <time>2014-01-29T08:53:10Z</time>
      </trkpt>
      <trkpt lat="45.37293" lon="6.52905">
        <ele>1797.94</ele>
        <time>2014-01-29T08:53:17Z</time>
      </trkpt>
      <trkpt lat="45.37272" lon="6.52858">
        <ele>1790.22</ele>
        <time>2014-01-29T08:53:46Z</time>
      </trkpt>
      <trkpt lat="45.37248" lon="6.5291">
        <ele>1791.99</ele>
        <time>2014-01-29T08:54:30Z</time>
      </trkpt>
      <trkpt lat="45.37238" lon="6.52963">
        <ele>1802.21</ele>
        <time>2014-01-29T08:54:38Z</time>
      </trkpt>
      <trkpt lat="45.37224" lon="6.53013">
        <ele>1809.03</ele>
        <time>2014-01-29T08:54:47Z</time>
      </trkpt>
      <trkpt lat="45.37212" lon="6.53064">
        <ele>1815.74</ele>
        <time>2014-01-29T08:54:55Z</time>
      </trkpt>
      <trkpt lat="45.37195" lon="6.53113">
        <ele>1824.39</ele>
        <time>2014-01-29T08:56:36Z</time>
      </trkpt>
      <trkpt lat="45.37182" lon="6.53163">
        <ele>1841.44</ele>
        <time>2014-01-29T08:56:58Z</time>
      </trkpt>
      <trkpt lat="45.37168" lon="6.53216">
        <ele>1861</ele>
        <time>2014-01-29T08:57:09Z</time>
      </trkpt>
      <trkpt lat="45.37153" lon="6.53272">
        <ele>1874.32</ele>
        <time>2014-01-29T08:57:19Z</time>
      </trkpt>
      <trkpt lat="45.3714" lon="6.53324">
        <ele>1880.94</ele>
        <time>2014-01-29T08:57:28Z</time>
      </trkpt>
      <trkpt lat="45.37124" lon="6.53375">
        <ele>1887.37</ele>
        <time>2014-01-29T08:57:37Z</time>
      </trkpt>
      <trkpt lat="45.3711" lon="6.53429">
        <ele>1896.27</ele>
        <time>2014-01-29T08:57:46Z</time>
      </trkpt>
      <trkpt lat="45.37097" lon="6.53482">
        <ele>1904.78</ele>
        <time>2014-01-29T08:57:56Z</time>
      </trkpt>
      <trkpt lat="45.3708" lon="6.53539">
        <ele>1913.31</ele>
        <time>2014-01-29T08:58:06Z</time>
      </trkpt>
      <trkpt lat="45.37065" lon="6.53595">
        <ele>1926.03</ele>
        <time>2014-01-29T08:58:16Z</time>
      </trkpt>
      <trkpt lat="45.37051" lon="6.5365">
        <ele>1940.98</ele>
        <time>2014-01-29T08:58:26Z</time>
      </trkpt>
      <trkpt lat="45.37036" lon="6.53706">
        <ele>1951.59</ele>
        <time>2014-01-29T08:58:36Z</time>
      </trkpt>
      <trkpt lat="45.37026" lon="6.5376">
        <ele>1968.93</ele>
        <time>2014-01-29T08:58:46Z</time>
      </trkpt>
      <trkpt lat="45.37015" lon="6.53815">
        <ele>1977.01</ele>
        <time>2014-01-29T08:58:55Z</time>
      </trkpt>
      <trkpt lat="45.37003" lon="6.53869">
        <ele>1993.5</ele>
        <time>2014-01-29T08:59:04Z</time>
      </trkpt>
      <trkpt lat="45.36995" lon="6.53925">
        <ele>2002.76</ele>
        <time>2014-01-29T08:59:14Z</time>
      </trkpt>
      <trkpt lat="45.36976" lon="6.53981">
        <ele>2006.82</ele>
        <time>2014-01-29T08:59:24Z</time>
      </trkpt>
      <trkpt lat="45.36965" lon="6.54036">
        <ele>2016.05</ele>
        <time>2014-01-29T08:59:34Z</time>
      </trkpt>
      <trkpt lat="45.36958" lon="6.54097">
        <ele>2036.58</ele>
        <time>2014-01-29T08:59:44Z</time>
      </trkpt>
      <trkpt lat="45.36948" lon="6.54155">
        <ele>2064.64</ele>
        <time>2014-01-29T08:59:55Z</time>
      </trkpt>
      <trkpt lat="45.36938" lon="6.54207">
        <ele>2079.91</ele>
        <time>2014-01-29T09:00:05Z</time>
      </trkpt>
      <trkpt lat="45.36916" lon="6.54261">
        <ele>2092.62</ele>
        <time>2014-01-29T09:00:12Z</time>
      </trkpt>
      <trkpt lat="45.36895" lon="6.54306">
        <ele>2106.38</ele>
        <time>2014-01-29T09:00:21Z</time>
      </trkpt>
      <trkpt lat="45.3688" lon="6.54356">
        <ele>2109.14</ele>
        <time>2014-01-29T09:00:32Z</time>
      </trkpt>
      <trkpt lat="45.36862" lon="6.54404">
        <ele>2115.62</ele>
        <time>2014-01-29T09:00:41Z</time>
      </trkpt>
      <trkpt lat="45.36842" lon="6.54452">
        <ele>2115.13</ele>
        <time>2014-01-29T09:00:48Z</time>
      </trkpt>
      <trkpt lat="45.36827" lon="6.54504">
        <ele>2129.28</ele>
        <time>2014-01-29T09:00:57Z</time>
      </trkpt>
      <trkpt lat="45.36815" lon="6.54556">
        <ele>2139.25</ele>
        <time>2014-01-29T09:01:08Z</time>
      </trkpt>
      <trkpt lat="45.36797" lon="6.54607">
        <ele>2141.18</ele>
        <time>2014-01-29T09:01:20Z</time>
      </trkpt>
      <trkpt lat="45.36778" lon="6.54657">
        <ele>2146.7</ele>
        <time>2014-01-29T09:01:29Z</time>
      </trkpt>
      <trkpt lat="45.36752" lon="6.54701">
        <ele>2149.66</ele>
        <time>2014-01-29T09:01:50Z</time>
      </trkpt>
      <trkpt lat="45.3673" lon="6.54749">
        <ele>2176.01</ele>
        <time>2014-01-29T09:01:55Z</time>
      </trkpt>
      <trkpt lat="45.36717" lon="6.5481">
        <ele>2186.43</ele>
        <time>2014-01-29T09:02:00Z</time>
      </trkpt>
      <trkpt lat="45.36705" lon="6.54864">
        <ele>2195.27</ele>
        <time>2014-01-29T09:02:07Z</time>
      </trkpt>
      <trkpt lat="45.3669" lon="6.5492">
        <ele>2199.09</ele>
        <time>2014-01-29T09:02:17Z</time>
      </trkpt>
      <trkpt lat="45.36676" lon="6.5497">
        <ele>2194.48</ele>
        <time>2014-01-29T09:02:26Z</time>
      </trkpt>
      <trkpt lat="45.36663" lon="6.55023">
        <ele>2203.5</ele>
        <time>2014-01-29T09:02:34Z</time>
      </trkpt>
      <trkpt lat="45.36651" lon="6.55078">
        <ele>2218.21</ele>
        <time>2014-01-29T09:02:44Z</time>
      </trkpt>
      <trkpt lat="45.36637" lon="6.55128">
        <ele>2232.09</ele>
        <time>2014-01-29T09:02:54Z</time>
      </trkpt>
      <trkpt lat="45.36622" lon="6.5518">
        <ele>2245.33</ele>
        <time>2014-01-29T09:03:03Z</time>
      </trkpt>
      <trkpt lat="45.36607" lon="6.55238">
        <ele>2255.19</ele>
        <time>2014-01-29T09:03:13Z</time>
      </trkpt>
      <trkpt lat="45.36591" lon="6.55296">
        <ele>2264.47</ele>
        <time>2014-01-29T09:03:23Z</time>
      </trkpt>
      <trkpt lat="45.36574" lon="6.55348">
        <ele>2269.56</ele>
        <time>2014-01-29T09:03:33Z</time>
      </trkpt>
      <trkpt lat="45.36554" lon="6.55399">
        <ele>2283.3</ele>
        <time>2014-01-29T09:03:43Z</time>
      </trkpt>
      <trkpt lat="45.36539" lon="6.55452">
        <ele>2292.29</ele>
        <time>2014-01-29T09:03:54Z</time>
      </trkpt>
      <trkpt lat="45.36527" lon="6.55507">
        <ele>2301.92</ele>
        <time>2014-01-29T09:04:06Z</time>
      </trkpt>
      <trkpt lat="45.36519" lon="6.55568">
        <ele>2320.49</ele>
        <time>2014-01-29T09:04:15Z</time>
      </trkpt>
      <trkpt lat="45.36513" lon="6.55621">
        <ele>2345.37</ele>
        <time>2014-01-29T09:04:24Z</time>
      </trkpt>
      <trkpt lat="45.36506" lon="6.55678">
        <ele>2380.37</ele>
        <time>2014-01-29T09:04:35Z</time>
      </trkpt>
      <trkpt lat="45.36479" lon="6.55719">
        <ele>2392.06</ele>
        <time>2014-01-29T09:04:43Z</time>
      </trkpt>
      <trkpt lat="45.36511" lon="6.55734">
        <ele>2403.69</ele>
        <time>2014-01-29T09:05:40Z</time>
      </trkpt>
      <trkpt lat="45.36547" lon="6.55718">
        <ele>2403.41</ele>
        <time>2014-01-29T09:05:52Z</time>
      </trkpt>
      <trkpt lat="45.36582" lon="6.5569">
        <ele>2402.99</ele>
        <time>2014-01-29T09:06:29Z</time>
      </trkpt>
      <trkpt lat="45.36622" lon="6.55667">
        <ele>2387.8</ele>
        <time>2014-01-29T09:06:37Z</time>
      </trkpt>
      <trkpt lat="45.36662" lon="6.55644">
        <ele>2372.49</ele>
        <time>2014-01-29T09:06:43Z</time>
      </trkpt>
      <trkpt lat="45.36695" lon="6.55602">
        <ele>2357.98</ele>
        <time>2014-01-29T09:06:49Z</time>
      </trkpt>
      <trkpt lat="45.36724" lon="6.55635">
        <ele>2363.55</ele>
        <time>2014-01-29T09:06:57Z</time>
      </trkpt>
      <trkpt lat="45.36764" lon="6.55632">
        <ele>2344.98</ele>
        <time>2014-01-29T09:07:03Z</time>
      </trkpt>
      <trkpt lat="45.36793" lon="6.55594">
        <ele>2330.48</ele>
        <time>2014-01-29T09:07:08Z</time>
      </trkpt>
      <trkpt lat="45.36822" lon="6.55555">
        <ele>2318.35</ele>
        <time>2014-01-29T09:07:13Z</time>
      </trkpt>
      <trkpt lat="45.36861" lon="6.55529">
        <ele>2306.17</ele>
        <time>2014-01-29T09:07:19Z</time>
      </trkpt>
      <trkpt lat="45.36895" lon="6.55491">
        <ele>2292.65</ele>
        <time>2014-01-29T09:07:25Z</time>
      </trkpt>
      <trkpt lat="45.36936" lon="6.55487">
        <ele>2279.63</ele>
        <time>2014-01-29T09:07:30Z</time>
      </trkpt>
      <trkpt lat="45.36962" lon="6.55532">
        <ele>2273.15</ele>
        <time>2014-01-29T09:07:37Z</time>
      </trkpt>
      <trkpt lat="45.36953" lon="6.55603">
        <ele>2266.56</ele>
        <time>2014-01-29T09:07:43Z</time>
      </trkpt>
      <trkpt lat="45.36954" lon="6.55655">
        <ele>2259.55</ele>
        <time>2014-01-29T09:07:49Z</time>
      </trkpt>
      <trkpt lat="45.36971" lon="6.55706">
        <ele>2251.14</ele>
        <time>2014-01-29T09:07:55Z</time>
      </trkpt>
      <trkpt lat="45.37003" lon="6.55722">
        <ele>2236.95</ele>
        <time>2014-01-29T09:08:00Z</time>
      </trkpt>
      <trkpt lat="45.37041" lon="6.55712">
        <ele>2224.56</ele>
        <time>2014-01-29T09:08:04Z</time>
      </trkpt>
      <trkpt lat="45.37069" lon="6.5567">
        <ele>2214.24</ele>
        <time>2014-01-29T09:08:08Z</time>
      </trkpt>
      <trkpt lat="45.37111" lon="6.55642">
        <ele>2203.69</ele>
        <time>2014-01-29T09:08:14Z</time>
      </trkpt>
      <trkpt lat="45.3715" lon="6.55638">
        <ele>2194.72</ele>
        <time>2014-01-29T09:08:21Z</time>
      </trkpt>
      <trkpt lat="45.37193" lon="6.5562">
        <ele>2180.69</ele>
        <time>2014-01-29T09:08:28Z</time>
      </trkpt>
      <trkpt lat="45.37238" lon="6.55604">
        <ele>2168.88</ele>
        <time>2014-01-29T09:08:33Z</time>
      </trkpt>
      <trkpt lat="45.37269" lon="6.55635">
        <ele>2154.54</ele>
        <time>2014-01-29T09:08:37Z</time>
      </trkpt>
      <trkpt lat="45.37252" lon="6.55693">
        <ele>2148.83</ele>
        <time>2014-01-29T09:08:42Z</time>
      </trkpt>
      <trkpt lat="45.37246" lon="6.55753">
        <ele>2135.71</ele>
        <time>2014-01-29T09:08:48Z</time>
      </trkpt>
      <trkpt lat="45.37283" lon="6.5575">
        <ele>2126.19</ele>
        <time>2014-01-29T09:09:03Z</time>
      </trkpt>
      <trkpt lat="45.37324" lon="6.55724">
        <ele>2120.94</ele>
        <time>2014-01-29T09:09:08Z</time>
      </trkpt>
      <trkpt lat="45.37365" lon="6.55679">
        <ele>2116.82</ele>
        <time>2014-01-29T09:09:14Z</time>
      </trkpt>
      <trkpt lat="45.37398" lon="6.55715">
        <ele>2097.8</ele>
        <time>2014-01-29T09:09:18Z</time>
      </trkpt>
      <trkpt lat="45.37417" lon="6.55765">
        <ele>2078.65</ele>
        <time>2014-01-29T09:09:22Z</time>
      </trkpt>
      <trkpt lat="45.37442" lon="6.55814">
        <ele>2062.11</ele>
        <time>2014-01-29T09:09:26Z</time>
      </trkpt>
      <trkpt lat="45.37488" lon="6.55822">
        <ele>2051.19</ele>
        <time>2014-01-29T09:09:31Z</time>
      </trkpt>
      <trkpt lat="45.3753" lon="6.55838">
        <ele>2035.97</ele>
        <time>2014-01-29T09:09:36Z</time>
      </trkpt>
      <trkpt lat="45.37544" lon="6.55891">
        <ele>2018.98</ele>
        <time>2014-01-29T09:09:41Z</time>
      </trkpt>
      <trkpt lat="45.37578" lon="6.55927">
        <ele>2010.62</ele>
        <time>2014-01-29T09:09:45Z</time>
      </trkpt>
      <trkpt lat="45.37618" lon="6.55949">
        <ele>2000.67</ele>
        <time>2014-01-29T09:09:49Z</time>
      </trkpt>
      <trkpt lat="45.37657" lon="6.55962">
        <ele>1989.5</ele>
        <time>2014-01-29T09:09:53Z</time>
      </trkpt>
      <trkpt lat="45.37705" lon="6.55988">
        <ele>1977.17</ele>
        <time>2014-01-29T09:09:59Z</time>
      </trkpt>
      <trkpt lat="45.37738" lon="6.56028">
        <ele>1968.66</ele>
        <time>2014-01-29T09:10:04Z</time>
      </trkpt>
      <trkpt lat="45.37726" lon="6.56087">
        <ele>1961.58</ele>
        <time>2014-01-29T09:10:10Z</time>
      </trkpt>
      <trkpt lat="45.37704" lon="6.56142">
        <ele>1953.28</ele>
        <time>2014-01-29T09:10:16Z</time>
      </trkpt>
      <trkpt lat="45.37711" lon="6.56201">
        <ele>1941.96</ele>
        <time>2014-01-29T09:10:24Z</time>
      </trkpt>
      <trkpt lat="45.37746" lon="6.5623">
        <ele>1930.69</ele>
        <time>2014-01-29T09:10:32Z</time>
      </trkpt>
      <trkpt lat="45.37762" lon="6.56291">
        <ele>1917.15</ele>
        <time>2014-01-29T09:10:38Z</time>
      </trkpt>
      <trkpt lat="45.37792" lon="6.56328">
        <ele>1907.42</ele>
        <time>2014-01-29T09:10:46Z</time>
      </trkpt>
      <trkpt lat="45.37834" lon="6.56349">
        <ele>1897.56</ele>
        <time>2014-01-29T09:10:52Z</time>
      </trkpt>
      <trkpt lat="45.37881" lon="6.56353">
        <ele>1888.27</ele>
        <time>2014-01-29T09:10:58Z</time>
      </trkpt>
      <trkpt lat="45.37928" lon="6.56337">
        <ele>1880.98</ele>
        <time>2014-01-29T09:11:04Z</time>
      </trkpt>
      <trkpt lat="45.37964" lon="6.56318">
        <ele>1872.44</ele>
        <time>2014-01-29T09:11:09Z</time>
      </trkpt>
      <trkpt lat="45.37994" lon="6.56363">
        <ele>1860.31</ele>
        <time>2014-01-29T09:11:13Z</time>
      </trkpt>
      <trkpt lat="45.38034" lon="6.5637">
        <ele>1850.98</ele>
        <time>2014-01-29T09:11:17Z</time>
      </trkpt>
      <trkpt lat="45.3807" lon="6.56394">
        <ele>1840.92</ele>
        <time>2014-01-29T09:11:22Z</time>
      </trkpt>
      <trkpt lat="45.3811" lon="6.5642">
        <ele>1831.89</ele>
        <time>2014-01-29T09:11:28Z</time>
      </trkpt>
      <trkpt lat="45.38146" lon="6.56456">
        <ele>1815.92</ele>
        <time>2014-01-29T09:11:33Z</time>
      </trkpt>
      <trkpt lat="45.38188" lon="6.56462">
        <ele>1804.83</ele>
        <time>2014-01-29T09:11:41Z</time>
      </trkpt>
      <trkpt lat="45.38225" lon="6.56474">
        <ele>1792.12</ele>
        <time>2014-01-29T09:11:47Z</time>
      </trkpt>
      <trkpt lat="45.38258" lon="6.56445">
        <ele>1781.33</ele>
        <time>2014-01-29T09:11:54Z</time>
      </trkpt>
      <trkpt lat="45.38295" lon="6.56406">
        <ele>1769.94</ele>
        <time>2014-01-29T09:12:00Z</time>
      </trkpt>
      <trkpt lat="45.38333" lon="6.56375">
        <ele>1759.04</ele>
        <time>2014-01-29T09:12:06Z</time>
      </trkpt>
      <trkpt lat="45.38361" lon="6.56337">
        <ele>1742.53</ele>
        <time>2014-01-29T09:12:12Z</time>
      </trkpt>
      <trkpt lat="45.38395" lon="6.56313">
        <ele>1729</ele>
        <time>2014-01-29T09:12:16Z</time>
      </trkpt>
      <trkpt lat="45.38439" lon="6.56292">
        <ele>1719.34</ele>
        <time>2014-01-29T09:12:22Z</time>
      </trkpt>
      <trkpt lat="45.38472" lon="6.56336">
        <ele>1704.47</ele>
        <time>2014-01-29T09:12:32Z</time>
      </trkpt>
      <trkpt lat="45.38503" lon="6.56366">
        <ele>1694.28</ele>
        <time>2014-01-29T09:12:37Z</time>
      </trkpt>
      <trkpt lat="45.38529" lon="6.56417">
        <ele>1677.57</ele>
        <time>2014-01-29T09:12:43Z</time>
      </trkpt>
      <trkpt lat="45.38554" lon="6.56457">
        <ele>1664.04</ele>
        <time>2014-01-29T09:12:48Z</time>
      </trkpt>
      <trkpt lat="45.38595" lon="6.5646">
        <ele>1653.81</ele>
        <time>2014-01-29T09:12:55Z</time>
      </trkpt>
      <trkpt lat="45.38642" lon="6.56466">
        <ele>1634.68</ele>
        <time>2014-01-29T09:13:01Z</time>
      </trkpt>
      <trkpt lat="45.38677" lon="6.56488">
        <ele>1619.43</ele>
        <time>2014-01-29T09:13:07Z</time>
      </trkpt>
      <trkpt lat="45.38719" lon="6.56469">
        <ele>1607.58</ele>
        <time>2014-01-29T09:13:13Z</time>
      </trkpt>
      <trkpt lat="45.3877" lon="6.56448">
        <ele>1593.64</ele>
        <time>2014-01-29T09:13:19Z</time>
      </trkpt>
      <trkpt lat="45.38809" lon="6.56449">
        <ele>1583.42</ele>
        <time>2014-01-29T09:13:25Z</time>
      </trkpt>
      <trkpt lat="45.38798" lon="6.56497">
        <ele>1573.51</ele>
        <time>2014-01-29T09:13:32Z</time>
      </trkpt>
      <trkpt lat="45.38794" lon="6.56553">
        <ele>1562.15</ele>
        <time>2014-01-29T09:13:37Z</time>
      </trkpt>
      <trkpt lat="45.38768" lon="6.56599">
        <ele>1554.61</ele>
        <time>2014-01-29T09:13:42Z</time>
      </trkpt>
      <trkpt lat="45.38755" lon="6.56648">
        <ele>1544.87</ele>
        <time>2014-01-29T09:13:46Z</time>
      </trkpt>
      <trkpt lat="45.3874" lon="6.567">
        <ele>1534.29</ele>
        <time>2014-01-29T09:13:54Z</time>
      </trkpt>
      <trkpt lat="45.38762" lon="6.56719">
        <ele>1523.25</ele>
        <time>2014-01-29T09:13:59Z</time>
      </trkpt>
      <trkpt lat="45.38803" lon="6.56699">
        <ele>1516.39</ele>
        <time>2014-01-29T09:14:04Z</time>
      </trkpt>
      <trkpt lat="45.38853" lon="6.56691">
        <ele>1503.91</ele>
        <time>2014-01-29T09:14:10Z</time>
      </trkpt>
      <trkpt lat="45.38897" lon="6.56682">
        <ele>1488.69</ele>
        <time>2014-01-29T09:14:16Z</time>
      </trkpt>
      <trkpt lat="45.38934" lon="6.56669">
        <ele>1483.73</ele>
        <time>2014-01-29T09:14:20Z</time>
      </trkpt>
      <trkpt lat="45.38976" lon="6.56669">
        <ele>1474.91</ele>
        <time>2014-01-29T09:14:27Z</time>
      </trkpt>
      <trkpt lat="45.39011" lon="6.56686">
        <ele>1459.56</ele>
        <time>2014-01-29T09:14:36Z</time>
      </trkpt>
      <trkpt lat="45.39042" lon="6.56732">
        <ele>1441.99</ele>
        <time>2014-01-29T09:14:43Z</time>
      </trkpt>
      <trkpt lat="45.39082" lon="6.56765">
        <ele>1439</ele>
        <time>2014-01-29T09:14:48Z</time>
      </trkpt>
      <trkpt lat="45.3912" lon="6.56787">
        <ele>1439</ele>
        <time>2014-01-29T09:14:55Z</time>
      </trkpt>
      <trkpt lat="45.39156" lon="6.56763">
        <ele>1439</ele>
        <time>2014-01-29T09:15:49Z</time>
      </trkpt>
      <trkpt lat="45.3915" lon="6.56702">
        <ele>1439</ele>
        <time>2014-01-29T09:17:25Z</time>
      </trkpt>
      <trkpt lat="45.39142" lon="6.56757">
        <ele>1439</ele>
        <time>2014-01-29T09:19:05Z</time>
      </trkpt>
      <trkpt lat="45.39141" lon="6.56811">
        <ele>1439</ele>
        <time>2014-01-29T09:19:13Z</time>
      </trkpt>
      <trkpt lat="45.39136" lon="6.56868">
        <ele>1444.02</ele>
        <time>2014-01-29T09:19:22Z</time>
      </trkpt>
      <trkpt lat="45.3913" lon="6.5693">
        <ele>1456.58</ele>
        <time>2014-01-29T09:19:32Z</time>
      </trkpt>
      <trkpt lat="45.39124" lon="6.56985">
        <ele>1473.14</ele>
        <time>2014-01-29T09:19:42Z</time>
      </trkpt>
      <trkpt lat="45.39116" lon="6.57043">
        <ele>1493.31</ele>
        <time>2014-01-29T09:19:52Z</time>
      </trkpt>
      <trkpt lat="45.39109" lon="6.57103">
        <ele>1520.67</ele>
        <time>2014-01-29T09:20:03Z</time>
      </trkpt>
      <trkpt lat="45.39104" lon="6.5716">
        <ele>1545.64</ele>
        <time>2014-01-29T09:20:13Z</time>
      </trkpt>
      <trkpt lat="45.39097" lon="6.57212">
        <ele>1570.63</ele>
        <time>2014-01-29T09:20:23Z</time>
      </trkpt>
      <trkpt lat="45.39091" lon="6.57265">
        <ele>1592.58</ele>
        <time>2014-01-29T09:20:33Z</time>
      </trkpt>
      <trkpt lat="45.39088" lon="6.57326">
        <ele>1618.65</ele>
        <time>2014-01-29T09:20:43Z</time>
      </trkpt>
      <trkpt lat="45.39077" lon="6.57384">
        <ele>1630.55</ele>
        <time>2014-01-29T09:20:53Z</time>
      </trkpt>
      <trkpt lat="45.3907" lon="6.57442">
        <ele>1665.85</ele>
        <time>2014-01-29T09:21:03Z</time>
      </trkpt>
      <trkpt lat="45.39063" lon="6.57498">
        <ele>1695.25</ele>
        <time>2014-01-29T09:21:13Z</time>
      </trkpt>
      <trkpt lat="45.39054" lon="6.57552">
        <ele>1693.88</ele>
        <time>2014-01-29T09:21:23Z</time>
      </trkpt>
      <trkpt lat="45.39045" lon="6.57614">
        <ele>1694.59</ele>
        <time>2014-01-29T09:21:33Z</time>
      </trkpt>
      <trkpt lat="45.39039" lon="6.57674">
        <ele>1709.86</ele>
        <time>2014-01-29T09:21:43Z</time>
      </trkpt>
      <trkpt lat="45.39035" lon="6.57731">
        <ele>1728.1</ele>
        <time>2014-01-29T09:21:53Z</time>
      </trkpt>
      <trkpt lat="45.39035" lon="6.57788">
        <ele>1744.28</ele>
        <time>2014-01-29T09:22:01Z</time>
      </trkpt>
      <trkpt lat="45.39044" lon="6.57844">
        <ele>1766.32</ele>
        <time>2014-01-29T09:22:09Z</time>
      </trkpt>
      <trkpt lat="45.3905" lon="6.579">
        <ele>1789.21</ele>
        <time>2014-01-29T09:22:18Z</time>
      </trkpt>
      <trkpt lat="45.39058" lon="6.57955">
        <ele>1814.88</ele>
        <time>2014-01-29T09:22:30Z</time>
      </trkpt>
      <trkpt lat="45.39058" lon="6.58012">
        <ele>1838.92</ele>
        <time>2014-01-29T09:22:41Z</time>
      </trkpt>
      <trkpt lat="45.39056" lon="6.58071">
        <ele>1863.56</ele>
        <time>2014-01-29T09:22:52Z</time>
      </trkpt>
      <trkpt lat="45.3904" lon="6.58133">
        <ele>1874.66</ele>
        <time>2014-01-29T09:22:57Z</time>
      </trkpt>
      <trkpt lat="45.3901" lon="6.58166">
        <ele>1879.41</ele>
        <time>2014-01-29T09:23:06Z</time>
      </trkpt>
      <trkpt lat="45.38994" lon="6.58221">
        <ele>1895.32</ele>
        <time>2014-01-29T09:23:16Z</time>
      </trkpt>
      <trkpt lat="45.38985" lon="6.58281">
        <ele>1908.64</ele>
        <time>2014-01-29T09:23:26Z</time>
      </trkpt>
      <trkpt lat="45.38978" lon="6.58338">
        <ele>1920.81</ele>
        <time>2014-01-29T09:23:36Z</time>
      </trkpt>
      <trkpt lat="45.38971" lon="6.58396">
        <ele>1938.23</ele>
        <time>2014-01-29T09:23:46Z</time>
      </trkpt>
      <trkpt lat="45.38967" lon="6.58455">
        <ele>1961.97</ele>
        <time>2014-01-29T09:23:56Z</time>
      </trkpt>
      <trkpt lat="45.38961" lon="6.5851">
        <ele>1990.46</ele>
        <time>2014-01-29T09:24:06Z</time>
      </trkpt>
      <trkpt lat="45.38955" lon="6.58566">
        <ele>2011.69</ele>
        <time>2014-01-29T09:24:16Z</time>
      </trkpt>
      <trkpt lat="45.38947" lon="6.58621">
        <ele>2028.29</ele>
        <time>2014-01-29T09:24:25Z</time>
      </trkpt>
      <trkpt lat="45.38937" lon="6.58678">
        <ele>2041.76</ele>
        <time>2014-01-29T09:24:35Z</time>
      </trkpt>
      <trkpt lat="45.38927" lon="6.58735">
        <ele>2054.52</ele>
        <time>2014-01-29T09:24:45Z</time>
      </trkpt>
      <trkpt lat="45.38917" lon="6.5879">
        <ele>2067.59</ele>
        <time>2014-01-29T09:24:54Z</time>
      </trkpt>
      <trkpt lat="45.38915" lon="6.58851">
        <ele>2080.45</ele>
        <time>2014-01-29T09:26:05Z</time>
      </trkpt>
      <trkpt lat="45.38904" lon="6.58907">
        <ele>2093.21</ele>
        <time>2014-01-29T09:26:15Z</time>
      </trkpt>
      <trkpt lat="45.3889" lon="6.58966">
        <ele>2106.36</ele>
        <time>2014-01-29T09:26:25Z</time>
      </trkpt>
      <trkpt lat="45.38876" lon="6.59021">
        <ele>2119.25</ele>
        <time>2014-01-29T09:26:35Z</time>
      </trkpt>
      <trkpt lat="45.38861" lon="6.59076">
        <ele>2132.62</ele>
        <time>2014-01-29T09:26:45Z</time>
      </trkpt>
      <trkpt lat="45.38847" lon="6.59128">
        <ele>2145.98</ele>
        <time>2014-01-29T09:26:54Z</time>
      </trkpt>
      <trkpt lat="45.38832" lon="6.59187">
        <ele>2161.39</ele>
        <time>2014-01-29T09:27:04Z</time>
      </trkpt>
      <trkpt lat="45.38816" lon="6.59244">
        <ele>2172.6</ele>
        <time>2014-01-29T09:27:14Z</time>
      </trkpt>
      <trkpt lat="45.38798" lon="6.59302">
        <ele>2183.6</ele>
        <time>2014-01-29T09:27:24Z</time>
      </trkpt>
      <trkpt lat="45.38783" lon="6.59361">
        <ele>2191.34</ele>
        <time>2014-01-29T09:27:34Z</time>
      </trkpt>
      <trkpt lat="45.38768" lon="6.5942">
        <ele>2200.02</ele>
        <time>2014-01-29T09:27:44Z</time>
      </trkpt>
      <trkpt lat="45.3875" lon="6.59477">
        <ele>2210.12</ele>
        <time>2014-01-29T09:27:54Z</time>
      </trkpt>
      <trkpt lat="45.38735" lon="6.59534">
        <ele>2219.23</ele>
        <time>2014-01-29T09:28:04Z</time>
      </trkpt>
      <trkpt lat="45.3872" lon="6.59592">
        <ele>2230.52</ele>
        <time>2014-01-29T09:28:14Z</time>
      </trkpt>
      <trkpt lat="45.38704" lon="6.59649">
        <ele>2245.01</ele>
        <time>2014-01-29T09:28:24Z</time>
      </trkpt>
      <trkpt lat="45.38691" lon="6.59702">
        <ele>2254.47</ele>
        <time>2014-01-29T09:28:33Z</time>
      </trkpt>
      <trkpt lat="45.38675" lon="6.59761">
        <ele>2266.38</ele>
        <time>2014-01-29T09:28:43Z</time>
      </trkpt>
      <trkpt lat="45.38663" lon="6.59814">
        <ele>2277.04</ele>
        <time>2014-01-29T09:28:52Z</time>
      </trkpt>
      <trkpt lat="45.38647" lon="6.59872">
        <ele>2295.06</ele>
        <time>2014-01-29T09:29:02Z</time>
      </trkpt>
      <trkpt lat="45.3863" lon="6.59926">
        <ele>2298.13</ele>
        <time>2014-01-29T09:29:12Z</time>
      </trkpt>
      <trkpt lat="45.38615" lon="6.59974">
        <ele>2303.62</ele>
        <time>2014-01-29T09:29:20Z</time>
      </trkpt>
      <trkpt lat="45.38602" lon="6.60029">
        <ele>2312.88</ele>
        <time>2014-01-29T09:29:29Z</time>
      </trkpt>
      <trkpt lat="45.38588" lon="6.60083">
        <ele>2327.1</ele>
        <time>2014-01-29T09:29:38Z</time>
      </trkpt>
      <trkpt lat="45.38574" lon="6.60136">
        <ele>2342.53</ele>
        <time>2014-01-29T09:29:47Z</time>
      </trkpt>
      <trkpt lat="45.38558" lon="6.60193">
        <ele>2356.54</ele>
        <time>2014-01-29T09:29:57Z</time>
      </trkpt>
      <trkpt lat="45.38542" lon="6.60251">
        <ele>2369.19</ele>
        <time>2014-01-29T09:30:07Z</time>
      </trkpt>
      <trkpt lat="45.38526" lon="6.60305">
        <ele>2381.94</ele>
        <time>2014-01-29T09:30:17Z</time>
      </trkpt>
      <trkpt lat="45.38512" lon="6.60356">
        <ele>2388.86</ele>
        <time>2014-01-29T09:30:27Z</time>
      </trkpt>
      <trkpt lat="45.38501" lon="6.60407">
        <ele>2394.96</ele>
        <time>2014-01-29T09:30:36Z</time>
      </trkpt>
      <trkpt lat="45.38486" lon="6.60463">
        <ele>2404.81</ele>
        <time>2014-01-29T09:30:46Z</time>
      </trkpt>
      <trkpt lat="45.38471" lon="6.60513">
        <ele>2425.01</ele>
        <time>2014-01-29T09:30:55Z</time>
      </trkpt>
      <trkpt lat="45.38456" lon="6.60566">
        <ele>2444.87</ele>
        <time>2014-01-29T09:31:04Z</time>
      </trkpt>
      <trkpt lat="45.3844" lon="6.60623">
        <ele>2469.11</ele>
        <time>2014-01-29T09:31:14Z</time>
      </trkpt>
      <trkpt lat="45.38425" lon="6.60677">
        <ele>2494.39</ele>
        <time>2014-01-29T09:31:24Z</time>
      </trkpt>
      <trkpt lat="45.38412" lon="6.60729">
        <ele>2521.54</ele>
        <time>2014-01-29T09:31:34Z</time>
      </trkpt>
      <trkpt lat="45.38399" lon="6.60785">
        <ele>2561.74</ele>
        <time>2014-01-29T09:31:45Z</time>
      </trkpt>
      <trkpt lat="45.38385" lon="6.60842">
        <ele>2604.51</ele>
        <time>2014-01-29T09:31:57Z</time>
      </trkpt>
      <trkpt lat="45.38371" lon="6.60896">
        <ele>2637.41</ele>
        <time>2014-01-29T09:32:08Z</time>
      </trkpt>
      <trkpt lat="45.38357" lon="6.60949">
        <ele>2680.27</ele>
        <time>2014-01-29T09:32:18Z</time>
      </trkpt>
      <trkpt lat="45.38342" lon="6.61002">
        <ele>2714.03</ele>
        <time>2014-01-29T09:32:29Z</time>
      </trkpt>
      <trkpt lat="45.38317" lon="6.61055">
        <ele>2697.75</ele>
        <time>2014-01-29T09:35:15Z</time>
      </trkpt>
      <trkpt lat="45.38276" lon="6.61057">
        <ele>2679.87</ele>
        <time>2014-01-29T09:35:32Z</time>
      </trkpt>
      <trkpt lat="45.38236" lon="6.61031">
        <ele>2677.1</ele>
        <time>2014-01-29T09:35:43Z</time>
      </trkpt>
      <trkpt lat="45.38196" lon="6.61011">
        <ele>2681.3</ele>
        <time>2014-01-29T09:35:50Z</time>
      </trkpt>
      <trkpt lat="45.38154" lon="6.61009">
        <ele>2681.03</ele>
        <time>2014-01-29T09:35:57Z</time>
      </trkpt>
      <trkpt lat="45.38115" lon="6.61016">
        <ele>2668.8</ele>
        <time>2014-01-29T09:36:04Z</time>
      </trkpt>
      <trkpt lat="45.38077" lon="6.60999">
        <ele>2659.67</ele>
        <time>2014-01-29T09:36:13Z</time>
      </trkpt>
      <trkpt lat="45.38045" lon="6.6096">
        <ele>2647.44</ele>
        <time>2014-01-29T09:36:20Z</time>
      </trkpt>
      <trkpt lat="45.38012" lon="6.60953">
        <ele>2634.71</ele>
        <time>2014-01-29T09:36:26Z</time>
      </trkpt>
      <trkpt lat="45.37967" lon="6.60959">
        <ele>2623.08</ele>
        <time>2014-01-29T09:36:32Z</time>
      </trkpt>
      <trkpt lat="45.37928" lon="6.60976">
        <ele>2610.07</ele>
        <time>2014-01-29T09:36:40Z</time>
      </trkpt>
      <trkpt lat="45.37892" lon="6.61005">
        <ele>2599.9</ele>
        <time>2014-01-29T09:36:48Z</time>
      </trkpt>
      <trkpt lat="45.3787" lon="6.61052">
        <ele>2597.81</ele>
        <time>2014-01-29T09:36:55Z</time>
      </trkpt>
      <trkpt lat="45.37889" lon="6.611">
        <ele>2584.47</ele>
        <time>2014-01-29T09:37:01Z</time>
      </trkpt>
      <trkpt lat="45.37897" lon="6.61153">
        <ele>2569.39</ele>
        <time>2014-01-29T09:37:09Z</time>
      </trkpt>
      <trkpt lat="45.37881" lon="6.6121">
        <ele>2556.46</ele>
        <time>2014-01-29T09:37:15Z</time>
      </trkpt>
      <trkpt lat="45.37885" lon="6.61265">
        <ele>2543.31</ele>
        <time>2014-01-29T09:37:23Z</time>
      </trkpt>
      <trkpt lat="45.3788" lon="6.61321">
        <ele>2525.32</ele>
        <time>2014-01-29T09:37:29Z</time>
      </trkpt>
      <trkpt lat="45.37872" lon="6.61365">
        <ele>2511.45</ele>
        <time>2014-01-29T09:37:35Z</time>
      </trkpt>
      <trkpt lat="45.37853" lon="6.61408">
        <ele>2500.22</ele>
        <time>2014-01-29T09:37:44Z</time>
      </trkpt>
      <trkpt lat="45.37824" lon="6.6145">
        <ele>2482.45</ele>
        <time>2014-01-29T09:37:53Z</time>
      </trkpt>
      <trkpt lat="45.37817" lon="6.61508">
        <ele>2462.94</ele>
        <time>2014-01-29T09:38:01Z</time>
      </trkpt>
      <trkpt lat="45.3778" lon="6.61506">
        <ele>2455.48</ele>
        <time>2014-01-29T09:38:07Z</time>
      </trkpt>
      <trkpt lat="45.37792" lon="6.61559">
        <ele>2445.59</ele>
        <time>2014-01-29T09:38:13Z</time>
      </trkpt>
      <trkpt lat="45.37781" lon="6.6161">
        <ele>2433.11</ele>
        <time>2014-01-29T09:38:22Z</time>
      </trkpt>
      <trkpt lat="45.37765" lon="6.61661">
        <ele>2423.51</ele>
        <time>2014-01-29T09:38:29Z</time>
      </trkpt>
      <trkpt lat="45.3775" lon="6.61709">
        <ele>2407.94</ele>
        <time>2014-01-29T09:38:35Z</time>
      </trkpt>
      <trkpt lat="45.3773" lon="6.61755">
        <ele>2397.68</ele>
        <time>2014-01-29T09:38:42Z</time>
      </trkpt>
      <trkpt lat="45.37718" lon="6.6181">
        <ele>2385.7</ele>
        <time>2014-01-29T09:38:48Z</time>
      </trkpt>
      <trkpt lat="45.37709" lon="6.61867">
        <ele>2369.4</ele>
        <time>2014-01-29T09:38:55Z</time>
      </trkpt>
      <trkpt lat="45.37699" lon="6.61921">
        <ele>2352.72</ele>
        <time>2014-01-29T09:39:02Z</time>
      </trkpt>
      <trkpt lat="45.37679" lon="6.61975">
        <ele>2336.9</ele>
        <time>2014-01-29T09:39:09Z</time>
      </trkpt>
      <trkpt lat="45.37664" lon="6.62043">
        <ele>2323.55</ele>
        <time>2014-01-29T09:39:15Z</time>
      </trkpt>
      <trkpt lat="45.37649" lon="6.62097">
        <ele>2313.3</ele>
        <time>2014-01-29T09:39:19Z</time>
      </trkpt>
      <trkpt lat="45.37631" lon="6.6216">
        <ele>2305.08</ele>
        <time>2014-01-29T09:39:25Z</time>
      </trkpt>
      <trkpt lat="45.37609" lon="6.62216">
        <ele>2297.96</ele>
        <time>2014-01-29T09:39:31Z</time>
      </trkpt>
      <trkpt lat="45.37579" lon="6.62271">
        <ele>2290.1</ele>
        <time>2014-01-29T09:39:37Z</time>
      </trkpt>
      <trkpt lat="45.37553" lon="6.62314">
        <ele>2286.7</ele>
        <time>2014-01-29T09:39:42Z</time>
      </trkpt>
      <trkpt lat="45.37527" lon="6.62363">
        <ele>2280.91</ele>
        <time>2014-01-29T09:40:32Z</time>
      </trkpt>
      <trkpt lat="45.37505" lon="6.62403">
        <ele>2272.49</ele>
        <time>2014-01-29T09:40:42Z</time>
      </trkpt>
      <trkpt lat="45.3748" lon="6.62452">
        <ele>2256.55</ele>
        <time>2014-01-29T09:40:48Z</time>
      </trkpt>
      <trkpt lat="45.3747" lon="6.62508">
        <ele>2245.65</ele>
        <time>2014-01-29T09:40:53Z</time>
      </trkpt>
      <trkpt lat="45.37453" lon="6.62559">
        <ele>2233.29</ele>
        <time>2014-01-29T09:40:57Z</time>
      </trkpt>
      <trkpt lat="45.37441" lon="6.6261">
        <ele>2221.82</ele>
        <time>2014-01-29T09:41:01Z</time>
      </trkpt>
      <trkpt lat="45.37457" lon="6.62679">
        <ele>2209.63</ele>
        <time>2014-01-29T09:41:07Z</time>
      </trkpt>
      <trkpt lat="45.37468" lon="6.62731">
        <ele>2200.31</ele>
        <time>2014-01-29T09:41:11Z</time>
      </trkpt>
      <trkpt lat="45.37476" lon="6.62795">
        <ele>2186.29</ele>
        <time>2014-01-29T09:41:15Z</time>
      </trkpt>
      <trkpt lat="45.37489" lon="6.62872">
        <ele>2181.15</ele>
        <time>2014-01-29T09:41:19Z</time>
      </trkpt>
      <trkpt lat="45.37506" lon="6.62925">
        <ele>2183.74</ele>
        <time>2014-01-29T09:41:23Z</time>
      </trkpt>
      <trkpt lat="45.37535" lon="6.62962">
        <ele>2177.72</ele>
        <time>2014-01-29T09:41:27Z</time>
      </trkpt>
      <trkpt lat="45.37576" lon="6.62995">
        <ele>2169.92</ele>
        <time>2014-01-29T09:41:31Z</time>
      </trkpt>
      <trkpt lat="45.37615" lon="6.63012">
        <ele>2163.05</ele>
        <time>2014-01-29T09:41:35Z</time>
      </trkpt>
      <trkpt lat="45.37653" lon="6.63025">
        <ele>2159.09</ele>
        <time>2014-01-29T09:41:39Z</time>
      </trkpt>
      <trkpt lat="45.37691" lon="6.63041">
        <ele>2151.67</ele>
        <time>2014-01-29T09:41:43Z</time>
      </trkpt>
      <trkpt lat="45.37727" lon="6.63081">
        <ele>2143.91</ele>
        <time>2014-01-29T09:41:48Z</time>
      </trkpt>
      <trkpt lat="45.37755" lon="6.6312">
        <ele>2135.83</ele>
        <time>2014-01-29T09:41:52Z</time>
      </trkpt>
      <trkpt lat="45.37784" lon="6.63165">
        <ele>2127.5</ele>
        <time>2014-01-29T09:41:56Z</time>
      </trkpt>
      <trkpt lat="45.37803" lon="6.63221">
        <ele>2117.53</ele>
        <time>2014-01-29T09:42:00Z</time>
      </trkpt>
      <trkpt lat="45.37824" lon="6.63269">
        <ele>2111.64</ele>
        <time>2014-01-29T09:42:04Z</time>
      </trkpt>
      <trkpt lat="45.3785" lon="6.63305">
        <ele>2108.44</ele>
        <time>2014-01-29T09:42:09Z</time>
      </trkpt>
      <trkpt lat="45.37892" lon="6.63325">
        <ele>2108.09</ele>
        <time>2014-01-29T09:43:47Z</time>
      </trkpt>
      <trkpt lat="45.3793" lon="6.63337">
        <ele>2109.79</ele>
        <time>2014-01-29T09:43:58Z</time>
      </trkpt>
      <trkpt lat="45.37967" lon="6.63352">
        <ele>2101.28</ele>
        <time>2014-01-29T09:44:07Z</time>
      </trkpt>
      <trkpt lat="45.38009" lon="6.63374">
        <ele>2097.32</ele>
        <time>2014-01-29T09:44:13Z</time>
      </trkpt>
      <trkpt lat="45.38049" lon="6.63393">
        <ele>2090.97</ele>
        <time>2014-01-29T09:44:18Z</time>
      </trkpt>
      <trkpt lat="45.38095" lon="6.63422">
        <ele>2077.6</ele>
        <time>2014-01-29T09:44:22Z</time>
      </trkpt>
      <trkpt lat="45.38136" lon="6.63453">
        <ele>2069.6</ele>
        <time>2014-01-29T09:44:26Z</time>
      </trkpt>
      <trkpt lat="45.38177" lon="6.63474">
        <ele>2061.43</ele>
        <time>2014-01-29T09:44:30Z</time>
      </trkpt>
      <trkpt lat="45.38213" lon="6.63492">
        <ele>2056.92</ele>
        <time>2014-01-29T09:44:34Z</time>
      </trkpt>
      <trkpt lat="45.38249" lon="6.63508">
        <ele>2051.53</ele>
        <time>2014-01-29T09:44:38Z</time>
      </trkpt>
      <trkpt lat="45.38288" lon="6.63536">
        <ele>2047.94</ele>
        <time>2014-01-29T09:44:43Z</time>
      </trkpt>
      <trkpt lat="45.38315" lon="6.63593">
        <ele>2038.09</ele>
        <time>2014-01-29T09:44:49Z</time>
      </trkpt>
      <trkpt lat="45.38341" lon="6.63649">
        <ele>2029.63</ele>
        <time>2014-01-29T09:44:54Z</time>
      </trkpt>
      <trkpt lat="45.38383" lon="6.63683">
        <ele>2019.14</ele>
        <time>2014-01-29T09:45:00Z</time>
      </trkpt>
      <trkpt lat="45.38418" lon="6.63723">
        <ele>1999.54</ele>
        <time>2014-01-29T09:45:06Z</time>
      </trkpt>
      <trkpt lat="45.38452" lon="6.6376">
        <ele>1975.57</ele>
        <time>2014-01-29T09:45:10Z</time>
      </trkpt>
      <trkpt lat="45.38489" lon="6.63804">
        <ele>1964.4</ele>
        <time>2014-01-29T09:45:14Z</time>
      </trkpt>
      <trkpt lat="45.38519" lon="6.63841">
        <ele>1957.2</ele>
        <time>2014-01-29T09:45:19Z</time>
      </trkpt>
      <trkpt lat="45.38553" lon="6.63868">
        <ele>1951.47</ele>
        <time>2014-01-29T09:45:24Z</time>
      </trkpt>
      <trkpt lat="45.3859" lon="6.639">
        <ele>1939.91</ele>
        <time>2014-01-29T09:45:28Z</time>
      </trkpt>
      <trkpt lat="45.38627" lon="6.63929">
        <ele>1933.32</ele>
        <time>2014-01-29T09:45:32Z</time>
      </trkpt>
      <trkpt lat="45.38665" lon="6.63942">
        <ele>1926.02</ele>
        <time>2014-01-29T09:45:36Z</time>
      </trkpt>
      <trkpt lat="45.38708" lon="6.6396">
        <ele>1917.62</ele>
        <time>2014-01-29T09:45:40Z</time>
      </trkpt>
      <trkpt lat="45.38751" lon="6.63983">
        <ele>1907.94</ele>
        <time>2014-01-29T09:45:44Z</time>
      </trkpt>
      <trkpt lat="45.38789" lon="6.64008">
        <ele>1901.83</ele>
        <time>2014-01-29T09:45:48Z</time>
      </trkpt>
      <trkpt lat="45.3883" lon="6.64038">
        <ele>1889.47</ele>
        <time>2014-01-29T09:45:52Z</time>
      </trkpt>
      <trkpt lat="45.38871" lon="6.64062">
        <ele>1882.65</ele>
        <time>2014-01-29T09:45:56Z</time>
      </trkpt>
      <trkpt lat="45.38912" lon="6.64082">
        <ele>1875.86</ele>
        <time>2014-01-29T09:46:00Z</time>
      </trkpt>
      <trkpt lat="45.38953" lon="6.64097">
        <ele>1870.42</ele>
        <time>2014-01-29T09:46:04Z</time>
      </trkpt>
      <trkpt lat="45.39004" lon="6.64115">
        <ele>1860.36</ele>
        <time>2014-01-29T09:46:08Z</time>
      </trkpt>
      <trkpt lat="45.39055" lon="6.6414">
        <ele>1847.99</ele>
        <time>2014-01-29T09:46:12Z</time>
      </trkpt>
      <trkpt lat="45.39096" lon="6.64159">
        <ele>1845.23</ele>
        <time>2014-01-29T09:46:17Z</time>
      </trkpt>
      <trkpt lat="45.39127" lon="6.64186">
        <ele>1845.48</ele>
        <time>2014-01-29T09:46:21Z</time>
      </trkpt>
      <trkpt lat="45.39156" lon="6.64224">
        <ele>1839.41</ele>
        <time>2014-01-29T09:46:25Z</time>
      </trkpt>
      <trkpt lat="45.39187" lon="6.64262">
        <ele>1832.91</ele>
        <time>2014-01-29T09:46:30Z</time>
      </trkpt>
      <trkpt lat="45.39213" lon="6.64304">
        <ele>1829.36</ele>
        <time>2014-01-29T09:46:38Z</time>
      </trkpt>
      <trkpt lat="45.39228" lon="6.6436">
        <ele>1829.96</ele>
        <time>2014-01-29T09:49:41Z</time>
      </trkpt>
      <trkpt lat="45.39203" lon="6.64401">
        <ele>1831.84</ele>
        <time>2014-01-29T09:49:49Z</time>
      </trkpt>
      <trkpt lat="45.39178" lon="6.64443">
        <ele>1850.01</ele>
        <time>2014-01-29T09:49:59Z</time>
      </trkpt>
      <trkpt lat="45.39152" lon="6.64487">
        <ele>1876.78</ele>
        <time>2014-01-29T09:50:10Z</time>
      </trkpt>
      <trkpt lat="45.39125" lon="6.6453">
        <ele>1908.08</ele>
        <time>2014-01-29T09:50:22Z</time>
      </trkpt>
      <trkpt lat="45.391" lon="6.64569">
        <ele>1929.03</ele>
        <time>2014-01-29T09:50:34Z</time>
      </trkpt>
      <trkpt lat="45.3907" lon="6.64611">
        <ele>1945.81</ele>
        <time>2014-01-29T09:50:46Z</time>
      </trkpt>
      <trkpt lat="45.39042" lon="6.64654">
        <ele>1958.02</ele>
        <time>2014-01-29T09:50:55Z</time>
      </trkpt>
      <trkpt lat="45.39016" lon="6.64694">
        <ele>1971.82</ele>
        <time>2014-01-29T09:51:05Z</time>
      </trkpt>
      <trkpt lat="45.38991" lon="6.64736">
        <ele>1992.31</ele>
        <time>2014-01-29T09:51:15Z</time>
      </trkpt>
      <trkpt lat="45.38963" lon="6.64781">
        <ele>2006.23</ele>
        <time>2014-01-29T09:51:28Z</time>
      </trkpt>
      <trkpt lat="45.38937" lon="6.64821">
        <ele>2019.15</ele>
        <time>2014-01-29T09:51:38Z</time>
      </trkpt>
      <trkpt lat="45.38909" lon="6.64867">
        <ele>2044.13</ele>
        <time>2014-01-29T09:51:52Z</time>
      </trkpt>
      <trkpt lat="45.38883" lon="6.64909">
        <ele>2072.46</ele>
        <time>2014-01-29T09:52:05Z</time>
      </trkpt>
      <trkpt lat="45.38856" lon="6.64951">
        <ele>2087.37</ele>
        <time>2014-01-29T09:52:14Z</time>
      </trkpt>
      <trkpt lat="45.3883" lon="6.64994">
        <ele>2099.44</ele>
        <time>2014-01-29T09:52:24Z</time>
      </trkpt>
      <trkpt lat="45.38805" lon="6.65038">
        <ele>2111.21</ele>
        <time>2014-01-29T09:52:35Z</time>
      </trkpt>
      <trkpt lat="45.38777" lon="6.65083">
        <ele>2120.3</ele>
        <time>2014-01-29T09:52:47Z</time>
      </trkpt>
      <trkpt lat="45.38751" lon="6.65124">
        <ele>2133.1</ele>
        <time>2014-01-29T09:52:58Z</time>
      </trkpt>
      <trkpt lat="45.38724" lon="6.65166">
        <ele>2142.73</ele>
        <time>2014-01-29T09:53:10Z</time>
      </trkpt>
      <trkpt lat="45.38697" lon="6.65209">
        <ele>2151.66</ele>
        <time>2014-01-29T09:53:20Z</time>
      </trkpt>
      <trkpt lat="45.38672" lon="6.65249">
        <ele>2159.64</ele>
        <time>2014-01-29T09:53:30Z</time>
      </trkpt>
      <trkpt lat="45.38643" lon="6.65297">
        <ele>2158.92</ele>
        <time>2014-01-29T09:53:40Z</time>
      </trkpt>
      <trkpt lat="45.38616" lon="6.65341">
        <ele>2165.93</ele>
        <time>2014-01-29T09:53:50Z</time>
      </trkpt>
      <trkpt lat="45.38591" lon="6.65386">
        <ele>2181.92</ele>
        <time>2014-01-29T09:54:00Z</time>
      </trkpt>
      <trkpt lat="45.38576" lon="6.65434">
        <ele>2189.83</ele>
        <time>2014-01-29T09:54:41Z</time>
      </trkpt>
      <trkpt lat="45.38615" lon="6.65438">
        <ele>2188.14</ele>
        <time>2014-01-29T09:55:01Z</time>
      </trkpt>
      <trkpt lat="45.38652" lon="6.6542">
        <ele>2178.62</ele>
        <time>2014-01-29T09:55:20Z</time>
      </trkpt>
      <trkpt lat="45.38667" lon="6.6537">
        <ele>2165.13</ele>
        <time>2014-01-29T09:55:39Z</time>
      </trkpt>
      <trkpt lat="45.38661" lon="6.65316">
        <ele>2157.42</ele>
        <time>2014-01-29T09:55:56Z</time>
      </trkpt>
      <trkpt lat="45.38624" lon="6.65312">
        <ele>2159.88</ele>
        <time>2014-01-29T09:57:50Z</time>
      </trkpt>
      <trkpt lat="45.38585" lon="6.65308">
        <ele>2162.31</ele>
        <time>2014-01-29T09:58:01Z</time>
      </trkpt>
      <trkpt lat="45.38544" lon="6.65306">
        <ele>2172.37</ele>
        <time>2014-01-29T09:58:13Z</time>
      </trkpt>
      <trkpt lat="45.38503" lon="6.65305">
        <ele>2182.48</ele>
        <time>2014-01-29T09:58:24Z</time>
      </trkpt>
      <trkpt lat="45.38463" lon="6.65303">
        <ele>2189.95</ele>
        <time>2014-01-29T09:58:37Z</time>
      </trkpt>
      <trkpt lat="45.38424" lon="6.65301">
        <ele>2200</ele>
        <time>2014-01-29T09:58:47Z</time>
      </trkpt>
      <trkpt lat="45.38382" lon="6.65303">
        <ele>2210.31</ele>
        <time>2014-01-29T09:58:59Z</time>
      </trkpt>
      <trkpt lat="45.38343" lon="6.65302">
        <ele>2211.51</ele>
        <time>2014-01-29T09:59:10Z</time>
      </trkpt>
      <trkpt lat="45.38306" lon="6.653">
        <ele>2215.66</ele>
        <time>2014-01-29T09:59:20Z</time>
      </trkpt>
      <trkpt lat="45.38268" lon="6.653">
        <ele>2216.55</ele>
        <time>2014-01-29T09:59:31Z</time>
      </trkpt>
      <trkpt lat="45.38229" lon="6.65302">
        <ele>2219.77</ele>
        <time>2014-01-29T09:59:42Z</time>
      </trkpt>
      <trkpt lat="45.38191" lon="6.653">
        <ele>2226.83</ele>
        <time>2014-01-29T09:59:52Z</time>
      </trkpt>
      <trkpt lat="45.38154" lon="6.65299">
        <ele>2234.45</ele>
        <time>2014-01-29T10:00:03Z</time>
      </trkpt>
      <trkpt lat="45.38114" lon="6.65298">
        <ele>2242.21</ele>
        <time>2014-01-29T10:00:15Z</time>
      </trkpt>
      <trkpt lat="45.38076" lon="6.65295">
        <ele>2249.1</ele>
        <time>2014-01-29T10:00:26Z</time>
      </trkpt>
      <trkpt lat="45.38036" lon="6.65293">
        <ele>2252.23</ele>
        <time>2014-01-29T10:00:37Z</time>
      </trkpt>
      <trkpt lat="45.37995" lon="6.65293">
        <ele>2259.87</ele>
        <time>2014-01-29T10:00:49Z</time>
      </trkpt>
      <trkpt lat="45.37952" lon="6.6529">
        <ele>2264.73</ele>
        <time>2014-01-29T10:01:01Z</time>
      </trkpt>
      <trkpt lat="45.37913" lon="6.65293">
        <ele>2270.4</ele>
        <time>2014-01-29T10:01:11Z</time>
      </trkpt>
      <trkpt lat="45.37871" lon="6.65289">
        <ele>2278.54</ele>
        <time>2014-01-29T10:01:23Z</time>
      </trkpt>
      <trkpt lat="45.3783" lon="6.65289">
        <ele>2287.47</ele>
        <time>2014-01-29T10:01:36Z</time>
      </trkpt>
      <trkpt lat="45.37789" lon="6.65288">
        <ele>2305.53</ele>
        <time>2014-01-29T10:01:47Z</time>
      </trkpt>
      <trkpt lat="45.37753" lon="6.65283">
        <ele>2324.7</ele>
        <time>2014-01-29T10:01:59Z</time>
      </trkpt>
      <trkpt lat="45.37713" lon="6.65282">
        <ele>2332.93</ele>
        <time>2014-01-29T10:02:11Z</time>
      </trkpt>
      <trkpt lat="45.37673" lon="6.65286">
        <ele>2337.25</ele>
        <time>2014-01-29T10:02:22Z</time>
      </trkpt>
      <trkpt lat="45.37633" lon="6.65286">
        <ele>2342.27</ele>
        <time>2014-01-29T10:02:33Z</time>
      </trkpt>
      <trkpt lat="45.37592" lon="6.65282">
        <ele>2349.54</ele>
        <time>2014-01-29T10:02:44Z</time>
      </trkpt>
      <trkpt lat="45.37554" lon="6.6528">
        <ele>2358.2</ele>
        <time>2014-01-29T10:02:56Z</time>
      </trkpt>
      <trkpt lat="45.37512" lon="6.65282">
        <ele>2365.08</ele>
        <time>2014-01-29T10:03:07Z</time>
      </trkpt>
      <trkpt lat="45.37473" lon="6.6528">
        <ele>2378.3</ele>
        <time>2014-01-29T10:03:19Z</time>
      </trkpt>
      <trkpt lat="45.37432" lon="6.6528">
        <ele>2385.05</ele>
        <time>2014-01-29T10:03:31Z</time>
      </trkpt>
      <trkpt lat="45.37391" lon="6.65279">
        <ele>2396.35</ele>
        <time>2014-01-29T10:03:43Z</time>
      </trkpt>
      <trkpt lat="45.37352" lon="6.65283">
        <ele>2400</ele>
        <time>2014-01-29T10:03:55Z</time>
      </trkpt>
      <trkpt lat="45.37314" lon="6.6528">
        <ele>2400</ele>
        <time>2014-01-29T10:04:05Z</time>
      </trkpt>
      <trkpt lat="45.37277" lon="6.65264">
        <ele>2409.04</ele>
        <time>2014-01-29T10:04:14Z</time>
      </trkpt>
      <trkpt lat="45.3729" lon="6.65211">
        <ele>2403.75</ele>
        <time>2014-01-29T10:05:27Z</time>
      </trkpt>
      <trkpt lat="45.37339" lon="6.652">
        <ele>2388.43</ele>
        <time>2014-01-29T10:05:34Z</time>
      </trkpt>
      <trkpt lat="45.37386" lon="6.65207">
        <ele>2381.26</ele>
        <time>2014-01-29T10:05:38Z</time>
      </trkpt>
      <trkpt lat="45.37426" lon="6.65207">
        <ele>2378.27</ele>
        <time>2014-01-29T10:05:42Z</time>
      </trkpt>
      <trkpt lat="45.3747" lon="6.65201">
        <ele>2370.74</ele>
        <time>2014-01-29T10:05:47Z</time>
      </trkpt>
      <trkpt lat="45.37514" lon="6.65182">
        <ele>2362.59</ele>
        <time>2014-01-29T10:05:53Z</time>
      </trkpt>
      <trkpt lat="45.37554" lon="6.65154">
        <ele>2352.28</ele>
        <time>2014-01-29T10:05:59Z</time>
      </trkpt>
      <trkpt lat="45.37592" lon="6.65141">
        <ele>2341.66</ele>
        <time>2014-01-29T10:06:07Z</time>
      </trkpt>
      <trkpt lat="45.3763" lon="6.65136">
        <ele>2332.64</ele>
        <time>2014-01-29T10:06:11Z</time>
      </trkpt>
      <trkpt lat="45.37681" lon="6.65128">
        <ele>2322.45</ele>
        <time>2014-01-29T10:06:17Z</time>
      </trkpt>
      <trkpt lat="45.37719" lon="6.65108">
        <ele>2309.24</ele>
        <time>2014-01-29T10:06:21Z</time>
      </trkpt>
      <trkpt lat="45.37763" lon="6.6512">
        <ele>2292.27</ele>
        <time>2014-01-29T10:06:25Z</time>
      </trkpt>
      <trkpt lat="45.3781" lon="6.65136">
        <ele>2285.55</ele>
        <time>2014-01-29T10:06:30Z</time>
      </trkpt>
      <trkpt lat="45.37848" lon="6.65159">
        <ele>2280.99</ele>
        <time>2014-01-29T10:06:38Z</time>
      </trkpt>
      <trkpt lat="45.37886" lon="6.65177">
        <ele>2270.77</ele>
        <time>2014-01-29T10:06:42Z</time>
      </trkpt>
      <trkpt lat="45.37943" lon="6.652">
        <ele>2253.91</ele>
        <time>2014-01-29T10:06:46Z</time>
      </trkpt>
      <trkpt lat="45.37995" lon="6.65215">
        <ele>2245.87</ele>
        <time>2014-01-29T10:06:50Z</time>
      </trkpt>
      <trkpt lat="45.38038" lon="6.65223">
        <ele>2246.16</ele>
        <time>2014-01-29T10:06:55Z</time>
      </trkpt>
      <trkpt lat="45.38083" lon="6.65235">
        <ele>2245.25</ele>
        <time>2014-01-29T10:07:01Z</time>
      </trkpt>
      <trkpt lat="45.38127" lon="6.65246">
        <ele>2240.08</ele>
        <time>2014-01-29T10:07:07Z</time>
      </trkpt>
      <trkpt lat="45.38179" lon="6.65256">
        <ele>2230.27</ele>
        <time>2014-01-29T10:07:12Z</time>
      </trkpt>
      <trkpt lat="45.38219" lon="6.65272">
        <ele>2223.35</ele>
        <time>2014-01-29T10:07:16Z</time>
      </trkpt>
      <trkpt lat="45.38271" lon="6.6528">
        <ele>2218.25</ele>
        <time>2014-01-29T10:07:22Z</time>
      </trkpt>
      <trkpt lat="45.38318" lon="6.6529">
        <ele>2215.66</ele>
        <time>2014-01-29T10:07:28Z</time>
      </trkpt>
      <trkpt lat="45.38358" lon="6.65286">
        <ele>2213.23</ele>
        <time>2014-01-29T10:08:46Z</time>
      </trkpt>
      <trkpt lat="45.38397" lon="6.65284">
        <ele>2207.54</ele>
        <time>2014-01-29T10:09:00Z</time>
      </trkpt>
      <trkpt lat="45.38442" lon="6.65284">
        <ele>2194.69</ele>
        <time>2014-01-29T10:09:04Z</time>
      </trkpt>
      <trkpt lat="45.38488" lon="6.65291">
        <ele>2185.13</ele>
        <time>2014-01-29T10:09:08Z</time>
      </trkpt>
      <trkpt lat="45.38529" lon="6.65293">
        <ele>2177.3</ele>
        <time>2014-01-29T10:09:12Z</time>
      </trkpt>
      <trkpt lat="45.38578" lon="6.65286">
        <ele>2162.99</ele>
        <time>2014-01-29T10:09:16Z</time>
      </trkpt>
      <trkpt lat="45.38626" lon="6.65291">
        <ele>2159.54</ele>
        <time>2014-01-29T10:09:20Z</time>
      </trkpt>
      <trkpt lat="45.38669" lon="6.65304">
        <ele>2155.57</ele>
        <time>2014-01-29T10:09:24Z</time>
      </trkpt>
      <trkpt lat="45.38715" lon="6.65336">
        <ele>2149.13</ele>
        <time>2014-01-29T10:09:30Z</time>
      </trkpt>
      <trkpt lat="45.38752" lon="6.65328">
        <ele>2143.88</ele>
        <time>2014-01-29T10:09:34Z</time>
      </trkpt>
      <trkpt lat="45.38781" lon="6.65291">
        <ele>2136.64</ele>
        <time>2014-01-29T10:09:38Z</time>
      </trkpt>
      <trkpt lat="45.38822" lon="6.65257">
        <ele>2130.55</ele>
        <time>2014-01-29T10:09:44Z</time>
      </trkpt>
      <trkpt lat="45.38868" lon="6.65237">
        <ele>2124.49</ele>
        <time>2014-01-29T10:09:49Z</time>
      </trkpt>
      <trkpt lat="45.38912" lon="6.65217">
        <ele>2121.74</ele>
        <time>2014-01-29T10:09:55Z</time>
      </trkpt>
      <trkpt lat="45.38954" lon="6.6524">
        <ele>2119.93</ele>
        <time>2014-01-29T10:10:03Z</time>
      </trkpt>
      <trkpt lat="45.38995" lon="6.65265">
        <ele>2116.8</ele>
        <time>2014-01-29T10:10:11Z</time>
      </trkpt>
      <trkpt lat="45.39033" lon="6.65293">
        <ele>2112.16</ele>
        <time>2014-01-29T10:10:19Z</time>
      </trkpt>
      <trkpt lat="45.39075" lon="6.65321">
        <ele>2105.13</ele>
        <time>2014-01-29T10:10:26Z</time>
      </trkpt>
      <trkpt lat="45.3912" lon="6.65305">
        <ele>2097.29</ele>
        <time>2014-01-29T10:10:31Z</time>
      </trkpt>
      <trkpt lat="45.39157" lon="6.65287">
        <ele>2089.74</ele>
        <time>2014-01-29T10:10:35Z</time>
      </trkpt>
      <trkpt lat="45.39199" lon="6.65273">
        <ele>2082.17</ele>
        <time>2014-01-29T10:10:40Z</time>
      </trkpt>
      <trkpt lat="45.39241" lon="6.65256">
        <ele>2075.71</ele>
        <time>2014-01-29T10:10:46Z</time>
      </trkpt>
      <trkpt lat="45.39274" lon="6.65284">
        <ele>2067.81</ele>
        <time>2014-01-29T10:10:57Z</time>
      </trkpt>
      <trkpt lat="45.39316" lon="6.65289">
        <ele>2058</ele>
        <time>2014-01-29T10:11:05Z</time>
      </trkpt>
      <trkpt lat="45.39356" lon="6.6531">
        <ele>2052.14</ele>
        <time>2014-01-29T10:11:15Z</time>
      </trkpt>
      <trkpt lat="45.39393" lon="6.65301">
        <ele>2030.87</ele>
        <time>2014-01-29T10:11:34Z</time>
      </trkpt>
      <trkpt lat="45.39437" lon="6.65297">
        <ele>2017.17</ele>
        <time>2014-01-29T10:11:42Z</time>
      </trkpt>
      <trkpt lat="45.39464" lon="6.65265">
        <ele>2004.49</ele>
        <time>2014-01-29T10:12:14Z</time>
      </trkpt>
      <trkpt lat="45.39492" lon="6.65219">
        <ele>1993.81</ele>
        <time>2014-01-29T10:12:21Z</time>
      </trkpt>
      <trkpt lat="45.39529" lon="6.65187">
        <ele>1985.48</ele>
        <time>2014-01-29T10:12:25Z</time>
      </trkpt>
      <trkpt lat="45.39571" lon="6.65187">
        <ele>1977.27</ele>
        <time>2014-01-29T10:12:29Z</time>
      </trkpt>
      <trkpt lat="45.39616" lon="6.65184">
        <ele>1966.34</ele>
        <time>2014-01-29T10:12:33Z</time>
      </trkpt>
      <trkpt lat="45.39665" lon="6.65173">
        <ele>1953.44</ele>
        <time>2014-01-29T10:12:37Z</time>
      </trkpt>
      <trkpt lat="45.39705" lon="6.6517">
        <ele>1947.36</ele>
        <time>2014-01-29T10:12:41Z</time>
      </trkpt>
      <trkpt lat="45.39744" lon="6.65176">
        <ele>1943.55</ele>
        <time>2014-01-29T10:12:45Z</time>
      </trkpt>
      <trkpt lat="45.39788" lon="6.65175">
        <ele>1934.53</ele>
        <time>2014-01-29T10:12:49Z</time>
      </trkpt>
      <trkpt lat="45.39835" lon="6.65191">
        <ele>1926.5</ele>
        <time>2014-01-29T10:12:53Z</time>
      </trkpt>
      <trkpt lat="45.39879" lon="6.65227">
        <ele>1918.07</ele>
        <time>2014-01-29T10:12:57Z</time>
      </trkpt>
      <trkpt lat="45.39916" lon="6.65261">
        <ele>1907.36</ele>
        <time>2014-01-29T10:13:01Z</time>
      </trkpt>
      <trkpt lat="45.3995" lon="6.65287">
        <ele>1900.57</ele>
        <time>2014-01-29T10:13:05Z</time>
      </trkpt>
      <trkpt lat="45.39984" lon="6.65315">
        <ele>1895.27</ele>
        <time>2014-01-29T10:13:09Z</time>
      </trkpt>
      <trkpt lat="45.40022" lon="6.65334">
        <ele>1891.14</ele>
        <time>2014-01-29T10:13:14Z</time>
      </trkpt>
      <trkpt lat="45.40057" lon="6.65359">
        <ele>1888.35</ele>
        <time>2014-01-29T10:13:23Z</time>
      </trkpt>
      <trkpt lat="45.40039" lon="6.65402">
        <ele>1884.78</ele>
        <time>2014-01-29T10:14:50Z</time>
      </trkpt>
      <trkpt lat="45.40068" lon="6.65442">
        <ele>1882.04</ele>
        <time>2014-01-29T10:14:57Z</time>
      </trkpt>
      <trkpt lat="45.40109" lon="6.65443">
        <ele>1875.45</ele>
        <time>2014-01-29T10:15:01Z</time>
      </trkpt>
      <trkpt lat="45.40148" lon="6.65416">
        <ele>1867.38</ele>
        <time>2014-01-29T10:15:05Z</time>
      </trkpt>
      <trkpt lat="45.40173" lon="6.65359">
        <ele>1866.53</ele>
        <time>2014-01-29T10:15:09Z</time>
      </trkpt>
      <trkpt lat="45.402" lon="6.6531">
        <ele>1854.79</ele>
        <time>2014-01-29T10:15:13Z</time>
      </trkpt>
      <trkpt lat="45.40236" lon="6.65279">
        <ele>1847.63</ele>
        <time>2014-01-29T10:15:17Z</time>
      </trkpt>
      <trkpt lat="45.40276" lon="6.6526">
        <ele>1840.33</ele>
        <time>2014-01-29T10:15:21Z</time>
      </trkpt>
      <trkpt lat="45.40315" lon="6.6524">
        <ele>1833.31</ele>
        <time>2014-01-29T10:15:25Z</time>
      </trkpt>
      <trkpt lat="45.40344" lon="6.65202">
        <ele>1825.49</ele>
        <time>2014-01-29T10:15:29Z</time>
      </trkpt>
      <trkpt lat="45.40385" lon="6.65168">
        <ele>1812.83</ele>
        <time>2014-01-29T10:15:34Z</time>
      </trkpt>
      <trkpt lat="45.40427" lon="6.65135">
        <ele>1801.31</ele>
        <time>2014-01-29T10:15:38Z</time>
      </trkpt>
      <trkpt lat="45.40469" lon="6.65123">
        <ele>1800</ele>
        <time>2014-01-29T10:15:42Z</time>
      </trkpt>
      <trkpt lat="45.40515" lon="6.65113">
        <ele>1800</ele>
        <time>2014-01-29T10:15:48Z</time>
      </trkpt>
      <trkpt lat="45.40557" lon="6.65102">
        <ele>1798.08</ele>
        <time>2014-01-29T10:15:54Z</time>
      </trkpt>
      <trkpt lat="45.40598" lon="6.65088">
        <ele>1785.77</ele>
        <time>2014-01-29T10:16:00Z</time>
      </trkpt>
      <trkpt lat="45.40641" lon="6.65081">
        <ele>1783.1</ele>
        <time>2014-01-29T10:16:07Z</time>
      </trkpt>
      <trkpt lat="45.40682" lon="6.65086">
        <ele>1783.46</ele>
        <time>2014-01-29T10:16:15Z</time>
      </trkpt>
      <trkpt lat="45.4072" lon="6.65091">
        <ele>1777.15</ele>
        <time>2014-01-29T10:16:21Z</time>
      </trkpt>
      <trkpt lat="45.4076" lon="6.65095">
        <ele>1772.9</ele>
        <time>2014-01-29T10:16:27Z</time>
      </trkpt>
      <trkpt lat="45.40803" lon="6.65096">
        <ele>1771.69</ele>
        <time>2014-01-29T10:16:33Z</time>
      </trkpt>
      <trkpt lat="45.40841" lon="6.65112">
        <ele>1772.19</ele>
        <time>2014-01-29T10:16:39Z</time>
      </trkpt>
      <trkpt lat="45.40889" lon="6.65105">
        <ele>1755</ele>
        <time>2014-01-29T10:16:45Z</time>
      </trkpt>
      <trkpt lat="45.40936" lon="6.65119">
        <ele>1760.73</ele>
        <time>2014-01-29T10:16:51Z</time>
      </trkpt>
      <trkpt lat="45.40976" lon="6.65148">
        <ele>1756.24</ele>
        <time>2014-01-29T10:16:56Z</time>
      </trkpt>
      <trkpt lat="45.4101" lon="6.65174">
        <ele>1749.82</ele>
        <time>2014-01-29T10:17:00Z</time>
      </trkpt>
      <trkpt lat="45.41048" lon="6.65211">
        <ele>1745.51</ele>
        <time>2014-01-29T10:17:06Z</time>
      </trkpt>
      <trkpt lat="45.41077" lon="6.65246">
        <ele>1743.89</ele>
        <time>2014-01-29T10:17:12Z</time>
      </trkpt>
      <trkpt lat="45.41103" lon="6.65286">
        <ele>1740.54</ele>
        <time>2014-01-29T10:17:19Z</time>
      </trkpt>
      <trkpt lat="45.41139" lon="6.65288">
        <ele>1733.41</ele>
        <time>2014-01-29T10:17:28Z</time>
      </trkpt>
      <trkpt lat="45.4118" lon="6.6529">
        <ele>1724.88</ele>
        <time>2014-01-29T10:17:34Z</time>
      </trkpt>
      <trkpt lat="45.41219" lon="6.65298">
        <ele>1718.02</ele>
        <time>2014-01-29T10:17:40Z</time>
      </trkpt>
      <trkpt lat="45.41261" lon="6.65306">
        <ele>1710.14</ele>
        <time>2014-01-29T10:17:48Z</time>
      </trkpt>
      <trkpt lat="45.413" lon="6.65288">
        <ele>1698.13</ele>
        <time>2014-01-29T10:17:58Z</time>
      </trkpt>
      <trkpt lat="45.41336" lon="6.65267">
        <ele>1685.43</ele>
        <time>2014-01-29T10:18:07Z</time>
      </trkpt>
      <trkpt lat="45.41375" lon="6.65281">
        <ele>1672.79</ele>
        <time>2014-01-29T10:18:18Z</time>
      </trkpt>
      <trkpt lat="45.4142" lon="6.65275">
        <ele>1656.03</ele>
        <time>2014-01-29T10:18:25Z</time>
      </trkpt>
      <trkpt lat="45.41468" lon="6.65279">
        <ele>1646.01</ele>
        <time>2014-01-29T10:18:31Z</time>
      </trkpt>
      <trkpt lat="45.41502" lon="6.65311">
        <ele>1642.5</ele>
        <time>2014-01-29T10:18:37Z</time>
      </trkpt>
      <trkpt lat="45.41548" lon="6.65318">
        <ele>1632.93</ele>
        <time>2014-01-29T10:18:43Z</time>
      </trkpt>
      <trkpt lat="45.41594" lon="6.65323">
        <ele>1621.62</ele>
        <time>2014-01-29T10:18:49Z</time>
      </trkpt>
      <trkpt lat="45.41629" lon="6.65305">
        <ele>1613.08</ele>
        <time>2014-01-29T10:18:55Z</time>
      </trkpt>
      <trkpt lat="45.41669" lon="6.65289">
        <ele>1602.81</ele>
        <time>2014-01-29T10:19:03Z</time>
      </trkpt>
      <trkpt lat="45.41708" lon="6.65287">
        <ele>1593.54</ele>
        <time>2014-01-29T10:19:14Z</time>
      </trkpt>
      <trkpt lat="45.41723" lon="6.65225">
        <ele>1590.01</ele>
        <time>2014-01-29T10:21:58Z</time>
      </trkpt>
      <trkpt lat="45.41727" lon="6.65212">
        <ele>1587.3</ele>
        <time>2014-01-29T10:23:52Z</time>
      </trkpt>
      <trkpt lat="45.41691" lon="6.65229">
        <ele>1592.63</ele>
        <time>2014-01-29T10:24:00Z</time>
      </trkpt>
      <trkpt lat="45.41653" lon="6.65244">
        <ele>1603.29</ele>
        <time>2014-01-29T10:24:10Z</time>
      </trkpt>
      <trkpt lat="45.41613" lon="6.65251">
        <ele>1610.79</ele>
        <time>2014-01-29T10:24:21Z</time>
      </trkpt>
      <trkpt lat="45.41577" lon="6.65261">
        <ele>1622.72</ele>
        <time>2014-01-29T10:24:32Z</time>
      </trkpt>
      <trkpt lat="45.41538" lon="6.65269">
        <ele>1631.88</ele>
        <time>2014-01-29T10:24:44Z</time>
      </trkpt>
      <trkpt lat="45.41499" lon="6.6528">
        <ele>1641.35</ele>
        <time>2014-01-29T10:24:55Z</time>
      </trkpt>
      <trkpt lat="45.41459" lon="6.65284">
        <ele>1648.57</ele>
        <time>2014-01-29T10:25:07Z</time>
      </trkpt>
      <trkpt lat="45.41419" lon="6.65294">
        <ele>1659.25</ele>
        <time>2014-01-29T10:25:19Z</time>
      </trkpt>
      <trkpt lat="45.41382" lon="6.65305">
        <ele>1673.53</ele>
        <time>2014-01-29T10:25:30Z</time>
      </trkpt>
      <trkpt lat="45.4134" lon="6.65315">
        <ele>1688.81</ele>
        <time>2014-01-29T10:25:42Z</time>
      </trkpt>
      <trkpt lat="45.41303" lon="6.65321">
        <ele>1699.25</ele>
        <time>2014-01-29T10:25:53Z</time>
      </trkpt>
      <trkpt lat="45.41268" lon="6.65334">
        <ele>1708.15</ele>
        <time>2014-01-29T10:26:03Z</time>
      </trkpt>
      <trkpt lat="45.41229" lon="6.65342">
        <ele>1716.52</ele>
        <time>2014-01-29T10:26:15Z</time>
      </trkpt>
      <trkpt lat="45.41192" lon="6.65352">
        <ele>1721.67</ele>
        <time>2014-01-29T10:26:26Z</time>
      </trkpt>
      <trkpt lat="45.41152" lon="6.6536">
        <ele>1730.17</ele>
        <time>2014-01-29T10:26:38Z</time>
      </trkpt>
      <trkpt lat="45.4111" lon="6.65373">
        <ele>1736.86</ele>
        <time>2014-01-29T10:26:50Z</time>
      </trkpt>
      <trkpt lat="45.41069" lon="6.6538">
        <ele>1746.06</ele>
        <time>2014-01-29T10:27:02Z</time>
      </trkpt>
      <trkpt lat="45.41031" lon="6.65391">
        <ele>1753.38</ele>
        <time>2014-01-29T10:27:13Z</time>
      </trkpt>
      <trkpt lat="45.4099" lon="6.65401">
        <ele>1766.85</ele>
        <time>2014-01-29T10:27:25Z</time>
      </trkpt>
      <trkpt lat="45.40951" lon="6.65409">
        <ele>1778.21</ele>
        <time>2014-01-29T10:27:37Z</time>
      </trkpt>
      <trkpt lat="45.40914" lon="6.65419">
        <ele>1787.28</ele>
        <time>2014-01-29T10:27:47Z</time>
      </trkpt>
      <trkpt lat="45.40875" lon="6.65426">
        <ele>1795.15</ele>
        <time>2014-01-29T10:27:59Z</time>
      </trkpt>
      <trkpt lat="45.40839" lon="6.65436">
        <ele>1799.39</ele>
        <time>2014-01-29T10:28:10Z</time>
      </trkpt>
      <trkpt lat="45.40799" lon="6.65445">
        <ele>1804.91</ele>
        <time>2014-01-29T10:28:21Z</time>
      </trkpt>
      <trkpt lat="45.40761" lon="6.65455">
        <ele>1811.35</ele>
        <time>2014-01-29T10:28:32Z</time>
      </trkpt>
      <trkpt lat="45.40722" lon="6.65467">
        <ele>1820.82</ele>
        <time>2014-01-29T10:28:43Z</time>
      </trkpt>
      <trkpt lat="45.40683" lon="6.65473">
        <ele>1827.83</ele>
        <time>2014-01-29T10:28:55Z</time>
      </trkpt>
      <trkpt lat="45.40642" lon="6.65482">
        <ele>1826.63</ele>
        <time>2014-01-29T10:29:07Z</time>
      </trkpt>
      <trkpt lat="45.40601" lon="6.65489">
        <ele>1840.35</ele>
        <time>2014-01-29T10:29:19Z</time>
      </trkpt>
      <trkpt lat="45.40561" lon="6.655">
        <ele>1844.3</ele>
        <time>2014-01-29T10:29:31Z</time>
      </trkpt>
      <trkpt lat="45.40524" lon="6.6551">
        <ele>1848.48</ele>
        <time>2014-01-29T10:29:41Z</time>
      </trkpt>
      <trkpt lat="45.40484" lon="6.65521">
        <ele>1851.3</ele>
        <time>2014-01-29T10:29:53Z</time>
      </trkpt>
      <trkpt lat="45.40445" lon="6.65531">
        <ele>1854.66</ele>
        <time>2014-01-29T10:30:04Z</time>
      </trkpt>
      <trkpt lat="45.40407" lon="6.65542">
        <ele>1857.45</ele>
        <time>2014-01-29T10:30:15Z</time>
      </trkpt>
      <trkpt lat="45.40368" lon="6.65551">
        <ele>1858.2</ele>
        <time>2014-01-29T10:30:26Z</time>
      </trkpt>
      <trkpt lat="45.40327" lon="6.65559">
        <ele>1859.9</ele>
        <time>2014-01-29T10:30:38Z</time>
      </trkpt>
      <trkpt lat="45.40286" lon="6.65567">
        <ele>1864.79</ele>
        <time>2014-01-29T10:30:50Z</time>
      </trkpt>
      <trkpt lat="45.40246" lon="6.65574">
        <ele>1871.22</ele>
        <time>2014-01-29T10:31:02Z</time>
      </trkpt>
      <trkpt lat="45.40207" lon="6.65584">
        <ele>1874.47</ele>
        <time>2014-01-29T10:31:13Z</time>
      </trkpt>
      <trkpt lat="45.40168" lon="6.65597">
        <ele>1876.93</ele>
        <time>2014-01-29T10:31:24Z</time>
      </trkpt>
      <trkpt lat="45.40126" lon="6.65607">
        <ele>1881.23</ele>
        <time>2014-01-29T10:31:36Z</time>
      </trkpt>
      <trkpt lat="45.40086" lon="6.65615">
        <ele>1889.59</ele>
        <time>2014-01-29T10:31:48Z</time>
      </trkpt>
      <trkpt lat="45.4005" lon="6.65624">
        <ele>1895.66</ele>
        <time>2014-01-29T10:31:58Z</time>
      </trkpt>
      <trkpt lat="45.40013" lon="6.65631">
        <ele>1906.4</ele>
        <time>2014-01-29T10:32:10Z</time>
      </trkpt>
      <trkpt lat="45.39972" lon="6.65642">
        <ele>1923.51</ele>
        <time>2014-01-29T10:32:22Z</time>
      </trkpt>
      <trkpt lat="45.3993" lon="6.65655">
        <ele>1938.28</ele>
        <time>2014-01-29T10:32:34Z</time>
      </trkpt>
      <trkpt lat="45.39893" lon="6.65664">
        <ele>1947.85</ele>
        <time>2014-01-29T10:32:46Z</time>
      </trkpt>
      <trkpt lat="45.39856" lon="6.6568">
        <ele>1959.85</ele>
        <time>2014-01-29T10:32:56Z</time>
      </trkpt>
      <trkpt lat="45.39818" lon="6.65691">
        <ele>1973.12</ele>
        <time>2014-01-29T10:33:06Z</time>
      </trkpt>
      <trkpt lat="45.3978" lon="6.65703">
        <ele>1996.66</ele>
        <time>2014-01-29T10:33:16Z</time>
      </trkpt>
      <trkpt lat="45.39742" lon="6.65703">
        <ele>2007.65</ele>
        <time>2014-01-29T10:33:27Z</time>
      </trkpt>
      <trkpt lat="45.39706" lon="6.65696">
        <ele>2012.52</ele>
        <time>2014-01-29T10:33:40Z</time>
      </trkpt>
      <trkpt lat="45.39665" lon="6.65695">
        <ele>2021.71</ele>
        <time>2014-01-29T10:33:53Z</time>
      </trkpt>
      <trkpt lat="45.39626" lon="6.65708">
        <ele>2037.04</ele>
        <time>2014-01-29T10:34:07Z</time>
      </trkpt>
      <trkpt lat="45.39588" lon="6.65732">
        <ele>2043</ele>
        <time>2014-01-29T10:34:18Z</time>
      </trkpt>
      <trkpt lat="45.39547" lon="6.65743">
        <ele>2047.28</ele>
        <time>2014-01-29T10:34:29Z</time>
      </trkpt>
      <trkpt lat="45.39549" lon="6.65747">
        <ele>2047.46</ele>
        <time>2014-01-29T10:35:04Z</time>
      </trkpt>
      <trkpt lat="45.39512" lon="6.65703">
        <ele>2045.04</ele>
        <time>2014-01-29T10:36:37Z</time>
      </trkpt>
      <trkpt lat="45.39498" lon="6.65655">
        <ele>2038.01</ele>
        <time>2014-01-29T10:36:43Z</time>
      </trkpt>
      <trkpt lat="45.39519" lon="6.65602">
        <ele>2031.04</ele>
        <time>2014-01-29T10:36:51Z</time>
      </trkpt>
      <trkpt lat="45.39546" lon="6.65566">
        <ele>2025.74</ele>
        <time>2014-01-29T10:37:03Z</time>
      </trkpt>
      <trkpt lat="45.39569" lon="6.65518">
        <ele>2013.06</ele>
        <time>2014-01-29T10:37:17Z</time>
      </trkpt>
      <trkpt lat="45.39606" lon="6.65517">
        <ele>1994.17</ele>
        <time>2014-01-29T10:37:27Z</time>
      </trkpt>
      <trkpt lat="45.39641" lon="6.655">
        <ele>1977.59</ele>
        <time>2014-01-29T10:37:39Z</time>
      </trkpt>
      <trkpt lat="45.39674" lon="6.65481">
        <ele>1964.72</ele>
        <time>2014-01-29T10:37:53Z</time>
      </trkpt>
      <trkpt lat="45.39711" lon="6.65481">
        <ele>1958.2</ele>
        <time>2014-01-29T10:38:03Z</time>
      </trkpt>
      <trkpt lat="45.39723" lon="6.65444">
        <ele>1940.99</ele>
        <time>2014-01-29T10:38:34Z</time>
      </trkpt>
      <trkpt lat="45.39763" lon="6.6545">
        <ele>1937.24</ele>
        <time>2014-01-29T10:39:01Z</time>
      </trkpt>
      <trkpt lat="45.39799" lon="6.65432">
        <ele>1930.18</ele>
        <time>2014-01-29T10:39:09Z</time>
      </trkpt>
      <trkpt lat="45.39829" lon="6.65395">
        <ele>1921.78</ele>
        <time>2014-01-29T10:39:19Z</time>
      </trkpt>
      <trkpt lat="45.39876" lon="6.65392">
        <ele>1911.38</ele>
        <time>2014-01-29T10:39:24Z</time>
      </trkpt>
      <trkpt lat="45.39917" lon="6.65397">
        <ele>1905.12</ele>
        <time>2014-01-29T10:39:28Z</time>
      </trkpt>
      <trkpt lat="45.39957" lon="6.65398">
        <ele>1897.9</ele>
        <time>2014-01-29T10:39:32Z</time>
      </trkpt>
      <trkpt lat="45.39996" lon="6.65403">
        <ele>1890.45</ele>
        <time>2014-01-29T10:39:36Z</time>
      </trkpt>
      <trkpt lat="45.40036" lon="6.65397">
        <ele>1885.57</ele>
        <time>2014-01-29T10:39:41Z</time>
      </trkpt>
      <trkpt lat="45.4004" lon="6.65358">
        <ele>1888.78</ele>
        <time>2014-01-29T10:39:54Z</time>
      </trkpt>
      <trkpt lat="45.40006" lon="6.65382">
        <ele>1889.47</ele>
        <time>2014-01-29T10:41:39Z</time>
      </trkpt>
      <trkpt lat="45.39966" lon="6.65398">
        <ele>1896.31</ele>
        <time>2014-01-29T10:41:50Z</time>
      </trkpt>
      <trkpt lat="45.39929" lon="6.65417">
        <ele>1905.61</ele>
        <time>2014-01-29T10:42:02Z</time>
      </trkpt>
      <trkpt lat="45.39888" lon="6.65436">
        <ele>1919.26</ele>
        <time>2014-01-29T10:42:14Z</time>
      </trkpt>
      <trkpt lat="45.39852" lon="6.6545">
        <ele>1927.7</ele>
        <time>2014-01-29T10:42:25Z</time>
      </trkpt>
      <trkpt lat="45.39814" lon="6.65467">
        <ele>1936.91</ele>
        <time>2014-01-29T10:42:37Z</time>
      </trkpt>
      <trkpt lat="45.39777" lon="6.65482">
        <ele>1944.13</ele>
        <time>2014-01-29T10:42:47Z</time>
      </trkpt>
      <trkpt lat="45.39738" lon="6.65497">
        <ele>1956.17</ele>
        <time>2014-01-29T10:42:59Z</time>
      </trkpt>
      <trkpt lat="45.39699" lon="6.65515">
        <ele>1969.19</ele>
        <time>2014-01-29T10:43:11Z</time>
      </trkpt>
      <trkpt lat="45.39662" lon="6.65532">
        <ele>1981.8</ele>
        <time>2014-01-29T10:43:25Z</time>
      </trkpt>
      <trkpt lat="45.39625" lon="6.65547">
        <ele>1994.77</ele>
        <time>2014-01-29T10:43:38Z</time>
      </trkpt>
      <trkpt lat="45.39589" lon="6.65563">
        <ele>2007.16</ele>
        <time>2014-01-29T10:43:50Z</time>
      </trkpt>
      <trkpt lat="45.3955" lon="6.6558">
        <ele>2023.13</ele>
        <time>2014-01-29T10:44:01Z</time>
      </trkpt>
      <trkpt lat="45.39512" lon="6.65596">
        <ele>2031.64</ele>
        <time>2014-01-29T10:44:13Z</time>
      </trkpt>
      <trkpt lat="45.39473" lon="6.65613">
        <ele>2037.97</ele>
        <time>2014-01-29T10:44:25Z</time>
      </trkpt>
      <trkpt lat="45.39437" lon="6.65631">
        <ele>2046.25</ele>
        <time>2014-01-29T10:44:36Z</time>
      </trkpt>
      <trkpt lat="45.39398" lon="6.65644">
        <ele>2053.06</ele>
        <time>2014-01-29T10:44:47Z</time>
      </trkpt>
      <trkpt lat="45.3936" lon="6.65661">
        <ele>2062.22</ele>
        <time>2014-01-29T10:44:58Z</time>
      </trkpt>
      <trkpt lat="45.39323" lon="6.65677">
        <ele>2072.83</ele>
        <time>2014-01-29T10:45:09Z</time>
      </trkpt>
      <trkpt lat="45.39285" lon="6.65693">
        <ele>2082.92</ele>
        <time>2014-01-29T10:45:20Z</time>
      </trkpt>
      <trkpt lat="45.39247" lon="6.65712">
        <ele>2092.92</ele>
        <time>2014-01-29T10:45:31Z</time>
      </trkpt>
      <trkpt lat="45.3921" lon="6.6573">
        <ele>2102.66</ele>
        <time>2014-01-29T10:45:43Z</time>
      </trkpt>
      <trkpt lat="45.39172" lon="6.65747">
        <ele>2118.47</ele>
        <time>2014-01-29T10:45:55Z</time>
      </trkpt>
      <trkpt lat="45.39135" lon="6.65765">
        <ele>2133.88</ele>
        <time>2014-01-29T10:46:07Z</time>
      </trkpt>
      <trkpt lat="45.39097" lon="6.65783">
        <ele>2149.6</ele>
        <time>2014-01-29T10:46:19Z</time>
      </trkpt>
      <trkpt lat="45.39064" lon="6.65806">
        <ele>2149.98</ele>
        <time>2014-01-29T10:46:29Z</time>
      </trkpt>
      <trkpt lat="45.39029" lon="6.65827">
        <ele>2151.66</ele>
        <time>2014-01-29T10:46:40Z</time>
      </trkpt>
      <trkpt lat="45.38992" lon="6.6584">
        <ele>2160.37</ele>
        <time>2014-01-29T10:46:52Z</time>
      </trkpt>
      <trkpt lat="45.38951" lon="6.65855">
        <ele>2175.84</ele>
        <time>2014-01-29T10:47:04Z</time>
      </trkpt>
      <trkpt lat="45.38911" lon="6.65867">
        <ele>2180.68</ele>
        <time>2014-01-29T10:47:16Z</time>
      </trkpt>
      <trkpt lat="45.38871" lon="6.65878">
        <ele>2184.32</ele>
        <time>2014-01-29T10:47:28Z</time>
      </trkpt>
      <trkpt lat="45.38836" lon="6.65891">
        <ele>2184.57</ele>
        <time>2014-01-29T10:47:38Z</time>
      </trkpt>
      <trkpt lat="45.38797" lon="6.65909">
        <ele>2193.18</ele>
        <time>2014-01-29T10:47:49Z</time>
      </trkpt>
      <trkpt lat="45.38758" lon="6.65922">
        <ele>2209.24</ele>
        <time>2014-01-29T10:48:00Z</time>
      </trkpt>
      <trkpt lat="45.38722" lon="6.6594">
        <ele>2218.85</ele>
        <time>2014-01-29T10:48:12Z</time>
      </trkpt>
      <trkpt lat="45.38684" lon="6.65959">
        <ele>2222.28</ele>
        <time>2014-01-29T10:48:23Z</time>
      </trkpt>
      <trkpt lat="45.38647" lon="6.65971">
        <ele>2231.57</ele>
        <time>2014-01-29T10:48:33Z</time>
      </trkpt>
      <trkpt lat="45.38609" lon="6.65989">
        <ele>2247</ele>
        <time>2014-01-29T10:48:44Z</time>
      </trkpt>
      <trkpt lat="45.38572" lon="6.66009">
        <ele>2254.46</ele>
        <time>2014-01-29T10:49:01Z</time>
      </trkpt>
      <trkpt lat="45.38543" lon="6.66041">
        <ele>2252.32</ele>
        <time>2014-01-29T10:49:18Z</time>
      </trkpt>
      <trkpt lat="45.38563" lon="6.66085">
        <ele>2251.03</ele>
        <time>2014-01-29T10:49:37Z</time>
      </trkpt>
      <trkpt lat="45.38551" lon="6.66141">
        <ele>2237.47</ele>
        <time>2014-01-29T10:49:44Z</time>
      </trkpt>
      <trkpt lat="45.38566" lon="6.66201">
        <ele>2232.98</ele>
        <time>2014-01-29T10:49:50Z</time>
      </trkpt>
      <trkpt lat="45.38594" lon="6.66238">
        <ele>2231.85</ele>
        <time>2014-01-29T10:49:56Z</time>
      </trkpt>
      <trkpt lat="45.38628" lon="6.66273">
        <ele>2230</ele>
        <time>2014-01-29T10:50:06Z</time>
      </trkpt>
      <trkpt lat="45.3864" lon="6.66322">
        <ele>2227.79</ele>
        <time>2014-01-29T10:50:48Z</time>
      </trkpt>
      <trkpt lat="45.38657" lon="6.66368">
        <ele>2217.59</ele>
        <time>2014-01-29T10:51:00Z</time>
      </trkpt>
      <trkpt lat="45.38655" lon="6.6642">
        <ele>2214.52</ele>
        <time>2014-01-29T10:51:11Z</time>
      </trkpt>
      <trkpt lat="45.38672" lon="6.66465">
        <ele>2202.03</ele>
        <time>2014-01-29T10:51:38Z</time>
      </trkpt>
      <trkpt lat="45.38706" lon="6.66483">
        <ele>2185.85</ele>
        <time>2014-01-29T10:52:01Z</time>
      </trkpt>
      <trkpt lat="45.38734" lon="6.66502">
        <ele>2170.56</ele>
        <time>2014-01-29T10:52:16Z</time>
      </trkpt>
      <trkpt lat="45.38764" lon="6.6653">
        <ele>2157.43</ele>
        <time>2014-01-29T10:52:39Z</time>
      </trkpt>
      <trkpt lat="45.38791" lon="6.66573">
        <ele>2143.15</ele>
        <time>2014-01-29T10:52:49Z</time>
      </trkpt>
      <trkpt lat="45.38829" lon="6.66594">
        <ele>2134.29</ele>
        <time>2014-01-29T10:53:00Z</time>
      </trkpt>
      <trkpt lat="45.38858" lon="6.66627">
        <ele>2127.55</ele>
        <time>2014-01-29T10:53:36Z</time>
      </trkpt>
      <trkpt lat="45.38894" lon="6.66658">
        <ele>2116.66</ele>
        <time>2014-01-29T10:53:46Z</time>
      </trkpt>
      <trkpt lat="45.38925" lon="6.66689">
        <ele>2101.3</ele>
        <time>2014-01-29T10:53:53Z</time>
      </trkpt>
      <trkpt lat="45.38955" lon="6.66728">
        <ele>2088.21</ele>
        <time>2014-01-29T10:54:00Z</time>
      </trkpt>
      <trkpt lat="45.38986" lon="6.66761">
        <ele>2075.11</ele>
        <time>2014-01-29T10:54:06Z</time>
      </trkpt>
      <trkpt lat="45.39024" lon="6.66789">
        <ele>2062.6</ele>
        <time>2014-01-29T10:54:13Z</time>
      </trkpt>
      <trkpt lat="45.39066" lon="6.66806">
        <ele>2054.36</ele>
        <time>2014-01-29T10:54:22Z</time>
      </trkpt>
      <trkpt lat="45.39107" lon="6.66807">
        <ele>2051.92</ele>
        <time>2014-01-29T10:56:27Z</time>
      </trkpt>
      <trkpt lat="45.39148" lon="6.668">
        <ele>2062.91</ele>
        <time>2014-01-29T10:57:29Z</time>
      </trkpt>
      <trkpt lat="45.39187" lon="6.6678">
        <ele>2061.66</ele>
        <time>2014-01-29T10:58:18Z</time>
      </trkpt>
      <trkpt lat="45.39225" lon="6.66764">
        <ele>2060.17</ele>
        <time>2014-01-29T10:59:53Z</time>
      </trkpt>
      <trkpt lat="45.39263" lon="6.66753">
        <ele>2042.46</ele>
        <time>2014-01-29T11:00:18Z</time>
      </trkpt>
      <trkpt lat="45.39301" lon="6.6676">
        <ele>2029.44</ele>
        <time>2014-01-29T11:01:02Z</time>
      </trkpt>
      <trkpt lat="45.39338" lon="6.66758">
        <ele>2014.24</ele>
        <time>2014-01-29T11:04:11Z</time>
      </trkpt>
      <trkpt lat="45.39365" lon="6.66734">
        <ele>2005.98</ele>
        <time>2014-01-29T11:05:45Z</time>
      </trkpt>
      <trkpt lat="45.39403" lon="6.66742">
        <ele>1980.16</ele>
        <time>2014-01-29T11:05:58Z</time>
      </trkpt>
      <trkpt lat="45.39441" lon="6.66758">
        <ele>1969.16</ele>
        <time>2014-01-29T11:06:09Z</time>
      </trkpt>
      <trkpt lat="45.39473" lon="6.66744">
        <ele>1958.43</ele>
        <time>2014-01-29T11:06:23Z</time>
      </trkpt>
      <trkpt lat="45.39509" lon="6.66729">
        <ele>1946.66</ele>
        <time>2014-01-29T11:06:41Z</time>
      </trkpt>
      <trkpt lat="45.39543" lon="6.66758">
        <ele>1942.31</ele>
        <time>2014-01-29T11:06:55Z</time>
      </trkpt>
      <trkpt lat="45.39576" lon="6.66787">
        <ele>1939.19</ele>
        <time>2014-01-29T11:07:14Z</time>
      </trkpt>
      <trkpt lat="45.39619" lon="6.66794">
        <ele>1927.48</ele>
        <time>2014-01-29T11:07:25Z</time>
      </trkpt>
      <trkpt lat="45.39652" lon="6.66819">
        <ele>1919.7</ele>
        <time>2014-01-29T11:07:33Z</time>
      </trkpt>
      <trkpt lat="45.39685" lon="6.66855">
        <ele>1916.15</ele>
        <time>2014-01-29T11:07:45Z</time>
      </trkpt>
      <trkpt lat="45.39724" lon="6.66887">
        <ele>1909.16</ele>
        <time>2014-01-29T11:07:55Z</time>
      </trkpt>
      <trkpt lat="45.39759" lon="6.66919">
        <ele>1904.74</ele>
        <time>2014-01-29T11:08:04Z</time>
      </trkpt>
      <trkpt lat="45.39798" lon="6.6691">
        <ele>1889.79</ele>
        <time>2014-01-29T11:08:14Z</time>
      </trkpt>
      <trkpt lat="45.3984" lon="6.66902">
        <ele>1876.75</ele>
        <time>2014-01-29T11:08:22Z</time>
      </trkpt>
      <trkpt lat="45.3987" lon="6.66874">
        <ele>1865.75</ele>
        <time>2014-01-29T11:08:32Z</time>
      </trkpt>
      <trkpt lat="45.39904" lon="6.66856">
        <ele>1854.83</ele>
        <time>2014-01-29T11:08:42Z</time>
      </trkpt>
      <trkpt lat="45.39933" lon="6.66833">
        <ele>1845.15</ele>
        <time>2014-01-29T11:08:49Z</time>
      </trkpt>
      <trkpt lat="45.39963" lon="6.66798">
        <ele>1832.3</ele>
        <time>2014-01-29T11:08:57Z</time>
      </trkpt>
      <trkpt lat="45.39995" lon="6.66771">
        <ele>1825.26</ele>
        <time>2014-01-29T11:09:08Z</time>
      </trkpt>
      <trkpt lat="45.4003" lon="6.66747">
        <ele>1812.1</ele>
        <time>2014-01-29T11:09:16Z</time>
      </trkpt>
      <trkpt lat="45.40039" lon="6.66688">
        <ele>1801.4</ele>
        <time>2014-01-29T11:09:22Z</time>
      </trkpt>
      <trkpt lat="45.4003" lon="6.66634">
        <ele>1801.04</ele>
        <time>2014-01-29T11:09:34Z</time>
      </trkpt>
      <trkpt lat="45.40002" lon="6.66668">
        <ele>1806.53</ele>
        <time>2014-01-29T11:11:44Z</time>
      </trkpt>
      <trkpt lat="45.39964" lon="6.66657">
        <ele>1813.77</ele>
        <time>2014-01-29T11:12:28Z</time>
      </trkpt>
      <trkpt lat="45.39927" lon="6.66644">
        <ele>1820.27</ele>
        <time>2014-01-29T11:12:46Z</time>
      </trkpt>
      <trkpt lat="45.39887" lon="6.66631">
        <ele>1829.67</ele>
        <time>2014-01-29T11:12:58Z</time>
      </trkpt>
      <trkpt lat="45.3985" lon="6.66618">
        <ele>1834.47</ele>
        <time>2014-01-29T11:13:08Z</time>
      </trkpt>
      <trkpt lat="45.39811" lon="6.66606">
        <ele>1844.7</ele>
        <time>2014-01-29T11:13:19Z</time>
      </trkpt>
      <trkpt lat="45.39773" lon="6.66592">
        <ele>1857.72</ele>
        <time>2014-01-29T11:13:29Z</time>
      </trkpt>
      <trkpt lat="45.39736" lon="6.66578">
        <ele>1873.75</ele>
        <time>2014-01-29T11:13:39Z</time>
      </trkpt>
      <trkpt lat="45.39699" lon="6.66567">
        <ele>1892.45</ele>
        <time>2014-01-29T11:13:50Z</time>
      </trkpt>
      <trkpt lat="45.39659" lon="6.66561">
        <ele>1913.54</ele>
        <time>2014-01-29T11:14:02Z</time>
      </trkpt>
      <trkpt lat="45.3962" lon="6.66561">
        <ele>1926.89</ele>
        <time>2014-01-29T11:14:14Z</time>
      </trkpt>
      <trkpt lat="45.39583" lon="6.66554">
        <ele>1939.13</ele>
        <time>2014-01-29T11:14:24Z</time>
      </trkpt>
      <trkpt lat="45.39545" lon="6.66543">
        <ele>1950.62</ele>
        <time>2014-01-29T11:14:34Z</time>
      </trkpt>
      <trkpt lat="45.3951" lon="6.66514">
        <ele>1961.13</ele>
        <time>2014-01-29T11:14:43Z</time>
      </trkpt>
      <trkpt lat="45.39475" lon="6.66491">
        <ele>1971.46</ele>
        <time>2014-01-29T11:14:51Z</time>
      </trkpt>
      <trkpt lat="45.39434" lon="6.66475">
        <ele>1981.16</ele>
        <time>2014-01-29T11:15:02Z</time>
      </trkpt>
      <trkpt lat="45.39396" lon="6.66459">
        <ele>1986.91</ele>
        <time>2014-01-29T11:15:14Z</time>
      </trkpt>
      <trkpt lat="45.39358" lon="6.66442">
        <ele>1992.65</ele>
        <time>2014-01-29T11:15:25Z</time>
      </trkpt>
      <trkpt lat="45.39318" lon="6.66426">
        <ele>2001.99</ele>
        <time>2014-01-29T11:15:35Z</time>
      </trkpt>
      <trkpt lat="45.39278" lon="6.66408">
        <ele>2014.5</ele>
        <time>2014-01-29T11:15:47Z</time>
      </trkpt>
      <trkpt lat="45.39242" lon="6.66381">
        <ele>2031.12</ele>
        <time>2014-01-29T11:16:00Z</time>
      </trkpt>
      <trkpt lat="45.39206" lon="6.66361">
        <ele>2046.41</ele>
        <time>2014-01-29T11:16:12Z</time>
      </trkpt>
      <trkpt lat="45.39171" lon="6.66345">
        <ele>2065.12</ele>
        <time>2014-01-29T11:16:22Z</time>
      </trkpt>
      <trkpt lat="45.39126" lon="6.66332">
        <ele>2086.58</ele>
        <time>2014-01-29T11:16:31Z</time>
      </trkpt>
      <trkpt lat="45.39088" lon="6.66322">
        <ele>2120.72</ele>
        <time>2014-01-29T11:16:43Z</time>
      </trkpt>
      <trkpt lat="45.3905" lon="6.66305">
        <ele>2153.54</ele>
        <time>2014-01-29T11:16:57Z</time>
      </trkpt>
      <trkpt lat="45.39013" lon="6.66294">
        <ele>2173.2</ele>
        <time>2014-01-29T11:17:07Z</time>
      </trkpt>
      <trkpt lat="45.38969" lon="6.663">
        <ele>2181</ele>
        <time>2014-01-29T11:17:16Z</time>
      </trkpt>
      <trkpt lat="45.38931" lon="6.66306">
        <ele>2188.28</ele>
        <time>2014-01-29T11:17:27Z</time>
      </trkpt>
      <trkpt lat="45.38894" lon="6.66305">
        <ele>2198.53</ele>
        <time>2014-01-29T11:17:35Z</time>
      </trkpt>
      <trkpt lat="45.38855" lon="6.66302">
        <ele>2198.17</ele>
        <time>2014-01-29T11:17:44Z</time>
      </trkpt>
      <trkpt lat="45.38814" lon="6.66294">
        <ele>2196.52</ele>
        <time>2014-01-29T11:17:53Z</time>
      </trkpt>
      <trkpt lat="45.38777" lon="6.66283">
        <ele>2197.85</ele>
        <time>2014-01-29T11:18:01Z</time>
      </trkpt>
      <trkpt lat="45.3874" lon="6.66266">
        <ele>2203.61</ele>
        <time>2014-01-29T11:18:12Z</time>
      </trkpt>
      <trkpt lat="45.38699" lon="6.66257">
        <ele>2214.69</ele>
        <time>2014-01-29T11:18:21Z</time>
      </trkpt>
      <trkpt lat="45.3866" lon="6.66243">
        <ele>2230.36</ele>
        <time>2014-01-29T11:18:32Z</time>
      </trkpt>
      <trkpt lat="45.3862" lon="6.66243">
        <ele>2231.54</ele>
        <time>2014-01-29T11:18:45Z</time>
      </trkpt>
      <trkpt lat="45.38582" lon="6.6624">
        <ele>2231.27</ele>
        <time>2014-01-29T11:18:58Z</time>
      </trkpt>
      <trkpt lat="45.38586" lon="6.66148">
        <ele>2242.41</ele>
        <time>2014-01-29T11:20:06Z</time>
      </trkpt>
      <trkpt lat="45.38598" lon="6.66095">
        <ele>2250</ele>
        <time>2014-01-29T11:20:37Z</time>
      </trkpt>
      <trkpt lat="45.38611" lon="6.66043">
        <ele>2252.85</ele>
        <time>2014-01-29T11:20:59Z</time>
      </trkpt>
      <trkpt lat="45.38622" lon="6.65984">
        <ele>2241.71</ele>
        <time>2014-01-29T11:21:11Z</time>
      </trkpt>
      <trkpt lat="45.38617" lon="6.65913">
        <ele>2225.55</ele>
        <time>2014-01-29T11:21:17Z</time>
      </trkpt>
      <trkpt lat="45.38614" lon="6.65853">
        <ele>2212.53</ele>
        <time>2014-01-29T11:21:23Z</time>
      </trkpt>
      <trkpt lat="45.38608" lon="6.65796">
        <ele>2202.54</ele>
        <time>2014-01-29T11:21:28Z</time>
      </trkpt>
      <trkpt lat="45.38611" lon="6.6573">
        <ele>2189.4</ele>
        <time>2014-01-29T11:21:32Z</time>
      </trkpt>
      <trkpt lat="45.38604" lon="6.65655">
        <ele>2174.7</ele>
        <time>2014-01-29T11:21:36Z</time>
      </trkpt>
      <trkpt lat="45.38621" lon="6.65588">
        <ele>2172.57</ele>
        <time>2014-01-29T11:21:40Z</time>
      </trkpt>
      <trkpt lat="45.38654" lon="6.65547">
        <ele>2173.61</ele>
        <time>2014-01-29T11:21:44Z</time>
      </trkpt>
      <trkpt lat="45.38686" lon="6.65515">
        <ele>2173.38</ele>
        <time>2014-01-29T11:21:48Z</time>
      </trkpt>
      <trkpt lat="45.38716" lon="6.65463">
        <ele>2170.55</ele>
        <time>2014-01-29T11:21:55Z</time>
      </trkpt>
      <trkpt lat="45.38728" lon="6.65412">
        <ele>2160.38</ele>
        <time>2014-01-29T11:23:04Z</time>
      </trkpt>
      <trkpt lat="45.38748" lon="6.6536">
        <ele>2143.41</ele>
        <time>2014-01-29T11:23:15Z</time>
      </trkpt>
      <trkpt lat="45.38767" lon="6.65298">
        <ele>2142.37</ele>
        <time>2014-01-29T11:23:21Z</time>
      </trkpt>
      <trkpt lat="45.38786" lon="6.65231">
        <ele>2130</ele>
        <time>2014-01-29T11:23:27Z</time>
      </trkpt>
      <trkpt lat="45.388" lon="6.65164">
        <ele>2125.43</ele>
        <time>2014-01-29T11:23:33Z</time>
      </trkpt>
      <trkpt lat="45.3881" lon="6.6511">
        <ele>2117.23</ele>
        <time>2014-01-29T11:23:41Z</time>
      </trkpt>
      <trkpt lat="45.38833" lon="6.65071">
        <ele>2108.23</ele>
        <time>2014-01-29T11:23:51Z</time>
      </trkpt>
      <trkpt lat="45.38868" lon="6.65035">
        <ele>2099.59</ele>
        <time>2014-01-29T11:23:58Z</time>
      </trkpt>
      <trkpt lat="45.38875" lon="6.64978">
        <ele>2090.78</ele>
        <time>2014-01-29T11:24:06Z</time>
      </trkpt>
      <trkpt lat="45.38893" lon="6.64928">
        <ele>2077.27</ele>
        <time>2014-01-29T11:24:14Z</time>
      </trkpt>
      <trkpt lat="45.3893" lon="6.64889">
        <ele>2047.22</ele>
        <time>2014-01-29T11:24:21Z</time>
      </trkpt>
      <trkpt lat="45.38959" lon="6.64851">
        <ele>2031.94</ele>
        <time>2014-01-29T11:24:27Z</time>
      </trkpt>
      <trkpt lat="45.38953" lon="6.64838">
        <ele>2025.84</ele>
        <time>2014-01-29T11:24:53Z</time>
      </trkpt>
      <trkpt lat="45.38918" lon="6.64849">
        <ele>2034.08</ele>
        <time>2014-01-29T11:25:01Z</time>
      </trkpt>
      <trkpt lat="45.38927" lon="6.64808">
        <ele>2016.5</ele>
        <time>2014-01-29T11:25:21Z</time>
      </trkpt>
      <trkpt lat="45.3892" lon="6.64743">
        <ele>2004.64</ele>
        <time>2014-01-29T11:25:30Z</time>
      </trkpt>
      <trkpt lat="45.38934" lon="6.64698">
        <ele>1992.72</ele>
        <time>2014-01-29T11:25:37Z</time>
      </trkpt>
      <trkpt lat="45.38968" lon="6.64664">
        <ele>1981.4</ele>
        <time>2014-01-29T11:25:45Z</time>
      </trkpt>
      <trkpt lat="45.39011" lon="6.64644">
        <ele>1969.35</ele>
        <time>2014-01-29T11:25:51Z</time>
      </trkpt>
      <trkpt lat="45.39051" lon="6.64647">
        <ele>1955.05</ele>
        <time>2014-01-29T11:25:59Z</time>
      </trkpt>
      <trkpt lat="45.39091" lon="6.64652">
        <ele>1942.9</ele>
        <time>2014-01-29T11:26:05Z</time>
      </trkpt>
      <trkpt lat="45.39137" lon="6.64646">
        <ele>1931.45</ele>
        <time>2014-01-29T11:26:11Z</time>
      </trkpt>
      <trkpt lat="45.39179" lon="6.64632">
        <ele>1921.97</ele>
        <time>2014-01-29T11:26:17Z</time>
      </trkpt>
      <trkpt lat="45.39221" lon="6.64613">
        <ele>1913.31</ele>
        <time>2014-01-29T11:26:24Z</time>
      </trkpt>
      <trkpt lat="45.39257" lon="6.64626">
        <ele>1904.75</ele>
        <time>2014-01-29T11:26:30Z</time>
      </trkpt>
      <trkpt lat="45.39294" lon="6.64613">
        <ele>1894.38</ele>
        <time>2014-01-29T11:26:52Z</time>
      </trkpt>
      <trkpt lat="45.39332" lon="6.64602">
        <ele>1888.99</ele>
        <time>2014-01-29T11:27:02Z</time>
      </trkpt>
      <trkpt lat="45.3937" lon="6.64584">
        <ele>1880.11</ele>
        <time>2014-01-29T11:27:12Z</time>
      </trkpt>
      <trkpt lat="45.39407" lon="6.6457">
        <ele>1871.5</ele>
        <time>2014-01-29T11:27:34Z</time>
      </trkpt>
      <trkpt lat="45.39407" lon="6.64526">
        <ele>1852.47</ele>
        <time>2014-01-29T11:28:17Z</time>
      </trkpt>
      <trkpt lat="45.3944" lon="6.64499">
        <ele>1843.12</ele>
        <time>2014-01-29T11:28:29Z</time>
      </trkpt>
      <trkpt lat="45.39478" lon="6.64486">
        <ele>1835.46</ele>
        <time>2014-01-29T11:28:40Z</time>
      </trkpt>
      <trkpt lat="45.39523" lon="6.64475">
        <ele>1823.69</ele>
        <time>2014-01-29T11:28:51Z</time>
      </trkpt>
      <trkpt lat="45.39563" lon="6.64481">
        <ele>1814.63</ele>
        <time>2014-01-29T11:28:58Z</time>
      </trkpt>
      <trkpt lat="45.396" lon="6.64465">
        <ele>1803.31</ele>
        <time>2014-01-29T11:29:07Z</time>
      </trkpt>
      <trkpt lat="45.39631" lon="6.64433">
        <ele>1790.94</ele>
        <time>2014-01-29T11:29:58Z</time>
      </trkpt>
      <trkpt lat="45.39651" lon="6.64386">
        <ele>1788.73</ele>
        <time>2014-01-29T11:30:08Z</time>
      </trkpt>
      <trkpt lat="45.39693" lon="6.64381">
        <ele>1781.51</ele>
        <time>2014-01-29T11:30:15Z</time>
      </trkpt>
      <trkpt lat="45.39734" lon="6.64364">
        <ele>1776.63</ele>
        <time>2014-01-29T11:30:21Z</time>
      </trkpt>
      <trkpt lat="45.39774" lon="6.64329">
        <ele>1775.98</ele>
        <time>2014-01-29T11:30:27Z</time>
      </trkpt>
      <trkpt lat="45.39819" lon="6.64305">
        <ele>1767.13</ele>
        <time>2014-01-29T11:30:33Z</time>
      </trkpt>
      <trkpt lat="45.39857" lon="6.64278">
        <ele>1768.65</ele>
        <time>2014-01-29T11:30:38Z</time>
      </trkpt>
      <trkpt lat="45.39898" lon="6.64264">
        <ele>1758.5</ele>
        <time>2014-01-29T11:30:43Z</time>
      </trkpt>
      <trkpt lat="45.39942" lon="6.64254">
        <ele>1750.64</ele>
        <time>2014-01-29T11:30:47Z</time>
      </trkpt>
      <trkpt lat="45.39987" lon="6.64244">
        <ele>1744.4</ele>
        <time>2014-01-29T11:30:51Z</time>
      </trkpt>
      <trkpt lat="45.40032" lon="6.64238">
        <ele>1737.83</ele>
        <time>2014-01-29T11:30:55Z</time>
      </trkpt>
      <trkpt lat="45.40075" lon="6.64244">
        <ele>1729.57</ele>
        <time>2014-01-29T11:30:59Z</time>
      </trkpt>
      <trkpt lat="45.40115" lon="6.64259">
        <ele>1720.58</ele>
        <time>2014-01-29T11:31:03Z</time>
      </trkpt>
      <trkpt lat="45.40151" lon="6.6428">
        <ele>1711.45</ele>
        <time>2014-01-29T11:31:07Z</time>
      </trkpt>
      <trkpt lat="45.40196" lon="6.64286">
        <ele>1711.59</ele>
        <time>2014-01-29T11:31:12Z</time>
      </trkpt>
      <trkpt lat="45.40244" lon="6.64293">
        <ele>1706.02</ele>
        <time>2014-01-29T11:31:18Z</time>
      </trkpt>
      <trkpt lat="45.40278" lon="6.64309">
        <ele>1696.17</ele>
        <time>2014-01-29T11:31:22Z</time>
      </trkpt>
      <trkpt lat="45.40325" lon="6.64342">
        <ele>1685.18</ele>
        <time>2014-01-29T11:31:28Z</time>
      </trkpt>
      <trkpt lat="45.40345" lon="6.64395">
        <ele>1671.76</ele>
        <time>2014-01-29T11:31:33Z</time>
      </trkpt>
      <trkpt lat="45.40382" lon="6.64409">
        <ele>1669.07</ele>
        <time>2014-01-29T11:31:37Z</time>
      </trkpt>
      <trkpt lat="45.40421" lon="6.64424">
        <ele>1658.73</ele>
        <time>2014-01-29T11:31:45Z</time>
      </trkpt>
      <trkpt lat="45.40459" lon="6.64409">
        <ele>1655.47</ele>
        <time>2014-01-29T11:34:08Z</time>
      </trkpt>
      <trkpt lat="45.40496" lon="6.64414">
        <ele>1650.28</ele>
        <time>2014-01-29T11:34:21Z</time>
      </trkpt>
      <trkpt lat="45.40532" lon="6.6443">
        <ele>1649.83</ele>
        <time>2014-01-29T11:34:35Z</time>
      </trkpt>
      <trkpt lat="45.4057" lon="6.64442">
        <ele>1649</ele>
        <time>2014-01-29T11:34:52Z</time>
      </trkpt>
      <trkpt lat="45.40599" lon="6.64479">
        <ele>1648.58</ele>
        <time>2014-01-29T11:35:16Z</time>
      </trkpt>
      <trkpt lat="45.40637" lon="6.64473">
        <ele>1645.29</ele>
        <time>2014-01-29T11:35:28Z</time>
      </trkpt>
      <trkpt lat="45.4068" lon="6.64453">
        <ele>1639.76</ele>
        <time>2014-01-29T11:35:36Z</time>
      </trkpt>
      <trkpt lat="45.40726" lon="6.64446">
        <ele>1632.14</ele>
        <time>2014-01-29T11:35:41Z</time>
      </trkpt>
      <trkpt lat="45.40766" lon="6.64439">
        <ele>1626.9</ele>
        <time>2014-01-29T11:35:45Z</time>
      </trkpt>
      <trkpt lat="45.40807" lon="6.64422">
        <ele>1625.3</ele>
        <time>2014-01-29T11:35:51Z</time>
      </trkpt>
      <trkpt lat="45.40854" lon="6.64411">
        <ele>1619.52</ele>
        <time>2014-01-29T11:35:57Z</time>
      </trkpt>
      <trkpt lat="45.409" lon="6.64416">
        <ele>1609.9</ele>
        <time>2014-01-29T11:36:03Z</time>
      </trkpt>
      <trkpt lat="45.40942" lon="6.64437">
        <ele>1601.09</ele>
        <time>2014-01-29T11:36:11Z</time>
      </trkpt>
      <trkpt lat="45.40978" lon="6.64445">
        <ele>1603.94</ele>
        <time>2014-01-29T11:36:19Z</time>
      </trkpt>
      <trkpt lat="45.41018" lon="6.64443">
        <ele>1604.88</ele>
        <time>2014-01-29T11:36:30Z</time>
      </trkpt>
      <trkpt lat="45.41059" lon="6.64433">
        <ele>1604.92</ele>
        <time>2014-01-29T11:36:40Z</time>
      </trkpt>
      <trkpt lat="45.41098" lon="6.64436">
        <ele>1599.6</ele>
        <time>2014-01-29T11:36:46Z</time>
      </trkpt>
      <trkpt lat="45.4114" lon="6.64448">
        <ele>1593.82</ele>
        <time>2014-01-29T11:36:52Z</time>
      </trkpt>
      <trkpt lat="45.41184" lon="6.64461">
        <ele>1586.27</ele>
        <time>2014-01-29T11:36:57Z</time>
      </trkpt>
      <trkpt lat="45.41226" lon="6.64476">
        <ele>1576.46</ele>
        <time>2014-01-29T11:37:01Z</time>
      </trkpt>
      <trkpt lat="45.41268" lon="6.64488">
        <ele>1570.13</ele>
        <time>2014-01-29T11:37:05Z</time>
      </trkpt>
      <trkpt lat="45.41306" lon="6.64485">
        <ele>1568.58</ele>
        <time>2014-01-29T11:37:09Z</time>
      </trkpt>
      <trkpt lat="45.41345" lon="6.64479">
        <ele>1563.31</ele>
        <time>2014-01-29T11:37:13Z</time>
      </trkpt>
      <trkpt lat="45.41387" lon="6.64471">
        <ele>1561.55</ele>
        <time>2014-01-29T11:37:17Z</time>
      </trkpt>
      <trkpt lat="45.41434" lon="6.64474">
        <ele>1551.58</ele>
        <time>2014-01-29T11:37:21Z</time>
      </trkpt>
      <trkpt lat="45.41472" lon="6.64478">
        <ele>1547.45</ele>
        <time>2014-01-29T11:37:26Z</time>
      </trkpt>
      <trkpt lat="45.41512" lon="6.64474">
        <ele>1548.37</ele>
        <time>2014-01-29T11:37:32Z</time>
      </trkpt>
      <trkpt lat="45.41553" lon="6.64469">
        <ele>1548.03</ele>
        <time>2014-01-29T11:37:41Z</time>
      </trkpt>
      <trkpt lat="45.41596" lon="6.64476">
        <ele>1540.85</ele>
        <time>2014-01-29T11:37:47Z</time>
      </trkpt>
      <trkpt lat="45.41638" lon="6.64472">
        <ele>1539.22</ele>
        <time>2014-01-29T11:37:52Z</time>
      </trkpt>
      <trkpt lat="45.41684" lon="6.64479">
        <ele>1522.67</ele>
        <time>2014-01-29T11:37:56Z</time>
      </trkpt>
      <trkpt lat="45.41726" lon="6.6447">
        <ele>1522.69</ele>
        <time>2014-01-29T11:38:01Z</time>
      </trkpt>
      <trkpt lat="45.41758" lon="6.6445">
        <ele>1525.82</ele>
        <time>2014-01-29T11:38:30Z</time>
      </trkpt>
      <trkpt lat="45.41798" lon="6.64438">
        <ele>1526.9</ele>
        <time>2014-01-29T11:39:10Z</time>
      </trkpt>
      <trkpt lat="45.4184" lon="6.6443">
        <ele>1527.67</ele>
        <time>2014-01-29T11:39:54Z</time>
      </trkpt>
      <trkpt lat="45.41879" lon="6.64426">
        <ele>1525.9</ele>
        <time>2014-01-29T11:40:04Z</time>
      </trkpt>
      <trkpt lat="45.41906" lon="6.64388">
        <ele>1534.76</ele>
        <time>2014-01-29T11:40:20Z</time>
      </trkpt>
      <trkpt lat="45.41943" lon="6.64378">
        <ele>1524.76</ele>
        <time>2014-01-29T11:40:29Z</time>
      </trkpt>
      <trkpt lat="45.41982" lon="6.64372">
        <ele>1515.09</ele>
        <time>2014-01-29T11:40:37Z</time>
      </trkpt>
      <trkpt lat="45.42013" lon="6.64327">
        <ele>1519</ele>
        <time>2014-01-29T11:40:53Z</time>
      </trkpt>
      <trkpt lat="45.4205" lon="6.64305">
        <ele>1515.21</ele>
        <time>2014-01-29T11:40:57Z</time>
      </trkpt>
      <trkpt lat="45.42096" lon="6.64304">
        <ele>1501.49</ele>
        <time>2014-01-29T11:41:01Z</time>
      </trkpt>
      <trkpt lat="45.42136" lon="6.64306">
        <ele>1494.34</ele>
        <time>2014-01-29T11:41:05Z</time>
      </trkpt>
      <trkpt lat="45.42156" lon="6.64249">
        <ele>1493.8</ele>
        <time>2014-01-29T11:45:39Z</time>
      </trkpt>
      <trkpt lat="45.42127" lon="6.64212">
        <ele>1507.26</ele>
        <time>2014-01-29T11:45:49Z</time>
      </trkpt>
      <trkpt lat="45.42095" lon="6.64183">
        <ele>1520.97</ele>
        <time>2014-01-29T11:46:02Z</time>
      </trkpt>
      <trkpt lat="45.42067" lon="6.64146">
        <ele>1533.09</ele>
        <time>2014-01-29T11:46:14Z</time>
      </trkpt>
      <trkpt lat="45.42035" lon="6.64116">
        <ele>1546.47</ele>
        <time>2014-01-29T11:46:28Z</time>
      </trkpt>
      <trkpt lat="45.42006" lon="6.64079">
        <ele>1560.39</ele>
        <time>2014-01-29T11:46:42Z</time>
      </trkpt>
      <trkpt lat="45.41972" lon="6.64049">
        <ele>1573.51</ele>
        <time>2014-01-29T11:46:57Z</time>
      </trkpt>
      <trkpt lat="45.41951" lon="6.64007">
        <ele>1589.12</ele>
        <time>2014-01-29T11:47:06Z</time>
      </trkpt>
      <trkpt lat="45.41934" lon="6.63954">
        <ele>1608.97</ele>
        <time>2014-01-29T11:47:13Z</time>
      </trkpt>
      <trkpt lat="45.41906" lon="6.63912">
        <ele>1629.9</ele>
        <time>2014-01-29T11:47:26Z</time>
      </trkpt>
      <trkpt lat="45.4188" lon="6.63873">
        <ele>1645.71</ele>
        <time>2014-01-29T11:47:38Z</time>
      </trkpt>
      <trkpt lat="45.41847" lon="6.63842">
        <ele>1657.73</ele>
        <time>2014-01-29T11:47:53Z</time>
      </trkpt>
      <trkpt lat="45.41814" lon="6.63811">
        <ele>1670.58</ele>
        <time>2014-01-29T11:48:08Z</time>
      </trkpt>
      <trkpt lat="45.41781" lon="6.63757">
        <ele>1686.83</ele>
        <time>2014-01-29T11:48:21Z</time>
      </trkpt>
      <trkpt lat="45.41762" lon="6.63711">
        <ele>1698.29</ele>
        <time>2014-01-29T11:48:28Z</time>
      </trkpt>
      <trkpt lat="45.41735" lon="6.6367">
        <ele>1708.79</ele>
        <time>2014-01-29T11:48:40Z</time>
      </trkpt>
      <trkpt lat="45.41709" lon="6.63632">
        <ele>1717.51</ele>
        <time>2014-01-29T11:48:51Z</time>
      </trkpt>
      <trkpt lat="45.41682" lon="6.63592">
        <ele>1727.12</ele>
        <time>2014-01-29T11:49:02Z</time>
      </trkpt>
      <trkpt lat="45.41658" lon="6.63552">
        <ele>1733.59</ele>
        <time>2014-01-29T11:49:13Z</time>
      </trkpt>
      <trkpt lat="45.41629" lon="6.63508">
        <ele>1740.23</ele>
        <time>2014-01-29T11:49:26Z</time>
      </trkpt>
      <trkpt lat="45.41601" lon="6.63467">
        <ele>1742.89</ele>
        <time>2014-01-29T11:49:37Z</time>
      </trkpt>
      <trkpt lat="45.41573" lon="6.63424">
        <ele>1744.68</ele>
        <time>2014-01-29T11:49:49Z</time>
      </trkpt>
      <trkpt lat="45.41546" lon="6.63386">
        <ele>1746.97</ele>
        <time>2014-01-29T11:50:00Z</time>
      </trkpt>
      <trkpt lat="45.41516" lon="6.63345">
        <ele>1750.75</ele>
        <time>2014-01-29T11:50:12Z</time>
      </trkpt>
      <trkpt lat="45.41495" lon="6.63304">
        <ele>1755.31</ele>
        <time>2014-01-29T11:50:25Z</time>
      </trkpt>
      <trkpt lat="45.41458" lon="6.63292">
        <ele>1762.53</ele>
        <time>2014-01-29T11:52:02Z</time>
      </trkpt>
      <trkpt lat="45.41487" lon="6.63314">
        <ele>1756.51</ele>
        <time>2014-01-29T11:53:18Z</time>
      </trkpt>
      <trkpt lat="45.41449" lon="6.63285">
        <ele>1764.09</ele>
        <time>2014-01-29T11:54:13Z</time>
      </trkpt>
      <trkpt lat="45.41413" lon="6.63263">
        <ele>1769.26</ele>
        <time>2014-01-29T11:54:19Z</time>
      </trkpt>
      <trkpt lat="45.41376" lon="6.63238">
        <ele>1776.58</ele>
        <time>2014-01-29T11:54:27Z</time>
      </trkpt>
      <trkpt lat="45.41338" lon="6.63208">
        <ele>1785.97</ele>
        <time>2014-01-29T11:54:36Z</time>
      </trkpt>
      <trkpt lat="45.41302" lon="6.63185">
        <ele>1799.59</ele>
        <time>2014-01-29T11:54:44Z</time>
      </trkpt>
      <trkpt lat="45.41268" lon="6.63161">
        <ele>1814.08</ele>
        <time>2014-01-29T11:54:52Z</time>
      </trkpt>
      <trkpt lat="45.41231" lon="6.63136">
        <ele>1823.85</ele>
        <time>2014-01-29T11:55:00Z</time>
      </trkpt>
      <trkpt lat="45.41193" lon="6.6311">
        <ele>1829.69</ele>
        <time>2014-01-29T11:55:08Z</time>
      </trkpt>
      <trkpt lat="45.41154" lon="6.63082">
        <ele>1825.51</ele>
        <time>2014-01-29T11:55:16Z</time>
      </trkpt>
      <trkpt lat="45.41118" lon="6.63057">
        <ele>1824.56</ele>
        <time>2014-01-29T11:55:24Z</time>
      </trkpt>
      <trkpt lat="45.41079" lon="6.63031">
        <ele>1827.01</ele>
        <time>2014-01-29T11:55:32Z</time>
      </trkpt>
      <trkpt lat="45.4104" lon="6.63005">
        <ele>1832.09</ele>
        <time>2014-01-29T11:55:40Z</time>
      </trkpt>
      <trkpt lat="45.41005" lon="6.62975">
        <ele>1838.27</ele>
        <time>2014-01-29T11:55:49Z</time>
      </trkpt>
      <trkpt lat="45.40969" lon="6.62948">
        <ele>1850.66</ele>
        <time>2014-01-29T11:55:57Z</time>
      </trkpt>
      <trkpt lat="45.40934" lon="6.62922">
        <ele>1854.33</ele>
        <time>2014-01-29T11:56:05Z</time>
      </trkpt>
      <trkpt lat="45.40898" lon="6.62897">
        <ele>1856.94</ele>
        <time>2014-01-29T11:56:13Z</time>
      </trkpt>
      <trkpt lat="45.40861" lon="6.62872">
        <ele>1861.45</ele>
        <time>2014-01-29T11:56:21Z</time>
      </trkpt>
      <trkpt lat="45.40823" lon="6.62846">
        <ele>1865.03</ele>
        <time>2014-01-29T11:56:29Z</time>
      </trkpt>
      <trkpt lat="45.40785" lon="6.62823">
        <ele>1868.45</ele>
        <time>2014-01-29T11:56:37Z</time>
      </trkpt>
      <trkpt lat="45.40751" lon="6.62795">
        <ele>1871.47</ele>
        <time>2014-01-29T11:56:45Z</time>
      </trkpt>
      <trkpt lat="45.40713" lon="6.62768">
        <ele>1872.86</ele>
        <time>2014-01-29T11:56:53Z</time>
      </trkpt>
      <trkpt lat="45.40675" lon="6.62747">
        <ele>1876.47</ele>
        <time>2014-01-29T11:57:01Z</time>
      </trkpt>
      <trkpt lat="45.40638" lon="6.62722">
        <ele>1878.14</ele>
        <time>2014-01-29T11:57:09Z</time>
      </trkpt>
      <trkpt lat="45.40603" lon="6.62697">
        <ele>1882.51</ele>
        <time>2014-01-29T11:57:17Z</time>
      </trkpt>
      <trkpt lat="45.40565" lon="6.62672">
        <ele>1885.65</ele>
        <time>2014-01-29T11:57:25Z</time>
      </trkpt>
      <trkpt lat="45.40527" lon="6.62646">
        <ele>1887.77</ele>
        <time>2014-01-29T11:57:34Z</time>
      </trkpt>
      <trkpt lat="45.40489" lon="6.6262">
        <ele>1891.37</ele>
        <time>2014-01-29T11:57:43Z</time>
      </trkpt>
      <trkpt lat="45.40455" lon="6.62596">
        <ele>1894.9</ele>
        <time>2014-01-29T11:57:51Z</time>
      </trkpt>
      <trkpt lat="45.4042" lon="6.62568">
        <ele>1897.49</ele>
        <time>2014-01-29T11:58:00Z</time>
      </trkpt>
      <trkpt lat="45.40384" lon="6.62542">
        <ele>1901.86</ele>
        <time>2014-01-29T11:58:09Z</time>
      </trkpt>
      <trkpt lat="45.40347" lon="6.62517">
        <ele>1907.39</ele>
        <time>2014-01-29T11:58:18Z</time>
      </trkpt>
      <trkpt lat="45.4031" lon="6.62493">
        <ele>1913.64</ele>
        <time>2014-01-29T11:58:27Z</time>
      </trkpt>
      <trkpt lat="45.40275" lon="6.62467">
        <ele>1919.59</ele>
        <time>2014-01-29T11:58:36Z</time>
      </trkpt>
      <trkpt lat="45.40243" lon="6.62442">
        <ele>1925.27</ele>
        <time>2014-01-29T11:58:44Z</time>
      </trkpt>
      <trkpt lat="45.40206" lon="6.62419">
        <ele>1932.65</ele>
        <time>2014-01-29T11:58:52Z</time>
      </trkpt>
      <trkpt lat="45.4017" lon="6.624">
        <ele>1942.04</ele>
        <time>2014-01-29T11:59:00Z</time>
      </trkpt>
      <trkpt lat="45.40133" lon="6.62376">
        <ele>1951.01</ele>
        <time>2014-01-29T11:59:08Z</time>
      </trkpt>
      <trkpt lat="45.40093" lon="6.62348">
        <ele>1960.1</ele>
        <time>2014-01-29T11:59:18Z</time>
      </trkpt>
      <trkpt lat="45.40056" lon="6.62322">
        <ele>1965.58</ele>
        <time>2014-01-29T11:59:27Z</time>
      </trkpt>
      <trkpt lat="45.40019" lon="6.62296">
        <ele>1972.47</ele>
        <time>2014-01-29T11:59:36Z</time>
      </trkpt>
      <trkpt lat="45.39982" lon="6.62272">
        <ele>1979.36</ele>
        <time>2014-01-29T11:59:46Z</time>
      </trkpt>
      <trkpt lat="45.39946" lon="6.62243">
        <ele>1987.28</ele>
        <time>2014-01-29T11:59:55Z</time>
      </trkpt>
      <trkpt lat="45.39911" lon="6.62218">
        <ele>1995.12</ele>
        <time>2014-01-29T12:00:03Z</time>
      </trkpt>
      <trkpt lat="45.39871" lon="6.62196">
        <ele>2004.52</ele>
        <time>2014-01-29T12:00:11Z</time>
      </trkpt>
      <trkpt lat="45.39834" lon="6.62166">
        <ele>2011.94</ele>
        <time>2014-01-29T12:00:21Z</time>
      </trkpt>
      <trkpt lat="45.39796" lon="6.62139">
        <ele>2022.97</ele>
        <time>2014-01-29T12:00:31Z</time>
      </trkpt>
      <trkpt lat="45.39757" lon="6.62116">
        <ele>2038.1</ele>
        <time>2014-01-29T12:00:40Z</time>
      </trkpt>
      <trkpt lat="45.39721" lon="6.62093">
        <ele>2052.85</ele>
        <time>2014-01-29T12:00:49Z</time>
      </trkpt>
      <trkpt lat="45.39682" lon="6.62067">
        <ele>2066.37</ele>
        <time>2014-01-29T12:00:58Z</time>
      </trkpt>
      <trkpt lat="45.39645" lon="6.62039">
        <ele>2075.35</ele>
        <time>2014-01-29T12:01:08Z</time>
      </trkpt>
      <trkpt lat="45.39614" lon="6.62008">
        <ele>2078.74</ele>
        <time>2014-01-29T12:01:44Z</time>
      </trkpt>
      <trkpt lat="45.39599" lon="6.61955">
        <ele>2082.52</ele>
        <time>2014-01-29T12:02:47Z</time>
      </trkpt>
      <trkpt lat="45.39637" lon="6.61946">
        <ele>2076.25</ele>
        <time>2014-01-29T12:03:04Z</time>
      </trkpt>
      <trkpt lat="45.39603" lon="6.6192">
        <ele>2083.74</ele>
        <time>2014-01-29T12:06:15Z</time>
      </trkpt>
      <trkpt lat="45.39566" lon="6.61891">
        <ele>2092.45</ele>
        <time>2014-01-29T12:06:23Z</time>
      </trkpt>
      <trkpt lat="45.39519" lon="6.61864">
        <ele>2098.49</ele>
        <time>2014-01-29T12:06:29Z</time>
      </trkpt>
      <trkpt lat="45.39474" lon="6.61829">
        <ele>2109.42</ele>
        <time>2014-01-29T12:06:33Z</time>
      </trkpt>
      <trkpt lat="45.39433" lon="6.61808">
        <ele>2126.37</ele>
        <time>2014-01-29T12:06:37Z</time>
      </trkpt>
      <trkpt lat="45.39395" lon="6.61789">
        <ele>2141.08</ele>
        <time>2014-01-29T12:06:41Z</time>
      </trkpt>
      <trkpt lat="45.39354" lon="6.61773">
        <ele>2160.97</ele>
        <time>2014-01-29T12:06:45Z</time>
      </trkpt>
      <trkpt lat="45.39318" lon="6.61761">
        <ele>2174.91</ele>
        <time>2014-01-29T12:06:49Z</time>
      </trkpt>
      <trkpt lat="45.3927" lon="6.61743">
        <ele>2190.4</ele>
        <time>2014-01-29T12:06:55Z</time>
      </trkpt>
      <trkpt lat="45.3923" lon="6.61727">
        <ele>2201.12</ele>
        <time>2014-01-29T12:07:00Z</time>
      </trkpt>
      <trkpt lat="45.39188" lon="6.61727">
        <ele>2229.6</ele>
        <time>2014-01-29T12:07:06Z</time>
      </trkpt>
      <trkpt lat="45.39143" lon="6.6172">
        <ele>2263.57</ele>
        <time>2014-01-29T12:07:13Z</time>
      </trkpt>
      <trkpt lat="45.39104" lon="6.61722">
        <ele>2295.63</ele>
        <time>2014-01-29T12:07:23Z</time>
      </trkpt>
      <trkpt lat="45.39063" lon="6.61715">
        <ele>2327.22</ele>
        <time>2014-01-29T12:07:28Z</time>
      </trkpt>
      <trkpt lat="45.39012" lon="6.61702">
        <ele>2359.25</ele>
        <time>2014-01-29T12:07:37Z</time>
      </trkpt>
      <trkpt lat="45.38939" lon="6.61652">
        <ele>2398.92</ele>
        <time>2014-01-29T12:07:41Z</time>
      </trkpt>
      <trkpt lat="45.38897" lon="6.61614">
        <ele>2422.07</ele>
        <time>2014-01-29T12:07:43Z</time>
      </trkpt>
      <trkpt lat="45.38854" lon="6.61571">
        <ele>2436.43</ele>
        <time>2014-01-29T12:07:46Z</time>
      </trkpt>
      <trkpt lat="45.38824" lon="6.61538">
        <ele>2434.53</ele>
        <time>2014-01-29T12:07:48Z</time>
      </trkpt>
      <trkpt lat="45.38786" lon="6.61486">
        <ele>2446.84</ele>
        <time>2014-01-29T12:07:52Z</time>
      </trkpt>
      <trkpt lat="45.38753" lon="6.61443">
        <ele>2454.2</ele>
        <time>2014-01-29T12:07:57Z</time>
      </trkpt>
      <trkpt lat="45.38717" lon="6.61421">
        <ele>2460.71</ele>
        <time>2014-01-29T12:08:03Z</time>
      </trkpt>
      <trkpt lat="45.38677" lon="6.614">
        <ele>2467.88</ele>
        <time>2014-01-29T12:08:09Z</time>
      </trkpt>
      <trkpt lat="45.38639" lon="6.61377">
        <ele>2471.26</ele>
        <time>2014-01-29T12:08:20Z</time>
      </trkpt>
      <trkpt lat="45.38595" lon="6.61355">
        <ele>2482.12</ele>
        <time>2014-01-29T12:08:25Z</time>
      </trkpt>
      <trkpt lat="45.38592" lon="6.61318">
        <ele>2481.27</ele>
        <time>2014-01-29T12:08:28Z</time>
      </trkpt>
      <trkpt lat="45.38566" lon="6.61262">
        <ele>2499.53</ele>
        <time>2014-01-29T12:08:31Z</time>
      </trkpt>
      <trkpt lat="45.38533" lon="6.6122">
        <ele>2526.63</ele>
        <time>2014-01-29T12:08:33Z</time>
      </trkpt>
      <trkpt lat="45.38485" lon="6.6117">
        <ele>2570.22</ele>
        <time>2014-01-29T12:08:37Z</time>
      </trkpt>
      <trkpt lat="45.38448" lon="6.61132">
        <ele>2610.22</ele>
        <time>2014-01-29T12:08:42Z</time>
      </trkpt>
      <trkpt lat="45.38406" lon="6.61101">
        <ele>2649.79</ele>
        <time>2014-01-29T12:08:48Z</time>
      </trkpt>
      <trkpt lat="45.38371" lon="6.61082">
        <ele>2683.51</ele>
        <time>2014-01-29T12:08:55Z</time>
      </trkpt>
      <trkpt lat="45.38331" lon="6.61058">
        <ele>2702.36</ele>
        <time>2014-01-29T12:09:10Z</time>
      </trkpt>
      <trkpt lat="45.38304" lon="6.61063">
        <ele>2689.01</ele>
        <time>2014-01-29T12:12:41Z</time>
      </trkpt>
      <trkpt lat="45.38262" lon="6.61049">
        <ele>2677.58</ele>
        <time>2014-01-29T12:12:51Z</time>
      </trkpt>
      <trkpt lat="45.38217" lon="6.61025">
        <ele>2677.07</ele>
        <time>2014-01-29T12:12:59Z</time>
      </trkpt>
      <trkpt lat="45.38171" lon="6.61018">
        <ele>2680.5</ele>
        <time>2014-01-29T12:13:07Z</time>
      </trkpt>
      <trkpt lat="45.38159" lon="6.6106">
        <ele>2670.19</ele>
        <time>2014-01-29T12:13:14Z</time>
      </trkpt>
      <trkpt lat="45.38175" lon="6.61113">
        <ele>2664.01</ele>
        <time>2014-01-29T12:13:18Z</time>
      </trkpt>
      <trkpt lat="45.38191" lon="6.61169">
        <ele>2662.52</ele>
        <time>2014-01-29T12:13:23Z</time>
      </trkpt>
      <trkpt lat="45.38209" lon="6.61225">
        <ele>2660.62</ele>
        <time>2014-01-29T12:13:33Z</time>
      </trkpt>
      <trkpt lat="45.38229" lon="6.61269">
        <ele>2646.22</ele>
        <time>2014-01-29T12:13:47Z</time>
      </trkpt>
      <trkpt lat="45.3822" lon="6.61323">
        <ele>2634.03</ele>
        <time>2014-01-29T12:13:56Z</time>
      </trkpt>
      <trkpt lat="45.38215" lon="6.6138">
        <ele>2634.51</ele>
        <time>2014-01-29T12:14:06Z</time>
      </trkpt>
      <trkpt lat="45.3824" lon="6.61367">
        <ele>2617.94</ele>
        <time>2014-01-29T12:14:16Z</time>
      </trkpt>
      <trkpt lat="45.3827" lon="6.6137">
        <ele>2604.29</ele>
        <time>2014-01-29T12:14:24Z</time>
      </trkpt>
      <trkpt lat="45.38308" lon="6.61357">
        <ele>2587</ele>
        <time>2014-01-29T12:14:32Z</time>
      </trkpt>
      <trkpt lat="45.38341" lon="6.61347">
        <ele>2575.98</ele>
        <time>2014-01-29T12:14:40Z</time>
      </trkpt>
      <trkpt lat="45.38379" lon="6.61343">
        <ele>2563.62</ele>
        <time>2014-01-29T12:14:48Z</time>
      </trkpt>
      <trkpt lat="45.3842" lon="6.6133">
        <ele>2548.96</ele>
        <time>2014-01-29T12:14:58Z</time>
      </trkpt>
      <trkpt lat="45.38459" lon="6.61337">
        <ele>2533.4</ele>
        <time>2014-01-29T12:15:05Z</time>
      </trkpt>
      <trkpt lat="45.38499" lon="6.61327">
        <ele>2520.11</ele>
        <time>2014-01-29T12:15:16Z</time>
      </trkpt>
      <trkpt lat="45.38536" lon="6.61326">
        <ele>2502.9</ele>
        <time>2014-01-29T12:15:25Z</time>
      </trkpt>
      <trkpt lat="45.38573" lon="6.61323">
        <ele>2487.9</ele>
        <time>2014-01-29T12:15:35Z</time>
      </trkpt>
      <trkpt lat="45.38616" lon="6.61325">
        <ele>2471.79</ele>
        <time>2014-01-29T12:15:43Z</time>
      </trkpt>
      <trkpt lat="45.38651" lon="6.61308">
        <ele>2458.36</ele>
        <time>2014-01-29T12:15:53Z</time>
      </trkpt>
      <trkpt lat="45.38685" lon="6.61283">
        <ele>2447.2</ele>
        <time>2014-01-29T12:15:59Z</time>
      </trkpt>
      <trkpt lat="45.38719" lon="6.61262">
        <ele>2436.7</ele>
        <time>2014-01-29T12:16:08Z</time>
      </trkpt>
      <trkpt lat="45.38765" lon="6.61268">
        <ele>2420.44</ele>
        <time>2014-01-29T12:16:14Z</time>
      </trkpt>
      <trkpt lat="45.38793" lon="6.61287">
        <ele>2411.4</ele>
        <time>2014-01-29T12:16:21Z</time>
      </trkpt>
      <trkpt lat="45.38817" lon="6.6132">
        <ele>2401.58</ele>
        <time>2014-01-29T12:16:30Z</time>
      </trkpt>
      <trkpt lat="45.38846" lon="6.61334">
        <ele>2388.91</ele>
        <time>2014-01-29T12:16:39Z</time>
      </trkpt>
      <trkpt lat="45.38883" lon="6.61337">
        <ele>2373.8</ele>
        <time>2014-01-29T12:16:48Z</time>
      </trkpt>
      <trkpt lat="45.38924" lon="6.6134">
        <ele>2358.28</ele>
        <time>2014-01-29T12:16:58Z</time>
      </trkpt>
      <trkpt lat="45.3896" lon="6.61365">
        <ele>2343.55</ele>
        <time>2014-01-29T12:17:14Z</time>
      </trkpt>
      <trkpt lat="45.38989" lon="6.61401">
        <ele>2327.58</ele>
        <time>2014-01-29T12:17:32Z</time>
      </trkpt>
      <trkpt lat="45.39012" lon="6.61451">
        <ele>2317.9</ele>
        <time>2014-01-29T12:17:40Z</time>
      </trkpt>
      <trkpt lat="45.39043" lon="6.61426">
        <ele>2296.82</ele>
        <time>2014-01-29T12:17:53Z</time>
      </trkpt>
      <trkpt lat="45.39088" lon="6.61411">
        <ele>2276.64</ele>
        <time>2014-01-29T12:18:03Z</time>
      </trkpt>
      <trkpt lat="45.39124" lon="6.61446">
        <ele>2269.9</ele>
        <time>2014-01-29T12:18:10Z</time>
      </trkpt>
      <trkpt lat="45.39152" lon="6.61481">
        <ele>2264.27</ele>
        <time>2014-01-29T12:18:16Z</time>
      </trkpt>
      <trkpt lat="45.39189" lon="6.61525">
        <ele>2253.99</ele>
        <time>2014-01-29T12:18:23Z</time>
      </trkpt>
      <trkpt lat="45.39221" lon="6.61552">
        <ele>2242.05</ele>
        <time>2014-01-29T12:18:32Z</time>
      </trkpt>
      <trkpt lat="45.3925" lon="6.61596">
        <ele>2217.68</ele>
        <time>2014-01-29T12:18:39Z</time>
      </trkpt>
      <trkpt lat="45.39285" lon="6.61622">
        <ele>2209.4</ele>
        <time>2014-01-29T12:18:47Z</time>
      </trkpt>
      <trkpt lat="45.39318" lon="6.6163">
        <ele>2201.13</ele>
        <time>2014-01-29T12:18:57Z</time>
      </trkpt>
      <trkpt lat="45.39358" lon="6.61623">
        <ele>2187.1</ele>
        <time>2014-01-29T12:19:08Z</time>
      </trkpt>
      <trkpt lat="45.39389" lon="6.61632">
        <ele>2170.48</ele>
        <time>2014-01-29T12:19:15Z</time>
      </trkpt>
      <trkpt lat="45.39414" lon="6.61668">
        <ele>2160.91</ele>
        <time>2014-01-29T12:19:24Z</time>
      </trkpt>
      <trkpt lat="45.3943" lon="6.61728">
        <ele>2147.5</ele>
        <time>2014-01-29T12:19:30Z</time>
      </trkpt>
      <trkpt lat="45.39471" lon="6.61738">
        <ele>2131.9</ele>
        <time>2014-01-29T12:19:36Z</time>
      </trkpt>
      <trkpt lat="45.39507" lon="6.6177">
        <ele>2118.17</ele>
        <time>2014-01-29T12:19:45Z</time>
      </trkpt>
      <trkpt lat="45.39536" lon="6.61808">
        <ele>2103.71</ele>
        <time>2014-01-29T12:19:52Z</time>
      </trkpt>
      <trkpt lat="45.39573" lon="6.61814">
        <ele>2097.52</ele>
        <time>2014-01-29T12:19:57Z</time>
      </trkpt>
      <trkpt lat="45.39603" lon="6.61846">
        <ele>2089.18</ele>
        <time>2014-01-29T12:20:03Z</time>
      </trkpt>
      <trkpt lat="45.39635" lon="6.61869">
        <ele>2080.45</ele>
        <time>2014-01-29T12:20:09Z</time>
      </trkpt>
      <trkpt lat="45.39673" lon="6.61862">
        <ele>2074.33</ele>
        <time>2014-01-29T12:20:15Z</time>
      </trkpt>
      <trkpt lat="45.39704" lon="6.61909">
        <ele>2064.38</ele>
        <time>2014-01-29T12:20:22Z</time>
      </trkpt>
      <trkpt lat="45.39743" lon="6.61915">
        <ele>2054.92</ele>
        <time>2014-01-29T12:20:28Z</time>
      </trkpt>
      <trkpt lat="45.3977" lon="6.61958">
        <ele>2044.27</ele>
        <time>2014-01-29T12:20:35Z</time>
      </trkpt>
      <trkpt lat="45.39804" lon="6.6198">
        <ele>2032.7</ele>
        <time>2014-01-29T12:20:41Z</time>
      </trkpt>
      <trkpt lat="45.39823" lon="6.62025">
        <ele>2024.08</ele>
        <time>2014-01-29T12:20:47Z</time>
      </trkpt>
      <trkpt lat="45.39847" lon="6.62052">
        <ele>2015.76</ele>
        <time>2014-01-29T12:20:52Z</time>
      </trkpt>
      <trkpt lat="45.39876" lon="6.62093">
        <ele>2006.53</ele>
        <time>2014-01-29T12:20:57Z</time>
      </trkpt>
      <trkpt lat="45.39914" lon="6.62127">
        <ele>1996.21</ele>
        <time>2014-01-29T12:21:02Z</time>
      </trkpt>
      <trkpt lat="45.39956" lon="6.62147">
        <ele>1985.98</ele>
        <time>2014-01-29T12:21:07Z</time>
      </trkpt>
      <trkpt lat="45.39991" lon="6.62186">
        <ele>1977.22</ele>
        <time>2014-01-29T12:21:11Z</time>
      </trkpt>
      <trkpt lat="45.40031" lon="6.62223">
        <ele>1968.4</ele>
        <time>2014-01-29T12:21:15Z</time>
      </trkpt>
      <trkpt lat="45.4007" lon="6.62259">
        <ele>1961.43</ele>
        <time>2014-01-29T12:21:19Z</time>
      </trkpt>
      <trkpt lat="45.40118" lon="6.62294">
        <ele>1951.16</ele>
        <time>2014-01-29T12:21:23Z</time>
      </trkpt>
      <trkpt lat="45.4016" lon="6.6234">
        <ele>1941.26</ele>
        <time>2014-01-29T12:21:27Z</time>
      </trkpt>
      <trkpt lat="45.40199" lon="6.62396">
        <ele>1934.09</ele>
        <time>2014-01-29T12:21:31Z</time>
      </trkpt>
      <trkpt lat="45.40227" lon="6.62442">
        <ele>1928.12</ele>
        <time>2014-01-29T12:21:35Z</time>
      </trkpt>
      <trkpt lat="45.40258" lon="6.62482">
        <ele>1923.75</ele>
        <time>2014-01-29T12:21:39Z</time>
      </trkpt>
      <trkpt lat="45.40289" lon="6.62523">
        <ele>1917.44</ele>
        <time>2014-01-29T12:21:43Z</time>
      </trkpt>
      <trkpt lat="45.40321" lon="6.62561">
        <ele>1912.43</ele>
        <time>2014-01-29T12:21:47Z</time>
      </trkpt>
      <trkpt lat="45.40348" lon="6.62596">
        <ele>1907.91</ele>
        <time>2014-01-29T12:21:51Z</time>
      </trkpt>
      <trkpt lat="45.40386" lon="6.62631">
        <ele>1900.27</ele>
        <time>2014-01-29T12:21:55Z</time>
      </trkpt>
      <trkpt lat="45.40423" lon="6.62663">
        <ele>1894.17</ele>
        <time>2014-01-29T12:21:59Z</time>
      </trkpt>
      <trkpt lat="45.4046" lon="6.62685">
        <ele>1889.25</ele>
        <time>2014-01-29T12:22:03Z</time>
      </trkpt>
      <trkpt lat="45.40495" lon="6.62707">
        <ele>1885.55</ele>
        <time>2014-01-29T12:22:07Z</time>
      </trkpt>
      <trkpt lat="45.40536" lon="6.62734">
        <ele>1881.12</ele>
        <time>2014-01-29T12:22:12Z</time>
      </trkpt>
      <trkpt lat="45.40569" lon="6.62759">
        <ele>1876.18</ele>
        <time>2014-01-29T12:22:16Z</time>
      </trkpt>
      <trkpt lat="45.406" lon="6.62793">
        <ele>1870.46</ele>
        <time>2014-01-29T12:22:20Z</time>
      </trkpt>
      <trkpt lat="45.40629" lon="6.62831">
        <ele>1867.78</ele>
        <time>2014-01-29T12:22:24Z</time>
      </trkpt>
      <trkpt lat="45.40667" lon="6.62868">
        <ele>1863.48</ele>
        <time>2014-01-29T12:22:30Z</time>
      </trkpt>
      <trkpt lat="45.40706" lon="6.62893">
        <ele>1861.3</ele>
        <time>2014-01-29T12:22:36Z</time>
      </trkpt>
      <trkpt lat="45.40749" lon="6.62909">
        <ele>1857.34</ele>
        <time>2014-01-29T12:22:42Z</time>
      </trkpt>
      <trkpt lat="45.40791" lon="6.62925">
        <ele>1854.44</ele>
        <time>2014-01-29T12:22:48Z</time>
      </trkpt>
      <trkpt lat="45.40832" lon="6.62943">
        <ele>1850.24</ele>
        <time>2014-01-29T12:22:54Z</time>
      </trkpt>
      <trkpt lat="45.4087" lon="6.62964">
        <ele>1849.08</ele>
        <time>2014-01-29T12:23:02Z</time>
      </trkpt>
      <trkpt lat="45.40908" lon="6.6298">
        <ele>1848.35</ele>
        <time>2014-01-29T12:23:10Z</time>
      </trkpt>
      <trkpt lat="45.40947" lon="6.62993">
        <ele>1848</ele>
        <time>2014-01-29T12:23:17Z</time>
      </trkpt>
      <trkpt lat="45.40987" lon="6.63009">
        <ele>1844.23</ele>
        <time>2014-01-29T12:23:23Z</time>
      </trkpt>
      <trkpt lat="45.41022" lon="6.63031">
        <ele>1838.3</ele>
        <time>2014-01-29T12:23:27Z</time>
      </trkpt>
      <trkpt lat="45.41062" lon="6.63052">
        <ele>1832.95</ele>
        <time>2014-01-29T12:23:31Z</time>
      </trkpt>
      <trkpt lat="45.41102" lon="6.63055">
        <ele>1826.14</ele>
        <time>2014-01-29T12:23:35Z</time>
      </trkpt>
      <trkpt lat="45.41141" lon="6.63067">
        <ele>1823.95</ele>
        <time>2014-01-29T12:23:39Z</time>
      </trkpt>
      <trkpt lat="45.41184" lon="6.6307">
        <ele>1821.15</ele>
        <time>2014-01-29T12:23:44Z</time>
      </trkpt>
      <trkpt lat="45.41229" lon="6.6308">
        <ele>1816.24</ele>
        <time>2014-01-29T12:23:49Z</time>
      </trkpt>
      <trkpt lat="45.4127" lon="6.63096">
        <ele>1803.73</ele>
        <time>2014-01-29T12:23:53Z</time>
      </trkpt>
      <trkpt lat="45.4131" lon="6.63129">
        <ele>1792.4</ele>
        <time>2014-01-29T12:23:57Z</time>
      </trkpt>
      <trkpt lat="45.41335" lon="6.63193">
        <ele>1785.37</ele>
        <time>2014-01-29T12:24:01Z</time>
      </trkpt>
      <trkpt lat="45.41368" lon="6.63242">
        <ele>1778.3</ele>
        <time>2014-01-29T12:24:05Z</time>
      </trkpt>
      <trkpt lat="45.41406" lon="6.63264">
        <ele>1770.45</ele>
        <time>2014-01-29T12:24:09Z</time>
      </trkpt>
      <trkpt lat="45.41443" lon="6.63266">
        <ele>1765.57</ele>
        <time>2014-01-29T12:24:13Z</time>
      </trkpt>
      <trkpt lat="45.4149" lon="6.63262">
        <ele>1758.68</ele>
        <time>2014-01-29T12:24:19Z</time>
      </trkpt>
      <trkpt lat="45.41533" lon="6.63259">
        <ele>1753.06</ele>
        <time>2014-01-29T12:24:25Z</time>
      </trkpt>
      <trkpt lat="45.41573" lon="6.633">
        <ele>1745.04</ele>
        <time>2014-01-29T12:24:31Z</time>
      </trkpt>
      <trkpt lat="45.41606" lon="6.63334">
        <ele>1738.7</ele>
        <time>2014-01-29T12:24:36Z</time>
      </trkpt>
      <trkpt lat="45.41647" lon="6.63361">
        <ele>1730.61</ele>
        <time>2014-01-29T12:24:40Z</time>
      </trkpt>
      <trkpt lat="45.41694" lon="6.63377">
        <ele>1724.07</ele>
        <time>2014-01-29T12:24:44Z</time>
      </trkpt>
      <trkpt lat="45.41732" lon="6.63367">
        <ele>1717.46</ele>
        <time>2014-01-29T12:24:48Z</time>
      </trkpt>
      <trkpt lat="45.4178" lon="6.63338">
        <ele>1716.67</ele>
        <time>2014-01-29T12:24:54Z</time>
      </trkpt>
      <trkpt lat="45.41816" lon="6.63297">
        <ele>1718.61</ele>
        <time>2014-01-29T12:25:00Z</time>
      </trkpt>
      <trkpt lat="45.41858" lon="6.63274">
        <ele>1711.96</ele>
        <time>2014-01-29T12:25:06Z</time>
      </trkpt>
      <trkpt lat="45.41896" lon="6.6326">
        <ele>1706.76</ele>
        <time>2014-01-29T12:25:12Z</time>
      </trkpt>
      <trkpt lat="45.41935" lon="6.63245">
        <ele>1707.18</ele>
        <time>2014-01-29T12:25:18Z</time>
      </trkpt>
      <trkpt lat="45.41973" lon="6.63215">
        <ele>1703.66</ele>
        <time>2014-01-29T12:25:24Z</time>
      </trkpt>
      <trkpt lat="45.42017" lon="6.63198">
        <ele>1692.55</ele>
        <time>2014-01-29T12:25:29Z</time>
      </trkpt>
      <trkpt lat="45.42063" lon="6.63185">
        <ele>1684.24</ele>
        <time>2014-01-29T12:25:34Z</time>
      </trkpt>
      <trkpt lat="45.421" lon="6.63157">
        <ele>1682.89</ele>
        <time>2014-01-29T12:25:40Z</time>
      </trkpt>
      <trkpt lat="45.42142" lon="6.63161">
        <ele>1673.83</ele>
        <time>2014-01-29T12:25:47Z</time>
      </trkpt>
      <trkpt lat="45.42181" lon="6.63194">
        <ele>1657.79</ele>
        <time>2014-01-29T12:25:54Z</time>
      </trkpt>
      <trkpt lat="45.42209" lon="6.63235">
        <ele>1646.43</ele>
        <time>2014-01-29T12:26:00Z</time>
      </trkpt>
      <trkpt lat="45.4224" lon="6.63268">
        <ele>1633.64</ele>
        <time>2014-01-29T12:26:07Z</time>
      </trkpt>
      <trkpt lat="45.42263" lon="6.63301">
        <ele>1621.01</ele>
        <time>2014-01-29T12:26:15Z</time>
      </trkpt>
      <trkpt lat="45.42309" lon="6.63293">
        <ele>1606.23</ele>
        <time>2014-01-29T12:26:22Z</time>
      </trkpt>
      <trkpt lat="45.42344" lon="6.63327">
        <ele>1587.56</ele>
        <time>2014-01-29T12:26:30Z</time>
      </trkpt>
      <trkpt lat="45.4238" lon="6.63361">
        <ele>1570.13</ele>
        <time>2014-01-29T12:26:36Z</time>
      </trkpt>
      <trkpt lat="45.42421" lon="6.63375">
        <ele>1558.16</ele>
        <time>2014-01-29T12:26:42Z</time>
      </trkpt>
      <trkpt lat="45.42464" lon="6.63378">
        <ele>1545.13</ele>
        <time>2014-01-29T12:26:47Z</time>
      </trkpt>
      <trkpt lat="45.42497" lon="6.63342">
        <ele>1532.44</ele>
        <time>2014-01-29T12:26:53Z</time>
      </trkpt>
      <trkpt lat="45.42514" lon="6.63292">
        <ele>1516.46</ele>
        <time>2014-01-29T12:27:01Z</time>
      </trkpt>
      <trkpt lat="45.42539" lon="6.63244">
        <ele>1505.89</ele>
        <time>2014-01-29T12:27:06Z</time>
      </trkpt>
      <trkpt lat="45.42587" lon="6.63232">
        <ele>1486.3</ele>
        <time>2014-01-29T12:27:13Z</time>
      </trkpt>
      <trkpt lat="45.42624" lon="6.63197">
        <ele>1476.06</ele>
        <time>2014-01-29T12:27:22Z</time>
      </trkpt>
      <trkpt lat="45.42663" lon="6.63177">
        <ele>1457.21</ele>
        <time>2014-01-29T12:27:28Z</time>
      </trkpt>
      <trkpt lat="45.42701" lon="6.63145">
        <ele>1439.25</ele>
        <time>2014-01-29T12:27:35Z</time>
      </trkpt>
      <trkpt lat="45.4272" lon="6.63082">
        <ele>1423.57</ele>
        <time>2014-01-29T12:27:42Z</time>
      </trkpt>
      <trkpt lat="45.42737" lon="6.6302">
        <ele>1419.61</ele>
        <time>2014-01-29T12:27:49Z</time>
      </trkpt>
      <trkpt lat="45.42747" lon="6.62958">
        <ele>1420.43</ele>
        <time>2014-01-29T12:27:55Z</time>
      </trkpt>
      <trkpt lat="45.42763" lon="6.62902">
        <ele>1406.6</ele>
        <time>2014-01-29T12:28:02Z</time>
      </trkpt>
      <trkpt lat="45.42773" lon="6.62848">
        <ele>1397.61</ele>
        <time>2014-01-29T12:28:06Z</time>
      </trkpt>
      <trkpt lat="45.42791" lon="6.62799">
        <ele>1391.26</ele>
        <time>2014-01-29T12:28:10Z</time>
      </trkpt>
      <trkpt lat="45.42814" lon="6.62745">
        <ele>1384.92</ele>
        <time>2014-01-29T12:28:15Z</time>
      </trkpt>
      <trkpt lat="45.42833" lon="6.62697">
        <ele>1377.85</ele>
        <time>2014-01-29T12:28:19Z</time>
      </trkpt>
      <trkpt lat="45.42868" lon="6.62659">
        <ele>1365.01</ele>
        <time>2014-01-29T12:28:24Z</time>
      </trkpt>
      <trkpt lat="45.42903" lon="6.62631">
        <ele>1348.98</ele>
        <time>2014-01-29T12:28:28Z</time>
      </trkpt>
      <trkpt lat="45.42949" lon="6.62602">
        <ele>1333.2</ele>
        <time>2014-01-29T12:28:32Z</time>
      </trkpt>
      <trkpt lat="45.42969" lon="6.62544">
        <ele>1330.83</ele>
        <time>2014-01-29T12:28:37Z</time>
      </trkpt>
      <trkpt lat="45.42989" lon="6.62486">
        <ele>1326.25</ele>
        <time>2014-01-29T12:28:42Z</time>
      </trkpt>
      <trkpt lat="45.4301" lon="6.62436">
        <ele>1316.03</ele>
        <time>2014-01-29T12:28:46Z</time>
      </trkpt>
      <trkpt lat="45.43005" lon="6.6237">
        <ele>1309.35</ele>
        <time>2014-01-29T12:28:50Z</time>
      </trkpt>
      <trkpt lat="45.42995" lon="6.62312">
        <ele>1308.37</ele>
        <time>2014-01-29T12:28:54Z</time>
      </trkpt>
      <trkpt lat="45.43006" lon="6.62259">
        <ele>1296</ele>
        <time>2014-01-29T12:28:58Z</time>
      </trkpt>
      <trkpt lat="45.43025" lon="6.62207">
        <ele>1289.31</ele>
        <time>2014-01-29T12:29:02Z</time>
      </trkpt>
      <trkpt lat="45.43045" lon="6.62159">
        <ele>1279.55</ele>
        <time>2014-01-29T12:29:06Z</time>
      </trkpt>
      <trkpt lat="45.43055" lon="6.62102">
        <ele>1274.05</ele>
        <time>2014-01-29T12:29:10Z</time>
      </trkpt>
      <trkpt lat="45.43085" lon="6.62062">
        <ele>1265.29</ele>
        <time>2014-01-29T12:29:14Z</time>
      </trkpt>
      <trkpt lat="45.4312" lon="6.62016">
        <ele>1261.9</ele>
        <time>2014-01-29T12:29:21Z</time>
      </trkpt>
      <trkpt lat="45.43144" lon="6.61973">
        <ele>1260</ele>
        <time>2014-01-29T12:29:28Z</time>
      </trkpt>
      <trkpt lat="45.43182" lon="6.61985">
        <ele>1259.74</ele>
        <time>2014-01-29T12:29:40Z</time>
      </trkpt>
      <trkpt lat="45.43171" lon="6.62018">
        <ele>1259.86</ele>
        <time>2014-01-29T12:31:40Z</time>
      </trkpt>
      <trkpt lat="45.43133" lon="6.62013">
        <ele>1260.65</ele>
        <time>2014-01-29T12:32:36Z</time>
      </trkpt>
      <trkpt lat="45.43094" lon="6.62006">
        <ele>1269.78</ele>
        <time>2014-01-29T12:32:47Z</time>
      </trkpt>
      <trkpt lat="45.43054" lon="6.61998">
        <ele>1293.54</ele>
        <time>2014-01-29T12:32:58Z</time>
      </trkpt>
      <trkpt lat="45.43013" lon="6.61991">
        <ele>1329.95</ele>
        <time>2014-01-29T12:33:10Z</time>
      </trkpt>
      <trkpt lat="45.42972" lon="6.61989">
        <ele>1352.3</ele>
        <time>2014-01-29T12:33:22Z</time>
      </trkpt>
      <trkpt lat="45.42926" lon="6.61988">
        <ele>1366.08</ele>
        <time>2014-01-29T12:33:32Z</time>
      </trkpt>
      <trkpt lat="45.42886" lon="6.61987">
        <ele>1372.76</ele>
        <time>2014-01-29T12:33:44Z</time>
      </trkpt>
      <trkpt lat="45.42851" lon="6.61966">
        <ele>1377.4</ele>
        <time>2014-01-29T12:34:00Z</time>
      </trkpt>
      <trkpt lat="45.42814" lon="6.6196">
        <ele>1385.79</ele>
        <time>2014-01-29T12:34:10Z</time>
      </trkpt>
      <trkpt lat="45.42773" lon="6.61953">
        <ele>1411.94</ele>
        <time>2014-01-29T12:34:20Z</time>
      </trkpt>
      <trkpt lat="45.42734" lon="6.61955">
        <ele>1441.4</ele>
        <time>2014-01-29T12:34:29Z</time>
      </trkpt>
      <trkpt lat="45.42692" lon="6.61954">
        <ele>1476.19</ele>
        <time>2014-01-29T12:34:39Z</time>
      </trkpt>
      <trkpt lat="45.42657" lon="6.61932">
        <ele>1513.2</ele>
        <time>2014-01-29T12:34:52Z</time>
      </trkpt>
      <trkpt lat="45.4262" lon="6.61922">
        <ele>1544.71</ele>
        <time>2014-01-29T12:35:08Z</time>
      </trkpt>
      <trkpt lat="45.4258" lon="6.61917">
        <ele>1571.64</ele>
        <time>2014-01-29T12:35:23Z</time>
      </trkpt>
      <trkpt lat="45.42541" lon="6.61925">
        <ele>1594.5</ele>
        <time>2014-01-29T12:35:37Z</time>
      </trkpt>
      <trkpt lat="45.42501" lon="6.61933">
        <ele>1610.8</ele>
        <time>2014-01-29T12:35:47Z</time>
      </trkpt>
      <trkpt lat="45.42463" lon="6.61922">
        <ele>1625.44</ele>
        <time>2014-01-29T12:35:57Z</time>
      </trkpt>
      <trkpt lat="45.42431" lon="6.61895">
        <ele>1646.98</ele>
        <time>2014-01-29T12:36:13Z</time>
      </trkpt>
      <trkpt lat="45.42393" lon="6.61889">
        <ele>1676.65</ele>
        <time>2014-01-29T12:36:30Z</time>
      </trkpt>
      <trkpt lat="45.42357" lon="6.61877">
        <ele>1694.48</ele>
        <time>2014-01-29T12:36:43Z</time>
      </trkpt>
      <trkpt lat="45.42321" lon="6.61868">
        <ele>1713.12</ele>
        <time>2014-01-29T12:36:54Z</time>
      </trkpt>
      <trkpt lat="45.42282" lon="6.61869">
        <ele>1729.16</ele>
        <time>2014-01-29T12:37:07Z</time>
      </trkpt>
      <trkpt lat="45.42246" lon="6.61854">
        <ele>1741.69</ele>
        <time>2014-01-29T12:37:18Z</time>
      </trkpt>
      <trkpt lat="45.42206" lon="6.6185">
        <ele>1769.29</ele>
        <time>2014-01-29T12:37:30Z</time>
      </trkpt>
      <trkpt lat="45.42168" lon="6.6184">
        <ele>1792.06</ele>
        <time>2014-01-29T12:37:41Z</time>
      </trkpt>
      <trkpt lat="45.42127" lon="6.6183">
        <ele>1805.92</ele>
        <time>2014-01-29T12:37:52Z</time>
      </trkpt>
      <trkpt lat="45.42089" lon="6.61819">
        <ele>1826.28</ele>
        <time>2014-01-29T12:38:06Z</time>
      </trkpt>
      <trkpt lat="45.42049" lon="6.61824">
        <ele>1850.56</ele>
        <time>2014-01-29T12:38:16Z</time>
      </trkpt>
      <trkpt lat="45.4201" lon="6.61818">
        <ele>1871.9</ele>
        <time>2014-01-29T12:38:29Z</time>
      </trkpt>
      <trkpt lat="45.41973" lon="6.61807">
        <ele>1894.42</ele>
        <time>2014-01-29T12:38:41Z</time>
      </trkpt>
      <trkpt lat="45.41934" lon="6.61798">
        <ele>1915.39</ele>
        <time>2014-01-29T12:38:55Z</time>
      </trkpt>
      <trkpt lat="45.41893" lon="6.61794">
        <ele>1938.24</ele>
        <time>2014-01-29T12:39:07Z</time>
      </trkpt>
      <trkpt lat="45.41857" lon="6.61801">
        <ele>1952.32</ele>
        <time>2014-01-29T12:39:15Z</time>
      </trkpt>
      <trkpt lat="45.41819" lon="6.61793">
        <ele>1980.81</ele>
        <time>2014-01-29T12:39:31Z</time>
      </trkpt>
      <trkpt lat="45.41792" lon="6.61752">
        <ele>2001.28</ele>
        <time>2014-01-29T12:39:44Z</time>
      </trkpt>
      <trkpt lat="45.4175" lon="6.61758">
        <ele>2024.83</ele>
        <time>2014-01-29T12:39:56Z</time>
      </trkpt>
      <trkpt lat="45.41706" lon="6.61767">
        <ele>2036.96</ele>
        <time>2014-01-29T12:40:03Z</time>
      </trkpt>
      <trkpt lat="45.4167" lon="6.61769">
        <ele>2048.27</ele>
        <time>2014-01-29T12:40:11Z</time>
      </trkpt>
      <trkpt lat="45.41633" lon="6.61764">
        <ele>2060.42</ele>
        <time>2014-01-29T12:40:22Z</time>
      </trkpt>
      <trkpt lat="45.41593" lon="6.61759">
        <ele>2067.98</ele>
        <time>2014-01-29T12:40:33Z</time>
      </trkpt>
      <trkpt lat="45.41553" lon="6.61751">
        <ele>2074.73</ele>
        <time>2014-01-29T12:41:07Z</time>
      </trkpt>
      <trkpt lat="45.41575" lon="6.61787">
        <ele>2071.31</ele>
        <time>2014-01-29T12:44:00Z</time>
      </trkpt>
      <trkpt lat="45.41617" lon="6.61764">
        <ele>2065.13</ele>
        <time>2014-01-29T12:44:07Z</time>
      </trkpt>
      <trkpt lat="45.41624" lon="6.61697">
        <ele>2055.72</ele>
        <time>2014-01-29T12:44:13Z</time>
      </trkpt>
      <trkpt lat="45.41633" lon="6.61632">
        <ele>2044.74</ele>
        <time>2014-01-29T12:44:19Z</time>
      </trkpt>
      <trkpt lat="45.41628" lon="6.61561">
        <ele>2035.48</ele>
        <time>2014-01-29T12:44:25Z</time>
      </trkpt>
      <trkpt lat="45.41636" lon="6.61499">
        <ele>2021.08</ele>
        <time>2014-01-29T12:44:29Z</time>
      </trkpt>
      <trkpt lat="45.41651" lon="6.61451">
        <ele>2008.28</ele>
        <time>2014-01-29T12:44:49Z</time>
      </trkpt>
      <trkpt lat="45.41682" lon="6.61427">
        <ele>1996.51</ele>
        <time>2014-01-29T12:45:06Z</time>
      </trkpt>
      <trkpt lat="45.41693" lon="6.61379">
        <ele>1983.58</ele>
        <time>2014-01-29T12:45:19Z</time>
      </trkpt>
      <trkpt lat="45.4173" lon="6.61386">
        <ele>1969.87</ele>
        <time>2014-01-29T12:45:36Z</time>
      </trkpt>
      <trkpt lat="45.41756" lon="6.61369">
        <ele>1957.72</ele>
        <time>2014-01-29T12:46:06Z</time>
      </trkpt>
      <trkpt lat="45.41791" lon="6.6135">
        <ele>1939.35</ele>
        <time>2014-01-29T12:46:25Z</time>
      </trkpt>
      <trkpt lat="45.4183" lon="6.61344">
        <ele>1925.92</ele>
        <time>2014-01-29T12:46:59Z</time>
      </trkpt>
      <trkpt lat="45.41862" lon="6.6131">
        <ele>1919.48</ele>
        <time>2014-01-29T12:47:32Z</time>
      </trkpt>
      <trkpt lat="45.41874" lon="6.61255">
        <ele>1914.65</ele>
        <time>2014-01-29T12:47:45Z</time>
      </trkpt>
      <trkpt lat="45.41877" lon="6.61202">
        <ele>1908.32</ele>
        <time>2014-01-29T12:50:09Z</time>
      </trkpt>
      <trkpt lat="45.41895" lon="6.6117">
        <ele>1896.7</ele>
        <time>2014-01-29T12:50:48Z</time>
      </trkpt>
      <trkpt lat="45.41926" lon="6.61198">
        <ele>1884.18</ele>
        <time>2014-01-29T12:51:02Z</time>
      </trkpt>
      <trkpt lat="45.41958" lon="6.61233">
        <ele>1878.08</ele>
        <time>2014-01-29T12:51:20Z</time>
      </trkpt>
      <trkpt lat="45.41995" lon="6.61244">
        <ele>1866.85</ele>
        <time>2014-01-29T12:51:39Z</time>
      </trkpt>
      <trkpt lat="45.42031" lon="6.61259">
        <ele>1851.38</ele>
        <time>2014-01-29T12:51:50Z</time>
      </trkpt>
      <trkpt lat="45.42062" lon="6.61291">
        <ele>1841.51</ele>
        <time>2014-01-29T12:52:00Z</time>
      </trkpt>
      <trkpt lat="45.42096" lon="6.61308">
        <ele>1834.04</ele>
        <time>2014-01-29T12:52:17Z</time>
      </trkpt>
      <trkpt lat="45.42132" lon="6.61314">
        <ele>1815.65</ele>
        <time>2014-01-29T12:52:40Z</time>
      </trkpt>
      <trkpt lat="45.42168" lon="6.61283">
        <ele>1795.03</ele>
        <time>2014-01-29T12:52:47Z</time>
      </trkpt>
      <trkpt lat="45.4219" lon="6.61238">
        <ele>1783.9</ele>
        <time>2014-01-29T12:52:55Z</time>
      </trkpt>
      <trkpt lat="45.42218" lon="6.61197">
        <ele>1771.4</ele>
        <time>2014-01-29T12:53:20Z</time>
      </trkpt>
      <trkpt lat="45.42248" lon="6.61167">
        <ele>1756.84</ele>
        <time>2014-01-29T12:53:47Z</time>
      </trkpt>
      <trkpt lat="45.42272" lon="6.61128">
        <ele>1743.44</ele>
        <time>2014-01-29T12:54:16Z</time>
      </trkpt>
      <trkpt lat="45.42283" lon="6.61069">
        <ele>1733.35</ele>
        <time>2014-01-29T12:54:28Z</time>
      </trkpt>
      <trkpt lat="45.42321" lon="6.61046">
        <ele>1722.44</ele>
        <time>2014-01-29T12:54:38Z</time>
      </trkpt>
      <trkpt lat="45.42361" lon="6.61053">
        <ele>1713.61</ele>
        <time>2014-01-29T12:54:46Z</time>
      </trkpt>
      <trkpt lat="45.42396" lon="6.61053">
        <ele>1701.09</ele>
        <time>2014-01-29T12:54:55Z</time>
      </trkpt>
      <trkpt lat="45.42434" lon="6.61048">
        <ele>1686.43</ele>
        <time>2014-01-29T12:55:11Z</time>
      </trkpt>
      <trkpt lat="45.4244" lon="6.61103">
        <ele>1679.48</ele>
        <time>2014-01-29T12:55:17Z</time>
      </trkpt>
      <trkpt lat="45.42475" lon="6.6113">
        <ele>1658.81</ele>
        <time>2014-01-29T12:55:28Z</time>
      </trkpt>
      <trkpt lat="45.42505" lon="6.61159">
        <ele>1642</ele>
        <time>2014-01-29T12:55:40Z</time>
      </trkpt>
      <trkpt lat="45.42543" lon="6.61167">
        <ele>1622.5</ele>
        <time>2014-01-29T12:55:52Z</time>
      </trkpt>
      <trkpt lat="45.42575" lon="6.61175">
        <ele>1604.54</ele>
        <time>2014-01-29T12:56:02Z</time>
      </trkpt>
      <trkpt lat="45.42615" lon="6.6117">
        <ele>1581.59</ele>
        <time>2014-01-29T12:56:12Z</time>
      </trkpt>
      <trkpt lat="45.42653" lon="6.61175">
        <ele>1562.79</ele>
        <time>2014-01-29T12:56:19Z</time>
      </trkpt>
      <trkpt lat="45.4268" lon="6.61212">
        <ele>1555.91</ele>
        <time>2014-01-29T12:56:27Z</time>
      </trkpt>
      <trkpt lat="45.42702" lon="6.61255">
        <ele>1548.44</ele>
        <time>2014-01-29T12:56:35Z</time>
      </trkpt>
      <trkpt lat="45.42736" lon="6.61272">
        <ele>1535.83</ele>
        <time>2014-01-29T12:56:43Z</time>
      </trkpt>
      <trkpt lat="45.42752" lon="6.61305">
        <ele>1525.77</ele>
        <time>2014-01-29T12:56:51Z</time>
      </trkpt>
      <trkpt lat="45.42787" lon="6.61315">
        <ele>1506.37</ele>
        <time>2014-01-29T12:56:59Z</time>
      </trkpt>
      <trkpt lat="45.42821" lon="6.61306">
        <ele>1488.96</ele>
        <time>2014-01-29T12:57:09Z</time>
      </trkpt>
      <trkpt lat="45.42852" lon="6.6133">
        <ele>1474.65</ele>
        <time>2014-01-29T12:57:18Z</time>
      </trkpt>
      <trkpt lat="45.42882" lon="6.61297">
        <ele>1459.72</ele>
        <time>2014-01-29T12:57:25Z</time>
      </trkpt>
      <trkpt lat="45.42913" lon="6.61315">
        <ele>1444.45</ele>
        <time>2014-01-29T12:57:33Z</time>
      </trkpt>
      <trkpt lat="45.42952" lon="6.61327">
        <ele>1427.79</ele>
        <time>2014-01-29T12:57:40Z</time>
      </trkpt>
      <trkpt lat="45.42983" lon="6.61352">
        <ele>1415.59</ele>
        <time>2014-01-29T12:57:48Z</time>
      </trkpt>
      <trkpt lat="45.42974" lon="6.6141">
        <ele>1406.39</ele>
        <time>2014-01-29T12:57:55Z</time>
      </trkpt>
      <trkpt lat="45.42966" lon="6.61466">
        <ele>1397.89</ele>
        <time>2014-01-29T12:58:02Z</time>
      </trkpt>
      <trkpt lat="45.42966" lon="6.61535">
        <ele>1380.48</ele>
        <time>2014-01-29T12:58:09Z</time>
      </trkpt>
      <trkpt lat="45.42966" lon="6.6159">
        <ele>1372.15</ele>
        <time>2014-01-29T12:58:14Z</time>
      </trkpt>
      <trkpt lat="45.42975" lon="6.61642">
        <ele>1361.99</ele>
        <time>2014-01-29T12:58:21Z</time>
      </trkpt>
      <trkpt lat="45.4298" lon="6.61701">
        <ele>1346.79</ele>
        <time>2014-01-29T12:58:26Z</time>
      </trkpt>
      <trkpt lat="45.42989" lon="6.61765">
        <ele>1341.79</ele>
        <time>2014-01-29T12:58:32Z</time>
      </trkpt>
      <trkpt lat="45.43029" lon="6.61764">
        <ele>1320.43</ele>
        <time>2014-01-29T12:58:39Z</time>
      </trkpt>
      <trkpt lat="45.43061" lon="6.61792">
        <ele>1306.79</ele>
        <time>2014-01-29T12:59:06Z</time>
      </trkpt>
      <trkpt lat="45.43094" lon="6.61831">
        <ele>1287.97</ele>
        <time>2014-01-29T12:59:16Z</time>
      </trkpt>
      <trkpt lat="45.43143" lon="6.61874">
        <ele>1268.09</ele>
        <time>2014-01-29T12:59:21Z</time>
      </trkpt>
      <trkpt lat="45.4317" lon="6.61919">
        <ele>1260</ele>
        <time>2014-01-29T12:59:25Z</time>
      </trkpt>
      <trkpt lat="45.43177" lon="6.6197">
        <ele>1260</ele>
        <time>2014-01-29T12:59:29Z</time>
      </trkpt>
      <trkpt lat="45.4317" lon="6.62022">
        <ele>1259.89</ele>
        <time>2014-01-29T13:02:13Z</time>
      </trkpt>
      <trkpt lat="45.43125" lon="6.62012">
        <ele>1261.59</ele>
        <time>2014-01-29T13:02:41Z</time>
      </trkpt>
      <trkpt lat="45.43081" lon="6.62004">
        <ele>1275.27</ele>
        <time>2014-01-29T13:02:51Z</time>
      </trkpt>
      <trkpt lat="45.43041" lon="6.61996">
        <ele>1306.42</ele>
        <time>2014-01-29T13:03:01Z</time>
      </trkpt>
      <trkpt lat="45.42999" lon="6.6199">
        <ele>1339.44</ele>
        <time>2014-01-29T13:03:12Z</time>
      </trkpt>
      <trkpt lat="45.42961" lon="6.61984">
        <ele>1356.59</ele>
        <time>2014-01-29T13:03:24Z</time>
      </trkpt>
      <trkpt lat="45.42923" lon="6.61979">
        <ele>1367.69</ele>
        <time>2014-01-29T13:03:36Z</time>
      </trkpt>
      <trkpt lat="45.42886" lon="6.6196">
        <ele>1373.8</ele>
        <time>2014-01-29T13:03:54Z</time>
      </trkpt>
      <trkpt lat="45.42846" lon="6.61946">
        <ele>1379</ele>
        <time>2014-01-29T13:04:06Z</time>
      </trkpt>
      <trkpt lat="45.4281" lon="6.61938">
        <ele>1389.86</ele>
        <time>2014-01-29T13:04:16Z</time>
      </trkpt>
      <trkpt lat="45.42769" lon="6.61932">
        <ele>1417.87</ele>
        <time>2014-01-29T13:04:27Z</time>
      </trkpt>
      <trkpt lat="45.42727" lon="6.61938">
        <ele>1449.25</ele>
        <time>2014-01-29T13:04:35Z</time>
      </trkpt>
      <trkpt lat="45.42692" lon="6.61945">
        <ele>1477.94</ele>
        <time>2014-01-29T13:04:50Z</time>
      </trkpt>
      <trkpt lat="45.42655" lon="6.61932">
        <ele>1515.63</ele>
        <time>2014-01-29T13:05:04Z</time>
      </trkpt>
      <trkpt lat="45.42616" lon="6.61925">
        <ele>1547.23</ele>
        <time>2014-01-29T13:05:16Z</time>
      </trkpt>
      <trkpt lat="45.42578" lon="6.61918">
        <ele>1572.74</ele>
        <time>2014-01-29T13:05:31Z</time>
      </trkpt>
      <trkpt lat="45.42538" lon="6.61911">
        <ele>1597.36</ele>
        <time>2014-01-29T13:05:46Z</time>
      </trkpt>
      <trkpt lat="45.42499" lon="6.61905">
        <ele>1614.47</ele>
        <time>2014-01-29T13:05:59Z</time>
      </trkpt>
      <trkpt lat="45.4246" lon="6.619">
        <ele>1629.33</ele>
        <time>2014-01-29T13:06:10Z</time>
      </trkpt>
      <trkpt lat="45.42421" lon="6.61897">
        <ele>1652.75</ele>
        <time>2014-01-29T13:06:22Z</time>
      </trkpt>
      <trkpt lat="45.4238" lon="6.61892">
        <ele>1684.08</ele>
        <time>2014-01-29T13:06:37Z</time>
      </trkpt>
      <trkpt lat="45.42339" lon="6.61877">
        <ele>1704.79</ele>
        <time>2014-01-29T13:06:49Z</time>
      </trkpt>
      <trkpt lat="45.423" lon="6.61868">
        <ele>1722.12</ele>
        <time>2014-01-29T13:07:01Z</time>
      </trkpt>
      <trkpt lat="45.42261" lon="6.61866">
        <ele>1735.04</ele>
        <time>2014-01-29T13:07:13Z</time>
      </trkpt>
      <trkpt lat="45.42224" lon="6.61856">
        <ele>1758.1</ele>
        <time>2014-01-29T13:07:25Z</time>
      </trkpt>
      <trkpt lat="45.42184" lon="6.61848">
        <ele>1782.74</ele>
        <time>2014-01-29T13:07:37Z</time>
      </trkpt>
      <trkpt lat="45.42147" lon="6.61841">
        <ele>1799.36</ele>
        <time>2014-01-29T13:07:49Z</time>
      </trkpt>
      <trkpt lat="45.42107" lon="6.61836">
        <ele>1814.51</ele>
        <time>2014-01-29T13:08:01Z</time>
      </trkpt>
      <trkpt lat="45.42069" lon="6.61829">
        <ele>1839.04</ele>
        <time>2014-01-29T13:08:13Z</time>
      </trkpt>
      <trkpt lat="45.42031" lon="6.61823">
        <ele>1860.54</ele>
        <time>2014-01-29T13:08:25Z</time>
      </trkpt>
      <trkpt lat="45.41992" lon="6.6182">
        <ele>1881.94</ele>
        <time>2014-01-29T13:08:37Z</time>
      </trkpt>
      <trkpt lat="45.41953" lon="6.61811">
        <ele>1904.03</ele>
        <time>2014-01-29T13:08:49Z</time>
      </trkpt>
      <trkpt lat="45.41914" lon="6.61806">
        <ele>1922.72</ele>
        <time>2014-01-29T13:09:01Z</time>
      </trkpt>
      <trkpt lat="45.41875" lon="6.61801">
        <ele>1944.95</ele>
        <time>2014-01-29T13:09:13Z</time>
      </trkpt>
      <trkpt lat="45.41837" lon="6.61794">
        <ele>1967.47</ele>
        <time>2014-01-29T13:09:25Z</time>
      </trkpt>
      <trkpt lat="45.41798" lon="6.61789">
        <ele>1997.41</ele>
        <time>2014-01-29T13:09:37Z</time>
      </trkpt>
      <trkpt lat="45.4176" lon="6.61782">
        <ele>2021.93</ele>
        <time>2014-01-29T13:09:49Z</time>
      </trkpt>
      <trkpt lat="45.41722" lon="6.61775">
        <ele>2032.12</ele>
        <time>2014-01-29T13:10:01Z</time>
      </trkpt>
      <trkpt lat="45.41683" lon="6.61771">
        <ele>2043.9</ele>
        <time>2014-01-29T13:10:12Z</time>
      </trkpt>
      <trkpt lat="45.41642" lon="6.61763">
        <ele>2057.41</ele>
        <time>2014-01-29T13:10:23Z</time>
      </trkpt>
      <trkpt lat="45.41603" lon="6.61758">
        <ele>2067.65</ele>
        <time>2014-01-29T13:10:34Z</time>
      </trkpt>
      <trkpt lat="45.41564" lon="6.6175">
        <ele>2072.13</ele>
        <time>2014-01-29T13:11:13Z</time>
      </trkpt>
      <trkpt lat="45.4156" lon="6.61801">
        <ele>2075.79</ele>
        <time>2014-01-29T13:14:05Z</time>
      </trkpt>
      <trkpt lat="45.41568" lon="6.61856">
        <ele>2070.63</ele>
        <time>2014-01-29T13:14:15Z</time>
      </trkpt>
      <trkpt lat="45.41571" lon="6.61922">
        <ele>2070.36</ele>
        <time>2014-01-29T13:14:20Z</time>
      </trkpt>
      <trkpt lat="45.41584" lon="6.6199">
        <ele>2063.66</ele>
        <time>2014-01-29T13:14:26Z</time>
      </trkpt>
      <trkpt lat="45.41581" lon="6.62054">
        <ele>2045.79</ele>
        <time>2014-01-29T13:14:31Z</time>
      </trkpt>
      <trkpt lat="45.41552" lon="6.62099">
        <ele>2036.35</ele>
        <time>2014-01-29T13:14:35Z</time>
      </trkpt>
      <trkpt lat="45.41525" lon="6.62142">
        <ele>2025.85</ele>
        <time>2014-01-29T13:14:39Z</time>
      </trkpt>
      <trkpt lat="45.41488" lon="6.62152">
        <ele>2017.98</ele>
        <time>2014-01-29T13:14:45Z</time>
      </trkpt>
      <trkpt lat="45.41446" lon="6.62155">
        <ele>2021.32</ele>
        <time>2014-01-29T13:14:55Z</time>
      </trkpt>
      <trkpt lat="45.41445" lon="6.62208">
        <ele>2002.53</ele>
        <time>2014-01-29T13:15:02Z</time>
      </trkpt>
      <trkpt lat="45.41449" lon="6.62267">
        <ele>1987.73</ele>
        <time>2014-01-29T13:15:10Z</time>
      </trkpt>
      <trkpt lat="45.41458" lon="6.62324">
        <ele>1968.31</ele>
        <time>2014-01-29T13:15:17Z</time>
      </trkpt>
      <trkpt lat="45.41462" lon="6.62374">
        <ele>1950.96</ele>
        <time>2014-01-29T13:15:24Z</time>
      </trkpt>
      <trkpt lat="45.4147" lon="6.62416">
        <ele>1935.65</ele>
        <time>2014-01-29T13:15:30Z</time>
      </trkpt>
      <trkpt lat="45.41467" lon="6.62478">
        <ele>1912.43</ele>
        <time>2014-01-29T13:15:38Z</time>
      </trkpt>
      <trkpt lat="45.41487" lon="6.62521">
        <ele>1895.01</ele>
        <time>2014-01-29T13:15:45Z</time>
      </trkpt>
      <trkpt lat="45.41495" lon="6.62566">
        <ele>1878.96</ele>
        <time>2014-01-29T13:15:52Z</time>
      </trkpt>
      <trkpt lat="45.41503" lon="6.62624">
        <ele>1863.16</ele>
        <time>2014-01-29T13:15:59Z</time>
      </trkpt>
      <trkpt lat="45.41515" lon="6.62673">
        <ele>1850.63</ele>
        <time>2014-01-29T13:16:04Z</time>
      </trkpt>
      <trkpt lat="45.41516" lon="6.62749">
        <ele>1837.27</ele>
        <time>2014-01-29T13:16:09Z</time>
      </trkpt>
      <trkpt lat="45.41504" lon="6.62807">
        <ele>1828.83</ele>
        <time>2014-01-29T13:16:13Z</time>
      </trkpt>
      <trkpt lat="45.41495" lon="6.6286">
        <ele>1820.06</ele>
        <time>2014-01-29T13:16:17Z</time>
      </trkpt>
      <trkpt lat="45.41497" lon="6.62915">
        <ele>1808.74</ele>
        <time>2014-01-29T13:16:21Z</time>
      </trkpt>
      <trkpt lat="45.41478" lon="6.62964">
        <ele>1801.26</ele>
        <time>2014-01-29T13:16:28Z</time>
      </trkpt>
      <trkpt lat="45.41452" lon="6.63013">
        <ele>1798.86</ele>
        <time>2014-01-29T13:16:38Z</time>
      </trkpt>
      <trkpt lat="45.41472" lon="6.63044">
        <ele>1792.22</ele>
        <time>2014-01-29T13:16:53Z</time>
      </trkpt>
      <trkpt lat="45.41452" lon="6.63105">
        <ele>1779.25</ele>
        <time>2014-01-29T13:17:00Z</time>
      </trkpt>
      <trkpt lat="45.41428" lon="6.63161">
        <ele>1771.57</ele>
        <time>2014-01-29T13:17:05Z</time>
      </trkpt>
      <trkpt lat="45.41432" lon="6.63215">
        <ele>1768.16</ele>
        <time>2014-01-29T13:17:09Z</time>
      </trkpt>
      <trkpt lat="45.41458" lon="6.63263">
        <ele>1763.87</ele>
        <time>2014-01-29T13:17:15Z</time>
      </trkpt>
      <trkpt lat="45.41483" lon="6.63295">
        <ele>1758.21</ele>
        <time>2014-01-29T13:18:41Z</time>
      </trkpt>
      <trkpt lat="45.41472" lon="6.63307">
        <ele>1759.98</ele>
        <time>2014-01-29T13:20:07Z</time>
      </trkpt>
      <trkpt lat="45.41437" lon="6.63274">
        <ele>1765.92</ele>
        <time>2014-01-29T13:20:13Z</time>
      </trkpt>
      <trkpt lat="45.41402" lon="6.63246">
        <ele>1771.71</ele>
        <time>2014-01-29T13:20:21Z</time>
      </trkpt>
      <trkpt lat="45.41368" lon="6.6322">
        <ele>1777.69</ele>
        <time>2014-01-29T13:20:29Z</time>
      </trkpt>
      <trkpt lat="45.41333" lon="6.632">
        <ele>1786.69</ele>
        <time>2014-01-29T13:20:37Z</time>
      </trkpt>
      <trkpt lat="45.41293" lon="6.63179">
        <ele>1803.6</ele>
        <time>2014-01-29T13:20:45Z</time>
      </trkpt>
      <trkpt lat="45.41257" lon="6.63148">
        <ele>1817.49</ele>
        <time>2014-01-29T13:20:56Z</time>
      </trkpt>
      <trkpt lat="45.41218" lon="6.63118">
        <ele>1825.89</ele>
        <time>2014-01-29T13:21:06Z</time>
      </trkpt>
      <trkpt lat="45.41179" lon="6.6309">
        <ele>1824.8</ele>
        <time>2014-01-29T13:21:16Z</time>
      </trkpt>
      <trkpt lat="45.41145" lon="6.63068">
        <ele>1823.78</ele>
        <time>2014-01-29T13:21:24Z</time>
      </trkpt>
      <trkpt lat="45.4111" lon="6.63046">
        <ele>1823.91</ele>
        <time>2014-01-29T13:21:32Z</time>
      </trkpt>
      <trkpt lat="45.41074" lon="6.63025">
        <ele>1827.51</ele>
        <time>2014-01-29T13:21:40Z</time>
      </trkpt>
      <trkpt lat="45.41036" lon="6.63">
        <ele>1832.11</ele>
        <time>2014-01-29T13:21:49Z</time>
      </trkpt>
      <trkpt lat="45.41003" lon="6.62976">
        <ele>1838.64</ele>
        <time>2014-01-29T13:21:57Z</time>
      </trkpt>
      <trkpt lat="45.40967" lon="6.62949">
        <ele>1850.61</ele>
        <time>2014-01-29T13:22:06Z</time>
      </trkpt>
      <trkpt lat="45.40935" lon="6.62925">
        <ele>1853.95</ele>
        <time>2014-01-29T13:22:14Z</time>
      </trkpt>
      <trkpt lat="45.40901" lon="6.62903">
        <ele>1856.15</ele>
        <time>2014-01-29T13:22:22Z</time>
      </trkpt>
      <trkpt lat="45.40869" lon="6.62878">
        <ele>1860.3</ele>
        <time>2014-01-29T13:22:30Z</time>
      </trkpt>
      <trkpt lat="45.40836" lon="6.62854">
        <ele>1863.92</ele>
        <time>2014-01-29T13:22:38Z</time>
      </trkpt>
      <trkpt lat="45.40802" lon="6.62833">
        <ele>1866.13</ele>
        <time>2014-01-29T13:22:46Z</time>
      </trkpt>
      <trkpt lat="45.40769" lon="6.62811">
        <ele>1869.56</ele>
        <time>2014-01-29T13:22:54Z</time>
      </trkpt>
      <trkpt lat="45.40736" lon="6.62787">
        <ele>1871.73</ele>
        <time>2014-01-29T13:23:02Z</time>
      </trkpt>
      <trkpt lat="45.40699" lon="6.62762">
        <ele>1874.13</ele>
        <time>2014-01-29T13:23:11Z</time>
      </trkpt>
      <trkpt lat="45.40665" lon="6.62739">
        <ele>1877.46</ele>
        <time>2014-01-29T13:23:19Z</time>
      </trkpt>
      <trkpt lat="45.4063" lon="6.62716">
        <ele>1879.65</ele>
        <time>2014-01-29T13:23:27Z</time>
      </trkpt>
      <trkpt lat="45.40598" lon="6.62692">
        <ele>1883.45</ele>
        <time>2014-01-29T13:23:35Z</time>
      </trkpt>
      <trkpt lat="45.40565" lon="6.62668">
        <ele>1886.07</ele>
        <time>2014-01-29T13:23:43Z</time>
      </trkpt>
      <trkpt lat="45.40531" lon="6.62646">
        <ele>1887.79</ele>
        <time>2014-01-29T13:23:51Z</time>
      </trkpt>
      <trkpt lat="45.40494" lon="6.62626">
        <ele>1890.62</ele>
        <time>2014-01-29T13:23:59Z</time>
      </trkpt>
      <trkpt lat="45.40458" lon="6.62602">
        <ele>1894.31</ele>
        <time>2014-01-29T13:24:08Z</time>
      </trkpt>
      <trkpt lat="45.40424" lon="6.62578">
        <ele>1896.96</ele>
        <time>2014-01-29T13:24:16Z</time>
      </trkpt>
      <trkpt lat="45.4039" lon="6.62554">
        <ele>1900.9</ele>
        <time>2014-01-29T13:24:24Z</time>
      </trkpt>
      <trkpt lat="45.40356" lon="6.62532">
        <ele>1905.8</ele>
        <time>2014-01-29T13:24:32Z</time>
      </trkpt>
      <trkpt lat="45.40322" lon="6.62508">
        <ele>1911.38</ele>
        <time>2014-01-29T13:24:41Z</time>
      </trkpt>
      <trkpt lat="45.40288" lon="6.62482">
        <ele>1917.41</ele>
        <time>2014-01-29T13:24:50Z</time>
      </trkpt>
      <trkpt lat="45.40254" lon="6.6246">
        <ele>1923.73</ele>
        <time>2014-01-29T13:24:58Z</time>
      </trkpt>
      <trkpt lat="45.40221" lon="6.62436">
        <ele>1928.97</ele>
        <time>2014-01-29T13:25:06Z</time>
      </trkpt>
      <trkpt lat="45.40189" lon="6.62412">
        <ele>1937.49</ele>
        <time>2014-01-29T13:25:14Z</time>
      </trkpt>
      <trkpt lat="45.40148" lon="6.62384">
        <ele>1947.09</ele>
        <time>2014-01-29T13:25:24Z</time>
      </trkpt>
      <trkpt lat="45.40112" lon="6.62361">
        <ele>1956.78</ele>
        <time>2014-01-29T13:25:32Z</time>
      </trkpt>
      <trkpt lat="45.40079" lon="6.62339">
        <ele>1962.17</ele>
        <time>2014-01-29T13:25:40Z</time>
      </trkpt>
      <trkpt lat="45.40042" lon="6.62313">
        <ele>1968.46</ele>
        <time>2014-01-29T13:25:49Z</time>
      </trkpt>
      <trkpt lat="45.40007" lon="6.62288">
        <ele>1974.03</ele>
        <time>2014-01-29T13:25:58Z</time>
      </trkpt>
      <trkpt lat="45.39974" lon="6.62266">
        <ele>1981.22</ele>
        <time>2014-01-29T13:26:06Z</time>
      </trkpt>
      <trkpt lat="45.39937" lon="6.6224">
        <ele>1989.72</ele>
        <time>2014-01-29T13:26:15Z</time>
      </trkpt>
      <trkpt lat="45.399" lon="6.62215">
        <ele>1997.13</ele>
        <time>2014-01-29T13:26:24Z</time>
      </trkpt>
      <trkpt lat="45.39863" lon="6.62191">
        <ele>2006.57</ele>
        <time>2014-01-29T13:26:33Z</time>
      </trkpt>
      <trkpt lat="45.39825" lon="6.62165">
        <ele>2014.09</ele>
        <time>2014-01-29T13:26:42Z</time>
      </trkpt>
      <trkpt lat="45.39793" lon="6.62142">
        <ele>2024.03</ele>
        <time>2014-01-29T13:26:50Z</time>
      </trkpt>
      <trkpt lat="45.39756" lon="6.62114">
        <ele>2038.44</ele>
        <time>2014-01-29T13:26:59Z</time>
      </trkpt>
      <trkpt lat="45.3972" lon="6.62089">
        <ele>2053.28</ele>
        <time>2014-01-29T13:27:08Z</time>
      </trkpt>
      <trkpt lat="45.39684" lon="6.62063">
        <ele>2065.9</ele>
        <time>2014-01-29T13:27:17Z</time>
      </trkpt>
      <trkpt lat="45.39648" lon="6.62039">
        <ele>2074.65</ele>
        <time>2014-01-29T13:27:26Z</time>
      </trkpt>
      <trkpt lat="45.39617" lon="6.62013">
        <ele>2078.43</ele>
        <time>2014-01-29T13:28:01Z</time>
      </trkpt>
      <trkpt lat="45.39583" lon="6.62005">
        <ele>2087.57</ele>
        <time>2014-01-29T13:28:37Z</time>
      </trkpt>
      <trkpt lat="45.39544" lon="6.62">
        <ele>2096.14</ele>
        <time>2014-01-29T13:30:54Z</time>
      </trkpt>
      <trkpt lat="45.39502" lon="6.61988">
        <ele>2102.12</ele>
        <time>2014-01-29T13:31:05Z</time>
      </trkpt>
      <trkpt lat="45.39463" lon="6.61974">
        <ele>2108.25</ele>
        <time>2014-01-29T13:31:16Z</time>
      </trkpt>
      <trkpt lat="45.39429" lon="6.61955">
        <ele>2113.5</ele>
        <time>2014-01-29T13:31:26Z</time>
      </trkpt>
      <trkpt lat="45.39389" lon="6.6194">
        <ele>2125.43</ele>
        <time>2014-01-29T13:31:36Z</time>
      </trkpt>
      <trkpt lat="45.39351" lon="6.61931">
        <ele>2140.35</ele>
        <time>2014-01-29T13:31:46Z</time>
      </trkpt>
      <trkpt lat="45.39313" lon="6.6192">
        <ele>2157.8</ele>
        <time>2014-01-29T13:31:57Z</time>
      </trkpt>
      <trkpt lat="45.39273" lon="6.61908">
        <ele>2175.05</ele>
        <time>2014-01-29T13:32:07Z</time>
      </trkpt>
      <trkpt lat="45.39234" lon="6.61896">
        <ele>2193.26</ele>
        <time>2014-01-29T13:32:17Z</time>
      </trkpt>
      <trkpt lat="45.39198" lon="6.61887">
        <ele>2216.97</ele>
        <time>2014-01-29T13:32:27Z</time>
      </trkpt>
      <trkpt lat="45.39157" lon="6.6188">
        <ele>2238.07</ele>
        <time>2014-01-29T13:32:39Z</time>
      </trkpt>
      <trkpt lat="45.39115" lon="6.61864">
        <ele>2269.12</ele>
        <time>2014-01-29T13:32:46Z</time>
      </trkpt>
      <trkpt lat="45.39073" lon="6.61854">
        <ele>2299.08</ele>
        <time>2014-01-29T13:32:52Z</time>
      </trkpt>
      <trkpt lat="45.39032" lon="6.61845">
        <ele>2328.75</ele>
        <time>2014-01-29T13:32:58Z</time>
      </trkpt>
      <trkpt lat="45.38993" lon="6.61837">
        <ele>2357.69</ele>
        <time>2014-01-29T13:33:04Z</time>
      </trkpt>
      <trkpt lat="45.38951" lon="6.61821">
        <ele>2380.9</ele>
        <time>2014-01-29T13:33:12Z</time>
      </trkpt>
      <trkpt lat="45.38912" lon="6.61808">
        <ele>2403.54</ele>
        <time>2014-01-29T13:33:22Z</time>
      </trkpt>
      <trkpt lat="45.38871" lon="6.6179">
        <ele>2434.67</ele>
        <time>2014-01-29T13:33:32Z</time>
      </trkpt>
      <trkpt lat="45.38837" lon="6.61773">
        <ele>2459.72</ele>
        <time>2014-01-29T13:33:48Z</time>
      </trkpt>
      <trkpt lat="45.38801" lon="6.6176">
        <ele>2473.92</ele>
        <time>2014-01-29T13:34:00Z</time>
      </trkpt>
      <trkpt lat="45.38804" lon="6.61739">
        <ele>2477.65</ele>
        <time>2014-01-29T13:34:15Z</time>
      </trkpt>
      <trkpt lat="45.38765" lon="6.61716">
        <ele>2497.71</ele>
        <time>2014-01-29T13:34:32Z</time>
      </trkpt>
      <trkpt lat="45.38726" lon="6.617">
        <ele>2514.01</ele>
        <time>2014-01-29T13:34:43Z</time>
      </trkpt>
      <trkpt lat="45.38685" lon="6.61682">
        <ele>2534.87</ele>
        <time>2014-01-29T13:34:55Z</time>
      </trkpt>
      <trkpt lat="45.38649" lon="6.61667">
        <ele>2555.09</ele>
        <time>2014-01-29T13:35:04Z</time>
      </trkpt>
      <trkpt lat="45.38609" lon="6.61653">
        <ele>2566.89</ele>
        <time>2014-01-29T13:35:14Z</time>
      </trkpt>
      <trkpt lat="45.38569" lon="6.61641">
        <ele>2591.3</ele>
        <time>2014-01-29T13:35:24Z</time>
      </trkpt>
      <trkpt lat="45.38531" lon="6.61625">
        <ele>2594.87</ele>
        <time>2014-01-29T13:35:36Z</time>
      </trkpt>
      <trkpt lat="45.38492" lon="6.61611">
        <ele>2600.95</ele>
        <time>2014-01-29T13:35:48Z</time>
      </trkpt>
      <trkpt lat="45.38454" lon="6.61593">
        <ele>2612.44</ele>
        <time>2014-01-29T13:35:59Z</time>
      </trkpt>
      <trkpt lat="45.38417" lon="6.61578">
        <ele>2623.38</ele>
        <time>2014-01-29T13:36:09Z</time>
      </trkpt>
      <trkpt lat="45.38378" lon="6.61562">
        <ele>2628.23</ele>
        <time>2014-01-29T13:36:20Z</time>
      </trkpt>
      <trkpt lat="45.38343" lon="6.61549">
        <ele>2634.58</ele>
        <time>2014-01-29T13:36:30Z</time>
      </trkpt>
      <trkpt lat="45.38306" lon="6.61533">
        <ele>2649.05</ele>
        <time>2014-01-29T13:36:40Z</time>
      </trkpt>
      <trkpt lat="45.38269" lon="6.61518">
        <ele>2650</ele>
        <time>2014-01-29T13:36:50Z</time>
      </trkpt>
      <trkpt lat="45.38258" lon="6.61534">
        <ele>2650</ele>
        <time>2014-01-29T13:39:07Z</time>
      </trkpt>
      <trkpt lat="45.38298" lon="6.61537">
        <ele>2649.1</ele>
        <time>2014-01-29T13:39:13Z</time>
      </trkpt>
      <trkpt lat="45.38347" lon="6.61546">
        <ele>2634.3</ele>
        <time>2014-01-29T13:39:18Z</time>
      </trkpt>
      <trkpt lat="45.38393" lon="6.61552">
        <ele>2629.87</ele>
        <time>2014-01-29T13:39:24Z</time>
      </trkpt>
      <trkpt lat="45.38432" lon="6.61572">
        <ele>2622.19</ele>
        <time>2014-01-29T13:39:31Z</time>
      </trkpt>
      <trkpt lat="45.38463" lon="6.61611">
        <ele>2607.7</ele>
        <time>2014-01-29T13:39:37Z</time>
      </trkpt>
      <trkpt lat="45.38485" lon="6.61659">
        <ele>2590.83</ele>
        <time>2014-01-29T13:39:44Z</time>
      </trkpt>
      <trkpt lat="45.38521" lon="6.61694">
        <ele>2585.82</ele>
        <time>2014-01-29T13:39:50Z</time>
      </trkpt>
      <trkpt lat="45.38558" lon="6.61728">
        <ele>2570.92</ele>
        <time>2014-01-29T13:39:57Z</time>
      </trkpt>
      <trkpt lat="45.38594" lon="6.61746">
        <ele>2558.87</ele>
        <time>2014-01-29T13:40:04Z</time>
      </trkpt>
      <trkpt lat="45.38573" lon="6.61791">
        <ele>2545.27</ele>
        <time>2014-01-29T13:40:14Z</time>
      </trkpt>
      <trkpt lat="45.38596" lon="6.61834">
        <ele>2526.58</ele>
        <time>2014-01-29T13:40:41Z</time>
      </trkpt>
      <trkpt lat="45.38626" lon="6.61858">
        <ele>2514.93</ele>
        <time>2014-01-29T13:40:58Z</time>
      </trkpt>
      <trkpt lat="45.38642" lon="6.61886">
        <ele>2501.52</ele>
        <time>2014-01-29T13:41:11Z</time>
      </trkpt>
      <trkpt lat="45.38655" lon="6.6193">
        <ele>2480.27</ele>
        <time>2014-01-29T13:41:31Z</time>
      </trkpt>
      <trkpt lat="45.38657" lon="6.61988">
        <ele>2461.01</ele>
        <time>2014-01-29T13:41:43Z</time>
      </trkpt>
      <trkpt lat="45.38692" lon="6.61971">
        <ele>2466.33</ele>
        <time>2014-01-29T13:41:55Z</time>
      </trkpt>
      <trkpt lat="45.38729" lon="6.61941">
        <ele>2449.96</ele>
        <time>2014-01-29T13:42:15Z</time>
      </trkpt>
      <trkpt lat="45.38764" lon="6.6191">
        <ele>2439.93</ele>
        <time>2014-01-29T13:42:29Z</time>
      </trkpt>
      <trkpt lat="45.38796" lon="6.61931">
        <ele>2417.2</ele>
        <time>2014-01-29T13:42:54Z</time>
      </trkpt>
      <trkpt lat="45.38826" lon="6.6194">
        <ele>2399.98</ele>
        <time>2014-01-29T13:43:07Z</time>
      </trkpt>
      <trkpt lat="45.38845" lon="6.61956">
        <ele>2388.77</ele>
        <time>2014-01-29T13:43:23Z</time>
      </trkpt>
      <trkpt lat="45.3887" lon="6.61984">
        <ele>2376.38</ele>
        <time>2014-01-29T13:43:35Z</time>
      </trkpt>
      <trkpt lat="45.38901" lon="6.61949">
        <ele>2369.24</ele>
        <time>2014-01-29T13:43:47Z</time>
      </trkpt>
      <trkpt lat="45.38927" lon="6.61957">
        <ele>2360.67</ele>
        <time>2014-01-29T13:43:57Z</time>
      </trkpt>
      <trkpt lat="45.38963" lon="6.61937">
        <ele>2344.2</ele>
        <time>2014-01-29T13:44:26Z</time>
      </trkpt>
      <trkpt lat="45.38996" lon="6.61918">
        <ele>2328.59</ele>
        <time>2014-01-29T13:44:52Z</time>
      </trkpt>
      <trkpt lat="45.39029" lon="6.61917">
        <ele>2309.89</ele>
        <time>2014-01-29T13:45:06Z</time>
      </trkpt>
      <trkpt lat="45.39044" lon="6.61965">
        <ele>2292.27</ele>
        <time>2014-01-29T13:45:24Z</time>
      </trkpt>
      <trkpt lat="45.39079" lon="6.61984">
        <ele>2270.59</ele>
        <time>2014-01-29T13:45:44Z</time>
      </trkpt>
      <trkpt lat="45.39081" lon="6.62042">
        <ele>2265.04</ele>
        <time>2014-01-29T13:45:57Z</time>
      </trkpt>
      <trkpt lat="45.39097" lon="6.62091">
        <ele>2252.98</ele>
        <time>2014-01-29T13:46:09Z</time>
      </trkpt>
      <trkpt lat="45.39121" lon="6.62084">
        <ele>2237.87</ele>
        <time>2014-01-29T13:46:23Z</time>
      </trkpt>
      <trkpt lat="45.39137" lon="6.6208">
        <ele>2225.32</ele>
        <time>2014-01-29T13:46:34Z</time>
      </trkpt>
      <trkpt lat="45.39169" lon="6.62069">
        <ele>2207.63</ele>
        <time>2014-01-29T13:46:47Z</time>
      </trkpt>
      <trkpt lat="45.39201" lon="6.62062">
        <ele>2193.68</ele>
        <time>2014-01-29T13:46:56Z</time>
      </trkpt>
      <trkpt lat="45.39231" lon="6.62044">
        <ele>2181.66</ele>
        <time>2014-01-29T13:47:04Z</time>
      </trkpt>
      <trkpt lat="45.39268" lon="6.62032">
        <ele>2167.56</ele>
        <time>2014-01-29T13:47:14Z</time>
      </trkpt>
      <trkpt lat="45.39303" lon="6.6203">
        <ele>2155.75</ele>
        <time>2014-01-29T13:47:21Z</time>
      </trkpt>
      <trkpt lat="45.39339" lon="6.62046">
        <ele>2141.63</ele>
        <time>2014-01-29T13:47:29Z</time>
      </trkpt>
      <trkpt lat="45.39391" lon="6.62041">
        <ele>2124.28</ele>
        <time>2014-01-29T13:47:36Z</time>
      </trkpt>
      <trkpt lat="45.39429" lon="6.62012">
        <ele>2113.12</ele>
        <time>2014-01-29T13:47:40Z</time>
      </trkpt>
      <trkpt lat="45.39469" lon="6.6199">
        <ele>2106.76</ele>
        <time>2014-01-29T13:47:45Z</time>
      </trkpt>
      <trkpt lat="45.39505" lon="6.61955">
        <ele>2100.95</ele>
        <time>2014-01-29T13:47:50Z</time>
      </trkpt>
      <trkpt lat="45.39548" lon="6.61929">
        <ele>2093.68</ele>
        <time>2014-01-29T13:47:55Z</time>
      </trkpt>
      <trkpt lat="45.39587" lon="6.61905">
        <ele>2088.59</ele>
        <time>2014-01-29T13:48:01Z</time>
      </trkpt>
      <trkpt lat="45.39621" lon="6.61928">
        <ele>2079.54</ele>
        <time>2014-01-29T13:48:08Z</time>
      </trkpt>
      <trkpt lat="45.39631" lon="6.61959">
        <ele>2076.53</ele>
        <time>2014-01-29T13:51:10Z</time>
      </trkpt>
      <trkpt lat="45.39631" lon="6.61927">
        <ele>2077.86</ele>
        <time>2014-01-29T13:55:03Z</time>
      </trkpt>
      <trkpt lat="45.39592" lon="6.61911">
        <ele>2087.22</ele>
        <time>2014-01-29T13:55:14Z</time>
      </trkpt>
      <trkpt lat="45.39551" lon="6.61881">
        <ele>2094.95</ele>
        <time>2014-01-29T13:55:22Z</time>
      </trkpt>
      <trkpt lat="45.39507" lon="6.61853">
        <ele>2100.77</ele>
        <time>2014-01-29T13:55:28Z</time>
      </trkpt>
      <trkpt lat="45.39471" lon="6.61827">
        <ele>2110.47</ele>
        <time>2014-01-29T13:55:32Z</time>
      </trkpt>
      <trkpt lat="45.39429" lon="6.61798">
        <ele>2129.37</ele>
        <time>2014-01-29T13:55:37Z</time>
      </trkpt>
      <trkpt lat="45.39395" lon="6.61777">
        <ele>2144.12</ele>
        <time>2014-01-29T13:55:41Z</time>
      </trkpt>
      <trkpt lat="45.3935" lon="6.61748">
        <ele>2170.49</ele>
        <time>2014-01-29T13:55:47Z</time>
      </trkpt>
      <trkpt lat="45.39304" lon="6.61717">
        <ele>2189.75</ele>
        <time>2014-01-29T13:55:53Z</time>
      </trkpt>
      <trkpt lat="45.3926" lon="6.61697">
        <ele>2208.7</ele>
        <time>2014-01-29T13:55:59Z</time>
      </trkpt>
      <trkpt lat="45.39213" lon="6.6167">
        <ele>2228.62</ele>
        <time>2014-01-29T13:56:05Z</time>
      </trkpt>
      <trkpt lat="45.39178" lon="6.61645">
        <ele>2246.11</ele>
        <time>2014-01-29T13:56:09Z</time>
      </trkpt>
      <trkpt lat="45.39142" lon="6.61622">
        <ele>2273.37</ele>
        <time>2014-01-29T13:56:13Z</time>
      </trkpt>
      <trkpt lat="45.39103" lon="6.61601">
        <ele>2300.86</ele>
        <time>2014-01-29T13:56:17Z</time>
      </trkpt>
      <trkpt lat="45.39062" lon="6.61578">
        <ele>2323.71</ele>
        <time>2014-01-29T13:56:21Z</time>
      </trkpt>
      <trkpt lat="45.39027" lon="6.61559">
        <ele>2335.16</ele>
        <time>2014-01-29T13:56:25Z</time>
      </trkpt>
      <trkpt lat="45.38991" lon="6.6153">
        <ele>2349.29</ele>
        <time>2014-01-29T13:56:30Z</time>
      </trkpt>
      <trkpt lat="45.38956" lon="6.61499">
        <ele>2358.84</ele>
        <time>2014-01-29T13:56:35Z</time>
      </trkpt>
      <trkpt lat="45.38921" lon="6.61467">
        <ele>2371.21</ele>
        <time>2014-01-29T13:56:39Z</time>
      </trkpt>
      <trkpt lat="45.38887" lon="6.61439">
        <ele>2382.11</ele>
        <time>2014-01-29T13:56:43Z</time>
      </trkpt>
      <trkpt lat="45.38846" lon="6.61411">
        <ele>2396.18</ele>
        <time>2014-01-29T13:56:48Z</time>
      </trkpt>
      <trkpt lat="45.3881" lon="6.61392">
        <ele>2409.64</ele>
        <time>2014-01-29T13:56:52Z</time>
      </trkpt>
      <trkpt lat="45.38771" lon="6.61365">
        <ele>2421.66</ele>
        <time>2014-01-29T13:56:57Z</time>
      </trkpt>
      <trkpt lat="45.3873" lon="6.61329">
        <ele>2433.67</ele>
        <time>2014-01-29T13:57:03Z</time>
      </trkpt>
      <trkpt lat="45.3868" lon="6.61298">
        <ele>2448.66</ele>
        <time>2014-01-29T13:57:09Z</time>
      </trkpt>
      <trkpt lat="45.38647" lon="6.61275">
        <ele>2458.37</ele>
        <time>2014-01-29T13:57:13Z</time>
      </trkpt>
      <trkpt lat="45.38605" lon="6.61246">
        <ele>2482.53</ele>
        <time>2014-01-29T13:57:19Z</time>
      </trkpt>
      <trkpt lat="45.38566" lon="6.61227">
        <ele>2507.08</ele>
        <time>2014-01-29T13:57:25Z</time>
      </trkpt>
      <trkpt lat="45.38528" lon="6.61209">
        <ele>2533.19</ele>
        <time>2014-01-29T13:57:31Z</time>
      </trkpt>
      <trkpt lat="45.38493" lon="6.61188">
        <ele>2558.58</ele>
        <time>2014-01-29T13:57:37Z</time>
      </trkpt>
      <trkpt lat="45.38453" lon="6.61167">
        <ele>2591.03</ele>
        <time>2014-01-29T13:57:45Z</time>
      </trkpt>
      <trkpt lat="45.38413" lon="6.61137">
        <ele>2628.38</ele>
        <time>2014-01-29T13:58:08Z</time>
      </trkpt>
      <trkpt lat="45.38369" lon="6.61099">
        <ele>2681.69</ele>
        <time>2014-01-29T13:58:17Z</time>
      </trkpt>
      <trkpt lat="45.38347" lon="6.61056">
        <ele>2701.83</ele>
        <time>2014-01-29T13:58:43Z</time>
      </trkpt>
      <trkpt lat="45.38306" lon="6.61061">
        <ele>2690.75</ele>
        <time>2014-01-29T14:01:46Z</time>
      </trkpt>
      <trkpt lat="45.38266" lon="6.6105">
        <ele>2678.8</ele>
        <time>2014-01-29T14:01:57Z</time>
      </trkpt>
      <trkpt lat="45.38227" lon="6.6103">
        <ele>2676.17</ele>
        <time>2014-01-29T14:02:04Z</time>
      </trkpt>
      <trkpt lat="45.38191" lon="6.61015">
        <ele>2680.46</ele>
        <time>2014-01-29T14:02:10Z</time>
      </trkpt>
      <trkpt lat="45.38154" lon="6.61016">
        <ele>2679.79</ele>
        <time>2014-01-29T14:02:16Z</time>
      </trkpt>
      <trkpt lat="45.38112" lon="6.61022">
        <ele>2665.58</ele>
        <time>2014-01-29T14:02:24Z</time>
      </trkpt>
      <trkpt lat="45.38076" lon="6.60985">
        <ele>2659.63</ele>
        <time>2014-01-29T14:02:32Z</time>
      </trkpt>
      <trkpt lat="45.38042" lon="6.60966">
        <ele>2646.12</ele>
        <time>2014-01-29T14:02:41Z</time>
      </trkpt>
      <trkpt lat="45.38006" lon="6.60949">
        <ele>2632.86</ele>
        <time>2014-01-29T14:02:49Z</time>
      </trkpt>
      <trkpt lat="45.37962" lon="6.6094">
        <ele>2619.5</ele>
        <time>2014-01-29T14:02:58Z</time>
      </trkpt>
      <trkpt lat="45.37921" lon="6.60927">
        <ele>2603.1</ele>
        <time>2014-01-29T14:03:04Z</time>
      </trkpt>
      <trkpt lat="45.37882" lon="6.60912">
        <ele>2588.66</ele>
        <time>2014-01-29T14:03:12Z</time>
      </trkpt>
      <trkpt lat="45.37858" lon="6.60895">
        <ele>2581.52</ele>
        <time>2014-01-29T14:03:20Z</time>
      </trkpt>
      <trkpt lat="45.37822" lon="6.60864">
        <ele>2572.88</ele>
        <time>2014-01-29T14:03:28Z</time>
      </trkpt>
      <trkpt lat="45.37835" lon="6.60813">
        <ele>2561.48</ele>
        <time>2014-01-29T14:03:40Z</time>
      </trkpt>
      <trkpt lat="45.37869" lon="6.60788">
        <ele>2553.1</ele>
        <time>2014-01-29T14:03:51Z</time>
      </trkpt>
      <trkpt lat="45.37885" lon="6.60735">
        <ele>2538.41</ele>
        <time>2014-01-29T14:04:06Z</time>
      </trkpt>
      <trkpt lat="45.37917" lon="6.60708">
        <ele>2525.28</ele>
        <time>2014-01-29T14:04:18Z</time>
      </trkpt>
      <trkpt lat="45.37925" lon="6.6066">
        <ele>2505.44</ele>
        <time>2014-01-29T14:04:29Z</time>
      </trkpt>
      <trkpt lat="45.3795" lon="6.60626">
        <ele>2493.3</ele>
        <time>2014-01-29T14:04:39Z</time>
      </trkpt>
      <trkpt lat="45.37964" lon="6.60577">
        <ele>2481.52</ele>
        <time>2014-01-29T14:04:48Z</time>
      </trkpt>
      <trkpt lat="45.37985" lon="6.60529">
        <ele>2469.37</ele>
        <time>2014-01-29T14:04:56Z</time>
      </trkpt>
      <trkpt lat="45.38017" lon="6.60496">
        <ele>2460.68</ele>
        <time>2014-01-29T14:05:05Z</time>
      </trkpt>
      <trkpt lat="45.3804" lon="6.60453">
        <ele>2447.52</ele>
        <time>2014-01-29T14:05:15Z</time>
      </trkpt>
      <trkpt lat="45.38069" lon="6.60413">
        <ele>2434.12</ele>
        <time>2014-01-29T14:05:25Z</time>
      </trkpt>
      <trkpt lat="45.38082" lon="6.60362">
        <ele>2416.12</ele>
        <time>2014-01-29T14:05:35Z</time>
      </trkpt>
      <trkpt lat="45.3808" lon="6.60307">
        <ele>2397.45</ele>
        <time>2014-01-29T14:05:46Z</time>
      </trkpt>
      <trkpt lat="45.38094" lon="6.60264">
        <ele>2381.76</ele>
        <time>2014-01-29T14:05:54Z</time>
      </trkpt>
      <trkpt lat="45.38069" lon="6.60223">
        <ele>2365.22</ele>
        <time>2014-01-29T14:06:03Z</time>
      </trkpt>
      <trkpt lat="45.38027" lon="6.60222">
        <ele>2359.49</ele>
        <time>2014-01-29T14:06:11Z</time>
      </trkpt>
      <trkpt lat="45.37982" lon="6.60238">
        <ele>2351.51</ele>
        <time>2014-01-29T14:06:19Z</time>
      </trkpt>
      <trkpt lat="45.37957" lon="6.60212">
        <ele>2342.26</ele>
        <time>2014-01-29T14:06:28Z</time>
      </trkpt>
      <trkpt lat="45.37939" lon="6.60163">
        <ele>2325.17</ele>
        <time>2014-01-29T14:06:39Z</time>
      </trkpt>
      <trkpt lat="45.37958" lon="6.60118">
        <ele>2307.43</ele>
        <time>2014-01-29T14:06:46Z</time>
      </trkpt>
      <trkpt lat="45.37942" lon="6.60079">
        <ele>2294.16</ele>
        <time>2014-01-29T14:06:58Z</time>
      </trkpt>
      <trkpt lat="45.37921" lon="6.60042">
        <ele>2286.66</ele>
        <time>2014-01-29T14:07:07Z</time>
      </trkpt>
      <trkpt lat="45.37948" lon="6.60003">
        <ele>2269.93</ele>
        <time>2014-01-29T14:07:13Z</time>
      </trkpt>
      <trkpt lat="45.37954" lon="6.59961">
        <ele>2259.6</ele>
        <time>2014-01-29T14:07:24Z</time>
      </trkpt>
      <trkpt lat="45.37959" lon="6.59909">
        <ele>2242.64</ele>
        <time>2014-01-29T14:07:32Z</time>
      </trkpt>
      <trkpt lat="45.37989" lon="6.5987">
        <ele>2237.99</ele>
        <time>2014-01-29T14:07:47Z</time>
      </trkpt>
      <trkpt lat="45.38022" lon="6.59828">
        <ele>2233.91</ele>
        <time>2014-01-29T14:07:55Z</time>
      </trkpt>
      <trkpt lat="45.3805" lon="6.59784">
        <ele>2226.12</ele>
        <time>2014-01-29T14:08:02Z</time>
      </trkpt>
      <trkpt lat="45.38078" lon="6.59746">
        <ele>2219.42</ele>
        <time>2014-01-29T14:08:08Z</time>
      </trkpt>
      <trkpt lat="45.38113" lon="6.59704">
        <ele>2208.98</ele>
        <time>2014-01-29T14:08:15Z</time>
      </trkpt>
      <trkpt lat="45.38155" lon="6.59675">
        <ele>2198.79</ele>
        <time>2014-01-29T14:08:20Z</time>
      </trkpt>
      <trkpt lat="45.38192" lon="6.59635">
        <ele>2191.32</ele>
        <time>2014-01-29T14:08:25Z</time>
      </trkpt>
      <trkpt lat="45.38225" lon="6.59611">
        <ele>2187.29</ele>
        <time>2014-01-29T14:08:28Z</time>
      </trkpt>
      <trkpt lat="45.38261" lon="6.59591">
        <ele>2187.24</ele>
        <time>2014-01-29T14:08:32Z</time>
      </trkpt>
      <trkpt lat="45.38298" lon="6.59549">
        <ele>2181.31</ele>
        <time>2014-01-29T14:08:38Z</time>
      </trkpt>
      <trkpt lat="45.38327" lon="6.59496">
        <ele>2175.73</ele>
        <time>2014-01-29T14:08:44Z</time>
      </trkpt>
      <trkpt lat="45.38364" lon="6.59459">
        <ele>2174.12</ele>
        <time>2014-01-29T14:08:50Z</time>
      </trkpt>
      <trkpt lat="45.38404" lon="6.5944">
        <ele>2173.39</ele>
        <time>2014-01-29T14:08:56Z</time>
      </trkpt>
      <trkpt lat="45.38438" lon="6.5941">
        <ele>2165.27</ele>
        <time>2014-01-29T14:09:02Z</time>
      </trkpt>
      <trkpt lat="45.38463" lon="6.59368">
        <ele>2158.88</ele>
        <time>2014-01-29T14:09:08Z</time>
      </trkpt>
      <trkpt lat="45.38498" lon="6.59328">
        <ele>2162.35</ele>
        <time>2014-01-29T14:09:16Z</time>
      </trkpt>
      <trkpt lat="45.38505" lon="6.59282">
        <ele>2152.79</ele>
        <time>2014-01-29T14:09:29Z</time>
      </trkpt>
      <trkpt lat="45.38521" lon="6.59228">
        <ele>2141.41</ele>
        <time>2014-01-29T14:09:37Z</time>
      </trkpt>
      <trkpt lat="45.3853" lon="6.59173">
        <ele>2124.94</ele>
        <time>2014-01-29T14:09:44Z</time>
      </trkpt>
      <trkpt lat="45.38548" lon="6.59118">
        <ele>2112.94</ele>
        <time>2014-01-29T14:09:50Z</time>
      </trkpt>
      <trkpt lat="45.38574" lon="6.59068">
        <ele>2100.66</ele>
        <time>2014-01-29T14:09:55Z</time>
      </trkpt>
      <trkpt lat="45.38609" lon="6.59014">
        <ele>2092.84</ele>
        <time>2014-01-29T14:10:01Z</time>
      </trkpt>
      <trkpt lat="45.38641" lon="6.58959">
        <ele>2079.66</ele>
        <time>2014-01-29T14:10:07Z</time>
      </trkpt>
      <trkpt lat="45.38667" lon="6.58902">
        <ele>2066.2</ele>
        <time>2014-01-29T14:10:12Z</time>
      </trkpt>
      <trkpt lat="45.38694" lon="6.58852">
        <ele>2056.8</ele>
        <time>2014-01-29T14:10:16Z</time>
      </trkpt>
      <trkpt lat="45.38717" lon="6.58801">
        <ele>2052.45</ele>
        <time>2014-01-29T14:10:20Z</time>
      </trkpt>
      <trkpt lat="45.38743" lon="6.58751">
        <ele>2045.05</ele>
        <time>2014-01-29T14:10:25Z</time>
      </trkpt>
      <trkpt lat="45.38768" lon="6.58705">
        <ele>2039.41</ele>
        <time>2014-01-29T14:10:33Z</time>
      </trkpt>
      <trkpt lat="45.38804" lon="6.58677">
        <ele>2028.34</ele>
        <time>2014-01-29T14:10:41Z</time>
      </trkpt>
      <trkpt lat="45.38809" lon="6.58644">
        <ele>2013.15</ele>
        <time>2014-01-29T14:10:50Z</time>
      </trkpt>
      <trkpt lat="45.38787" lon="6.58594">
        <ele>1997.03</ele>
        <time>2014-01-29T14:11:00Z</time>
      </trkpt>
      <trkpt lat="45.38775" lon="6.5854">
        <ele>1983.16</ele>
        <time>2014-01-29T14:11:10Z</time>
      </trkpt>
      <trkpt lat="45.38749" lon="6.58498">
        <ele>1969.05</ele>
        <time>2014-01-29T14:11:19Z</time>
      </trkpt>
      <trkpt lat="45.38758" lon="6.5845">
        <ele>1953.4</ele>
        <time>2014-01-29T14:11:26Z</time>
      </trkpt>
      <trkpt lat="45.38753" lon="6.58405">
        <ele>1939.91</ele>
        <time>2014-01-29T14:11:32Z</time>
      </trkpt>
      <trkpt lat="45.38777" lon="6.58364">
        <ele>1936.35</ele>
        <time>2014-01-29T14:11:37Z</time>
      </trkpt>
      <trkpt lat="45.38809" lon="6.58335">
        <ele>1931.91</ele>
        <time>2014-01-29T14:11:43Z</time>
      </trkpt>
      <trkpt lat="45.38842" lon="6.58312">
        <ele>1923.59</ele>
        <time>2014-01-29T14:11:52Z</time>
      </trkpt>
      <trkpt lat="45.38864" lon="6.58262">
        <ele>1906.91</ele>
        <time>2014-01-29T14:12:00Z</time>
      </trkpt>
      <trkpt lat="45.38878" lon="6.5823">
        <ele>1898.97</ele>
        <time>2014-01-29T14:12:08Z</time>
      </trkpt>
      <trkpt lat="45.38896" lon="6.58192">
        <ele>1889.28</ele>
        <time>2014-01-29T14:12:17Z</time>
      </trkpt>
      <trkpt lat="45.38899" lon="6.5814">
        <ele>1878.29</ele>
        <time>2014-01-29T14:12:24Z</time>
      </trkpt>
      <trkpt lat="45.38882" lon="6.58088">
        <ele>1857.04</ele>
        <time>2014-01-29T14:12:33Z</time>
      </trkpt>
      <trkpt lat="45.3887" lon="6.58039">
        <ele>1838.35</ele>
        <time>2014-01-29T14:12:44Z</time>
      </trkpt>
      <trkpt lat="45.38864" lon="6.57998">
        <ele>1823.85</ele>
        <time>2014-01-29T14:12:53Z</time>
      </trkpt>
      <trkpt lat="45.38892" lon="6.57959">
        <ele>1809.11</ele>
        <time>2014-01-29T14:13:04Z</time>
      </trkpt>
      <trkpt lat="45.38928" lon="6.57939">
        <ele>1800.67</ele>
        <time>2014-01-29T14:13:14Z</time>
      </trkpt>
      <trkpt lat="45.38965" lon="6.579">
        <ele>1786.85</ele>
        <time>2014-01-29T14:15:03Z</time>
      </trkpt>
      <trkpt lat="45.38982" lon="6.57851">
        <ele>1768.07</ele>
        <time>2014-01-29T14:15:10Z</time>
      </trkpt>
      <trkpt lat="45.38995" lon="6.57796">
        <ele>1748.59</ele>
        <time>2014-01-29T14:15:18Z</time>
      </trkpt>
      <trkpt lat="45.38987" lon="6.57751">
        <ele>1734.07</ele>
        <time>2014-01-29T14:15:24Z</time>
      </trkpt>
      <trkpt lat="45.3897" lon="6.57699">
        <ele>1716.21</ele>
        <time>2014-01-29T14:15:30Z</time>
      </trkpt>
      <trkpt lat="45.38839" lon="6.57565">
        <ele>1665.15</ele>
        <time>2014-01-29T14:16:00Z</time>
      </trkpt>
      <trkpt lat="45.3885" lon="6.57514">
        <ele>1648.17</ele>
        <time>2014-01-29T14:16:09Z</time>
      </trkpt>
      <trkpt lat="45.38863" lon="6.57461">
        <ele>1634.18</ele>
        <time>2014-01-29T14:16:14Z</time>
      </trkpt>
      <trkpt lat="45.38882" lon="6.57398">
        <ele>1626.35</ele>
        <time>2014-01-29T14:16:20Z</time>
      </trkpt>
      <trkpt lat="45.389" lon="6.57354">
        <ele>1619.85</ele>
        <time>2014-01-29T14:16:26Z</time>
      </trkpt>
      <trkpt lat="45.3892" lon="6.57311">
        <ele>1608.72</ele>
        <time>2014-01-29T14:16:33Z</time>
      </trkpt>
      <trkpt lat="45.38965" lon="6.57318">
        <ele>1600.49</ele>
        <time>2014-01-29T14:16:41Z</time>
      </trkpt>
      <trkpt lat="45.38986" lon="6.5728">
        <ele>1588.41</ele>
        <time>2014-01-29T14:16:48Z</time>
      </trkpt>
      <trkpt lat="45.39003" lon="6.57223">
        <ele>1568.02</ele>
        <time>2014-01-29T14:16:56Z</time>
      </trkpt>
      <trkpt lat="45.39021" lon="6.57178">
        <ele>1544.52</ele>
        <time>2014-01-29T14:17:03Z</time>
      </trkpt>
      <trkpt lat="45.39032" lon="6.57125">
        <ele>1526.02</ele>
        <time>2014-01-29T14:17:14Z</time>
      </trkpt>
      <trkpt lat="45.39041" lon="6.57076">
        <ele>1509.95</ele>
        <time>2014-01-29T14:17:23Z</time>
      </trkpt>
      <trkpt lat="45.39034" lon="6.57024">
        <ele>1492.05</ele>
        <time>2014-01-29T14:17:34Z</time>
      </trkpt>
      <trkpt lat="45.3906" lon="6.56972">
        <ele>1474.69</ele>
        <time>2014-01-29T14:17:46Z</time>
      </trkpt>
      <trkpt lat="45.39079" lon="6.56902">
        <ele>1452.4</ele>
        <time>2014-01-29T14:17:52Z</time>
      </trkpt>
      <trkpt lat="45.39116" lon="6.56866">
        <ele>1443.86</ele>
        <time>2014-01-29T14:17:58Z</time>
      </trkpt>
      <trkpt lat="45.39126" lon="6.56816">
        <ele>1439</ele>
        <time>2014-01-29T14:18:08Z</time>
      </trkpt>
      <trkpt lat="45.39102" lon="6.56789">
        <ele>1439</ele>
        <time>2014-01-29T14:21:41Z</time>
      </trkpt>
      <trkpt lat="45.3906" lon="6.56793">
        <ele>1439</ele>
        <time>2014-01-29T14:23:58Z</time>
      </trkpt>
      <trkpt lat="45.39022" lon="6.56777">
        <ele>1439.72</ele>
        <time>2014-01-29T14:24:06Z</time>
      </trkpt>
      <trkpt lat="45.38983" lon="6.56764">
        <ele>1448.18</ele>
        <time>2014-01-29T14:24:16Z</time>
      </trkpt>
      <trkpt lat="45.38944" lon="6.56754">
        <ele>1457.93</ele>
        <time>2014-01-29T14:24:25Z</time>
      </trkpt>
      <trkpt lat="45.389" lon="6.5674">
        <ele>1474.69</ele>
        <time>2014-01-29T14:24:36Z</time>
      </trkpt>
      <trkpt lat="45.38864" lon="6.56728">
        <ele>1490.77</ele>
        <time>2014-01-29T14:24:44Z</time>
      </trkpt>
      <trkpt lat="45.38825" lon="6.56717">
        <ele>1505.66</ele>
        <time>2014-01-29T14:24:53Z</time>
      </trkpt>
      <trkpt lat="45.38786" lon="6.56707">
        <ele>1519.29</ele>
        <time>2014-01-29T14:25:03Z</time>
      </trkpt>
      <trkpt lat="45.38746" lon="6.56695">
        <ele>1533.36</ele>
        <time>2014-01-29T14:25:12Z</time>
      </trkpt>
      <trkpt lat="45.38707" lon="6.56685">
        <ele>1554.27</ele>
        <time>2014-01-29T14:25:22Z</time>
      </trkpt>
      <trkpt lat="45.38671" lon="6.56676">
        <ele>1570.7</ele>
        <time>2014-01-29T14:25:31Z</time>
      </trkpt>
      <trkpt lat="45.38633" lon="6.56658">
        <ele>1593.37</ele>
        <time>2014-01-29T14:25:41Z</time>
      </trkpt>
      <trkpt lat="45.38596" lon="6.56649">
        <ele>1617.16</ele>
        <time>2014-01-29T14:25:50Z</time>
      </trkpt>
      <trkpt lat="45.38554" lon="6.56636">
        <ele>1641.18</ele>
        <time>2014-01-29T14:26:00Z</time>
      </trkpt>
      <trkpt lat="45.38515" lon="6.56616">
        <ele>1653.07</ele>
        <time>2014-01-29T14:26:11Z</time>
      </trkpt>
      <trkpt lat="45.38472" lon="6.56605">
        <ele>1671.01</ele>
        <time>2014-01-29T14:26:21Z</time>
      </trkpt>
      <trkpt lat="45.3843" lon="6.56594">
        <ele>1694.88</ele>
        <time>2014-01-29T14:26:31Z</time>
      </trkpt>
      <trkpt lat="45.38391" lon="6.56584">
        <ele>1717.53</ele>
        <time>2014-01-29T14:26:41Z</time>
      </trkpt>
      <trkpt lat="45.38353" lon="6.56569">
        <ele>1736.27</ele>
        <time>2014-01-29T14:26:52Z</time>
      </trkpt>
      <trkpt lat="45.38315" lon="6.56554">
        <ele>1756.25</ele>
        <time>2014-01-29T14:27:02Z</time>
      </trkpt>
      <trkpt lat="45.38277" lon="6.56542">
        <ele>1773.87</ele>
        <time>2014-01-29T14:27:11Z</time>
      </trkpt>
      <trkpt lat="45.38236" lon="6.56529">
        <ele>1786.48</ele>
        <time>2014-01-29T14:27:21Z</time>
      </trkpt>
      <trkpt lat="45.382" lon="6.56517">
        <ele>1797.47</ele>
        <time>2014-01-29T14:27:30Z</time>
      </trkpt>
      <trkpt lat="45.38157" lon="6.56504">
        <ele>1810.1</ele>
        <time>2014-01-29T14:27:40Z</time>
      </trkpt>
      <trkpt lat="45.38117" lon="6.56492">
        <ele>1822.16</ele>
        <time>2014-01-29T14:27:50Z</time>
      </trkpt>
      <trkpt lat="45.3808" lon="6.56478">
        <ele>1832.37</ele>
        <time>2014-01-29T14:27:59Z</time>
      </trkpt>
      <trkpt lat="45.38039" lon="6.56467">
        <ele>1838.53</ele>
        <time>2014-01-29T14:28:09Z</time>
      </trkpt>
      <trkpt lat="45.38002" lon="6.56453">
        <ele>1841.21</ele>
        <time>2014-01-29T14:28:18Z</time>
      </trkpt>
      <trkpt lat="45.37963" lon="6.56434">
        <ele>1850.2</ele>
        <time>2014-01-29T14:28:29Z</time>
      </trkpt>
      <trkpt lat="45.37922" lon="6.5642">
        <ele>1859.59</ele>
        <time>2014-01-29T14:28:39Z</time>
      </trkpt>
      <trkpt lat="45.37883" lon="6.5641">
        <ele>1874.12</ele>
        <time>2014-01-29T14:28:49Z</time>
      </trkpt>
      <trkpt lat="45.37844" lon="6.56399">
        <ele>1884.03</ele>
        <time>2014-01-29T14:28:57Z</time>
      </trkpt>
      <trkpt lat="45.37801" lon="6.56389">
        <ele>1893.76</ele>
        <time>2014-01-29T14:29:07Z</time>
      </trkpt>
      <trkpt lat="45.37765" lon="6.56376">
        <ele>1903.06</ele>
        <time>2014-01-29T14:29:15Z</time>
      </trkpt>
      <trkpt lat="45.37724" lon="6.56366">
        <ele>1910.67</ele>
        <time>2014-01-29T14:29:25Z</time>
      </trkpt>
      <trkpt lat="45.37685" lon="6.56353">
        <ele>1916.8</ele>
        <time>2014-01-29T14:29:38Z</time>
      </trkpt>
      <trkpt lat="45.3771" lon="6.56322">
        <ele>1919.97</ele>
        <time>2014-01-29T14:30:02Z</time>
      </trkpt>
      <trkpt lat="45.37673" lon="6.5632">
        <ele>1923.71</ele>
        <time>2014-01-29T14:32:02Z</time>
      </trkpt>
      <trkpt lat="45.37633" lon="6.56306">
        <ele>1929.93</ele>
        <time>2014-01-29T14:32:13Z</time>
      </trkpt>
      <trkpt lat="45.37598" lon="6.56294">
        <ele>1939.18</ele>
        <time>2014-01-29T14:32:23Z</time>
      </trkpt>
      <trkpt lat="45.37558" lon="6.56278">
        <ele>1954.19</ele>
        <time>2014-01-29T14:32:31Z</time>
      </trkpt>
      <trkpt lat="45.37516" lon="6.5626">
        <ele>1969.43</ele>
        <time>2014-01-29T14:32:41Z</time>
      </trkpt>
      <trkpt lat="45.37475" lon="6.56242">
        <ele>1981.63</ele>
        <time>2014-01-29T14:32:50Z</time>
      </trkpt>
      <trkpt lat="45.37438" lon="6.56227">
        <ele>1987.57</ele>
        <time>2014-01-29T14:32:58Z</time>
      </trkpt>
      <trkpt lat="45.374" lon="6.56213">
        <ele>1996.14</ele>
        <time>2014-01-29T14:33:07Z</time>
      </trkpt>
      <trkpt lat="45.37361" lon="6.56197">
        <ele>2008.65</ele>
        <time>2014-01-29T14:33:16Z</time>
      </trkpt>
      <trkpt lat="45.37323" lon="6.56182">
        <ele>2019.74</ele>
        <time>2014-01-29T14:33:24Z</time>
      </trkpt>
      <trkpt lat="45.37284" lon="6.56169">
        <ele>2028.2</ele>
        <time>2014-01-29T14:33:33Z</time>
      </trkpt>
      <trkpt lat="45.37242" lon="6.56154">
        <ele>2045</ele>
        <time>2014-01-29T14:33:43Z</time>
      </trkpt>
      <trkpt lat="45.37202" lon="6.56142">
        <ele>2059.65</ele>
        <time>2014-01-29T14:33:54Z</time>
      </trkpt>
      <trkpt lat="45.37159" lon="6.56129">
        <ele>2085.51</ele>
        <time>2014-01-29T14:34:04Z</time>
      </trkpt>
      <trkpt lat="45.37119" lon="6.56117">
        <ele>2108.05</ele>
        <time>2014-01-29T14:34:14Z</time>
      </trkpt>
      <trkpt lat="45.3708" lon="6.56102">
        <ele>2132.6</ele>
        <time>2014-01-29T14:34:24Z</time>
      </trkpt>
      <trkpt lat="45.37042" lon="6.56085">
        <ele>2154.8</ele>
        <time>2014-01-29T14:34:35Z</time>
      </trkpt>
      <trkpt lat="45.37003" lon="6.5607">
        <ele>2174.33</ele>
        <time>2014-01-29T14:34:45Z</time>
      </trkpt>
      <trkpt lat="45.36964" lon="6.56051">
        <ele>2186.66</ele>
        <time>2014-01-29T14:34:53Z</time>
      </trkpt>
      <trkpt lat="45.36925" lon="6.56033">
        <ele>2195.98</ele>
        <time>2014-01-29T14:35:01Z</time>
      </trkpt>
      <trkpt lat="45.3689" lon="6.56017">
        <ele>2209.5</ele>
        <time>2014-01-29T14:35:10Z</time>
      </trkpt>
      <trkpt lat="45.36853" lon="6.55999">
        <ele>2220.11</ele>
        <time>2014-01-29T14:35:18Z</time>
      </trkpt>
      <trkpt lat="45.36813" lon="6.5598">
        <ele>2238.45</ele>
        <time>2014-01-29T14:35:28Z</time>
      </trkpt>
      <trkpt lat="45.36773" lon="6.55966">
        <ele>2259.16</ele>
        <time>2014-01-29T14:35:37Z</time>
      </trkpt>
      <trkpt lat="45.36734" lon="6.55951">
        <ele>2279.7</ele>
        <time>2014-01-29T14:35:47Z</time>
      </trkpt>
      <trkpt lat="45.36695" lon="6.55932">
        <ele>2298.95</ele>
        <time>2014-01-29T14:35:56Z</time>
      </trkpt>
      <trkpt lat="45.3663" lon="6.55906">
        <ele>2330.27</ele>
        <time>2014-01-29T14:36:12Z</time>
      </trkpt>
      <trkpt lat="45.3659" lon="6.5589">
        <ele>2341.31</ele>
        <time>2014-01-29T14:36:21Z</time>
      </trkpt>
      <trkpt lat="45.36553" lon="6.55872">
        <ele>2351.36</ele>
        <time>2014-01-29T14:36:29Z</time>
      </trkpt>
      <trkpt lat="45.36514" lon="6.55855">
        <ele>2367.25</ele>
        <time>2014-01-29T14:36:38Z</time>
      </trkpt>
      <trkpt lat="45.36475" lon="6.55846">
        <ele>2383.22</ele>
        <time>2014-01-29T14:36:49Z</time>
      </trkpt>
      <trkpt lat="45.36437" lon="6.55838">
        <ele>2395.77</ele>
        <time>2014-01-29T14:36:58Z</time>
      </trkpt>
      <trkpt lat="45.36405" lon="6.55812">
        <ele>2412.93</ele>
        <time>2014-01-29T14:37:11Z</time>
      </trkpt>
      <trkpt lat="45.36429" lon="6.55773">
        <ele>2403.23</ele>
        <time>2014-01-29T14:37:30Z</time>
      </trkpt>
      <trkpt lat="45.36463" lon="6.55751">
        <ele>2398.92</ele>
        <time>2014-01-29T14:38:15Z</time>
      </trkpt>
      <trkpt lat="45.365" lon="6.55732">
        <ele>2403.08</ele>
        <time>2014-01-29T14:38:34Z</time>
      </trkpt>
      <trkpt lat="45.36538" lon="6.55713">
        <ele>2402.6</ele>
        <time>2014-01-29T14:38:44Z</time>
      </trkpt>
      <trkpt lat="45.36573" lon="6.5569">
        <ele>2403.69</ele>
        <time>2014-01-29T14:39:05Z</time>
      </trkpt>
      <trkpt lat="45.36613" lon="6.55665">
        <ele>2388.84</ele>
        <time>2014-01-29T14:39:14Z</time>
      </trkpt>
      <trkpt lat="45.36648" lon="6.55631">
        <ele>2372.34</ele>
        <time>2014-01-29T14:39:19Z</time>
      </trkpt>
      <trkpt lat="45.36674" lon="6.55594">
        <ele>2354.93</ele>
        <time>2014-01-29T14:39:23Z</time>
      </trkpt>
      <trkpt lat="45.36704" lon="6.55558">
        <ele>2348.65</ele>
        <time>2014-01-29T14:39:27Z</time>
      </trkpt>
      <trkpt lat="45.36727" lon="6.55514">
        <ele>2341.17</ele>
        <time>2014-01-29T14:39:31Z</time>
      </trkpt>
      <trkpt lat="45.36745" lon="6.55465">
        <ele>2339.24</ele>
        <time>2014-01-29T14:39:35Z</time>
      </trkpt>
      <trkpt lat="45.36764" lon="6.5541">
        <ele>2335.92</ele>
        <time>2014-01-29T14:39:40Z</time>
      </trkpt>
      <trkpt lat="45.3679" lon="6.55361">
        <ele>2329.41</ele>
        <time>2014-01-29T14:39:45Z</time>
      </trkpt>
      <trkpt lat="45.36822" lon="6.55317">
        <ele>2310.54</ele>
        <time>2014-01-29T14:39:49Z</time>
      </trkpt>
      <trkpt lat="45.36848" lon="6.55271">
        <ele>2305.85</ele>
        <time>2014-01-29T14:39:53Z</time>
      </trkpt>
      <trkpt lat="45.3686" lon="6.55208">
        <ele>2304.6</ele>
        <time>2014-01-29T14:39:59Z</time>
      </trkpt>
      <trkpt lat="45.36901" lon="6.55175">
        <ele>2304.82</ele>
        <time>2014-01-29T14:40:05Z</time>
      </trkpt>
      <trkpt lat="45.36939" lon="6.5514">
        <ele>2300.49</ele>
        <time>2014-01-29T14:40:11Z</time>
      </trkpt>
      <trkpt lat="45.36971" lon="6.55098">
        <ele>2295.92</ele>
        <time>2014-01-29T14:40:17Z</time>
      </trkpt>
      <trkpt lat="45.36998" lon="6.55059">
        <ele>2294.14</ele>
        <time>2014-01-29T14:40:23Z</time>
      </trkpt>
      <trkpt lat="45.37028" lon="6.55023">
        <ele>2291.87</ele>
        <time>2014-01-29T14:40:29Z</time>
      </trkpt>
      <trkpt lat="45.37068" lon="6.5501">
        <ele>2291.1</ele>
        <time>2014-01-29T14:40:36Z</time>
      </trkpt>
      <trkpt lat="45.37111" lon="6.55008">
        <ele>2289.37</ele>
        <time>2014-01-29T14:40:42Z</time>
      </trkpt>
      <trkpt lat="45.37153" lon="6.54995">
        <ele>2284.6</ele>
        <time>2014-01-29T14:40:48Z</time>
      </trkpt>
      <trkpt lat="45.37191" lon="6.54989">
        <ele>2284</ele>
        <time>2014-01-29T14:40:54Z</time>
      </trkpt>
      <trkpt lat="45.3723" lon="6.55004">
        <ele>2280.87</ele>
        <time>2014-01-29T14:41:00Z</time>
      </trkpt>
      <trkpt lat="45.37266" lon="6.55024">
        <ele>2276.88</ele>
        <time>2014-01-29T14:41:06Z</time>
      </trkpt>
      <trkpt lat="45.37306" lon="6.55045">
        <ele>2272.82</ele>
        <time>2014-01-29T14:41:12Z</time>
      </trkpt>
      <trkpt lat="45.37347" lon="6.55045">
        <ele>2263.42</ele>
        <time>2014-01-29T14:41:17Z</time>
      </trkpt>
      <trkpt lat="45.37396" lon="6.55039">
        <ele>2256.93</ele>
        <time>2014-01-29T14:41:23Z</time>
      </trkpt>
      <trkpt lat="45.37438" lon="6.55035">
        <ele>2255.47</ele>
        <time>2014-01-29T14:41:29Z</time>
      </trkpt>
      <trkpt lat="45.37475" lon="6.55035">
        <ele>2253.93</ele>
        <time>2014-01-29T14:41:35Z</time>
      </trkpt>
      <trkpt lat="45.37517" lon="6.55047">
        <ele>2246.94</ele>
        <time>2014-01-29T14:41:41Z</time>
      </trkpt>
      <trkpt lat="45.37563" lon="6.55054">
        <ele>2235.21</ele>
        <time>2014-01-29T14:41:45Z</time>
      </trkpt>
      <trkpt lat="45.37606" lon="6.55055">
        <ele>2230</ele>
        <time>2014-01-29T14:41:50Z</time>
      </trkpt>
      <trkpt lat="45.37642" lon="6.55039">
        <ele>2230</ele>
        <time>2014-01-29T14:42:03Z</time>
      </trkpt>
      <trkpt lat="45.37682" lon="6.55022">
        <ele>2229.64</ele>
        <time>2014-01-29T14:43:03Z</time>
      </trkpt>
      <trkpt lat="45.37722" lon="6.55">
        <ele>2219.95</ele>
        <time>2014-01-29T14:43:08Z</time>
      </trkpt>
      <trkpt lat="45.37763" lon="6.54972">
        <ele>2207.98</ele>
        <time>2014-01-29T14:43:14Z</time>
      </trkpt>
      <trkpt lat="45.37808" lon="6.54963">
        <ele>2194.55</ele>
        <time>2014-01-29T14:43:20Z</time>
      </trkpt>
      <trkpt lat="45.37848" lon="6.54947">
        <ele>2182.53</ele>
        <time>2014-01-29T14:43:24Z</time>
      </trkpt>
      <trkpt lat="45.37887" lon="6.54928">
        <ele>2176.95</ele>
        <time>2014-01-29T14:43:28Z</time>
      </trkpt>
      <trkpt lat="45.37921" lon="6.54889">
        <ele>2167.06</ele>
        <time>2014-01-29T14:43:32Z</time>
      </trkpt>
      <trkpt lat="45.37961" lon="6.54854">
        <ele>2160.23</ele>
        <time>2014-01-29T14:43:37Z</time>
      </trkpt>
      <trkpt lat="45.37999" lon="6.54833">
        <ele>2154.21</ele>
        <time>2014-01-29T14:43:43Z</time>
      </trkpt>
      <trkpt lat="45.38023" lon="6.54872">
        <ele>2143.26</ele>
        <time>2014-01-29T14:43:50Z</time>
      </trkpt>
      <trkpt lat="45.38066" lon="6.54857">
        <ele>2129.34</ele>
        <time>2014-01-29T14:43:56Z</time>
      </trkpt>
      <trkpt lat="45.38104" lon="6.54858">
        <ele>2119.51</ele>
        <time>2014-01-29T14:44:02Z</time>
      </trkpt>
      <trkpt lat="45.38147" lon="6.54862">
        <ele>2106.44</ele>
        <time>2014-01-29T14:44:08Z</time>
      </trkpt>
      <trkpt lat="45.38186" lon="6.54882">
        <ele>2095.64</ele>
        <time>2014-01-29T14:44:17Z</time>
      </trkpt>
      <trkpt lat="45.38221" lon="6.54895">
        <ele>2085.81</ele>
        <time>2014-01-29T14:45:40Z</time>
      </trkpt>
      <trkpt lat="45.38262" lon="6.54911">
        <ele>2068.54</ele>
        <time>2014-01-29T14:45:47Z</time>
      </trkpt>
      <trkpt lat="45.38299" lon="6.54918">
        <ele>2052.95</ele>
        <time>2014-01-29T14:45:55Z</time>
      </trkpt>
      <trkpt lat="45.38332" lon="6.54941">
        <ele>2038.02</ele>
        <time>2014-01-29T14:46:04Z</time>
      </trkpt>
      <trkpt lat="45.38365" lon="6.54967">
        <ele>2021.35</ele>
        <time>2014-01-29T14:46:11Z</time>
      </trkpt>
      <trkpt lat="45.38358" lon="6.55028">
        <ele>2008.45</ele>
        <time>2014-01-29T14:46:17Z</time>
      </trkpt>
      <trkpt lat="45.38392" lon="6.55068">
        <ele>1995.66</ele>
        <time>2014-01-29T14:46:24Z</time>
      </trkpt>
      <trkpt lat="45.3841" lon="6.55116">
        <ele>1987.29</ele>
        <time>2014-01-29T14:46:58Z</time>
      </trkpt>
      <trkpt lat="45.38425" lon="6.5517">
        <ele>1980.24</ele>
        <time>2014-01-29T14:47:04Z</time>
      </trkpt>
      <trkpt lat="45.38456" lon="6.55214">
        <ele>1967.83</ele>
        <time>2014-01-29T14:47:10Z</time>
      </trkpt>
      <trkpt lat="45.38483" lon="6.55259">
        <ele>1959.64</ele>
        <time>2014-01-29T14:47:16Z</time>
      </trkpt>
      <trkpt lat="45.38475" lon="6.55204">
        <ele>1965.61</ele>
        <time>2014-01-29T14:48:23Z</time>
      </trkpt>
      <trkpt lat="45.38455" lon="6.55156">
        <ele>1973.55</ele>
        <time>2014-01-29T14:48:34Z</time>
      </trkpt>
      <trkpt lat="45.38435" lon="6.55109">
        <ele>1984.05</ele>
        <time>2014-01-29T14:48:45Z</time>
      </trkpt>
      <trkpt lat="45.38415" lon="6.5506">
        <ele>1992.73</ele>
        <time>2014-01-29T14:48:55Z</time>
      </trkpt>
      <trkpt lat="45.38397" lon="6.55006">
        <ele>2005.54</ele>
        <time>2014-01-29T14:49:06Z</time>
      </trkpt>
      <trkpt lat="45.38377" lon="6.54955">
        <ele>2021.35</ele>
        <time>2014-01-29T14:49:19Z</time>
      </trkpt>
      <trkpt lat="45.38359" lon="6.54906">
        <ele>2036.04</ele>
        <time>2014-01-29T14:49:30Z</time>
      </trkpt>
      <trkpt lat="45.3834" lon="6.54858">
        <ele>2049.98</ele>
        <time>2014-01-29T14:49:41Z</time>
      </trkpt>
      <trkpt lat="45.38323" lon="6.54809">
        <ele>2073</ele>
        <time>2014-01-29T14:49:52Z</time>
      </trkpt>
      <trkpt lat="45.38301" lon="6.5476">
        <ele>2087.87</ele>
        <time>2014-01-29T14:50:05Z</time>
      </trkpt>
      <trkpt lat="45.38265" lon="6.54735">
        <ele>2096.59</ele>
        <time>2014-01-29T14:50:16Z</time>
      </trkpt>
      <trkpt lat="45.38228" lon="6.54718">
        <ele>2101.83</ele>
        <time>2014-01-29T14:50:26Z</time>
      </trkpt>
      <trkpt lat="45.3819" lon="6.54699">
        <ele>2108.5</ele>
        <time>2014-01-29T14:50:37Z</time>
      </trkpt>
      <trkpt lat="45.38152" lon="6.54696">
        <ele>2116.42</ele>
        <time>2014-01-29T14:50:49Z</time>
      </trkpt>
      <trkpt lat="45.38114" lon="6.54721">
        <ele>2122.41</ele>
        <time>2014-01-29T14:50:59Z</time>
      </trkpt>
      <trkpt lat="45.38079" lon="6.54746">
        <ele>2130.33</ele>
        <time>2014-01-29T14:51:10Z</time>
      </trkpt>
      <trkpt lat="45.3804" lon="6.5477">
        <ele>2138.75</ele>
        <time>2014-01-29T14:51:23Z</time>
      </trkpt>
      <trkpt lat="45.38005" lon="6.54794">
        <ele>2151.2</ele>
        <time>2014-01-29T14:51:34Z</time>
      </trkpt>
      <trkpt lat="45.37967" lon="6.54816">
        <ele>2160.11</ele>
        <time>2014-01-29T14:51:45Z</time>
      </trkpt>
      <trkpt lat="45.3793" lon="6.54836">
        <ele>2166.09</ele>
        <time>2014-01-29T14:51:56Z</time>
      </trkpt>
      <trkpt lat="45.37895" lon="6.54857">
        <ele>2171.76</ele>
        <time>2014-01-29T14:52:06Z</time>
      </trkpt>
      <trkpt lat="45.37857" lon="6.54878">
        <ele>2179.37</ele>
        <time>2014-01-29T14:52:17Z</time>
      </trkpt>
      <trkpt lat="45.37821" lon="6.54902">
        <ele>2183.12</ele>
        <time>2014-01-29T14:52:28Z</time>
      </trkpt>
      <trkpt lat="45.37787" lon="6.54926">
        <ele>2195.8</ele>
        <time>2014-01-29T14:52:38Z</time>
      </trkpt>
      <trkpt lat="45.3775" lon="6.54946">
        <ele>2205.28</ele>
        <time>2014-01-29T14:52:50Z</time>
      </trkpt>
      <trkpt lat="45.37714" lon="6.54969">
        <ele>2217.18</ele>
        <time>2014-01-29T14:53:01Z</time>
      </trkpt>
      <trkpt lat="45.37678" lon="6.54992">
        <ele>2227.71</ele>
        <time>2014-01-29T14:53:12Z</time>
      </trkpt>
      <trkpt lat="45.37637" lon="6.55011">
        <ele>2229.85</ele>
        <time>2014-01-29T14:53:23Z</time>
      </trkpt>
      <trkpt lat="45.37608" lon="6.55051">
        <ele>2229.98</ele>
        <time>2014-01-29T14:53:37Z</time>
      </trkpt>
      <trkpt lat="45.37575" lon="6.55037">
        <ele>2231.93</ele>
        <time>2014-01-29T14:54:08Z</time>
      </trkpt>
      <trkpt lat="45.37559" lon="6.54984">
        <ele>2230.41</ele>
        <time>2014-01-29T14:54:17Z</time>
      </trkpt>
      <trkpt lat="45.37557" lon="6.54928">
        <ele>2218.09</ele>
        <time>2014-01-29T14:54:25Z</time>
      </trkpt>
      <trkpt lat="45.37579" lon="6.54886">
        <ele>2206.43</ele>
        <time>2014-01-29T14:55:19Z</time>
      </trkpt>
      <trkpt lat="45.37554" lon="6.54849">
        <ele>2198.45</ele>
        <time>2014-01-29T14:55:37Z</time>
      </trkpt>
      <trkpt lat="45.3752" lon="6.54828">
        <ele>2188.46</ele>
        <time>2014-01-29T14:55:49Z</time>
      </trkpt>
      <trkpt lat="45.37482" lon="6.54811">
        <ele>2187.4</ele>
        <time>2014-01-29T14:56:02Z</time>
      </trkpt>
      <trkpt lat="45.37496" lon="6.54794">
        <ele>2177.58</ele>
        <time>2014-01-29T14:56:40Z</time>
      </trkpt>
      <trkpt lat="45.375" lon="6.54734">
        <ele>2157.45</ele>
        <time>2014-01-29T14:56:59Z</time>
      </trkpt>
      <trkpt lat="45.37525" lon="6.54567">
        <ele>2118.28</ele>
        <time>2014-01-29T14:57:32Z</time>
      </trkpt>
      <trkpt lat="45.37547" lon="6.54526">
        <ele>2106.78</ele>
        <time>2014-01-29T14:57:40Z</time>
      </trkpt>
      <trkpt lat="45.37564" lon="6.54467">
        <ele>2087.89</ele>
        <time>2014-01-29T14:57:49Z</time>
      </trkpt>
      <trkpt lat="45.37567" lon="6.54408">
        <ele>2075.32</ele>
        <time>2014-01-29T14:57:56Z</time>
      </trkpt>
      <trkpt lat="45.37573" lon="6.54355">
        <ele>2067.72</ele>
        <time>2014-01-29T14:58:01Z</time>
      </trkpt>
      <trkpt lat="45.37583" lon="6.5429">
        <ele>2060.88</ele>
        <time>2014-01-29T14:58:05Z</time>
      </trkpt>
      <trkpt lat="45.37597" lon="6.54238">
        <ele>2059.15</ele>
        <time>2014-01-29T14:58:10Z</time>
      </trkpt>
      <trkpt lat="45.3761" lon="6.54189">
        <ele>2054.41</ele>
        <time>2014-01-29T14:58:18Z</time>
      </trkpt>
      <trkpt lat="45.37615" lon="6.54133">
        <ele>2046.65</ele>
        <time>2014-01-29T14:58:28Z</time>
      </trkpt>
      <trkpt lat="45.37628" lon="6.54075">
        <ele>2032.79</ele>
        <time>2014-01-29T14:58:34Z</time>
      </trkpt>
      <trkpt lat="45.37641" lon="6.54005">
        <ele>2025.44</ele>
        <time>2014-01-29T14:58:40Z</time>
      </trkpt>
      <trkpt lat="45.37636" lon="6.53945">
        <ele>2019.65</ele>
        <time>2014-01-29T14:58:49Z</time>
      </trkpt>
      <trkpt lat="45.37601" lon="6.53907">
        <ele>2010.06</ele>
        <time>2014-01-29T15:00:15Z</time>
      </trkpt>
      <trkpt lat="45.37583" lon="6.53845">
        <ele>1999.58</ele>
        <time>2014-01-29T15:00:22Z</time>
      </trkpt>
      <trkpt lat="45.37592" lon="6.53782">
        <ele>1988.79</ele>
        <time>2014-01-29T15:00:26Z</time>
      </trkpt>
      <trkpt lat="45.37599" lon="6.5372">
        <ele>1979.26</ele>
        <time>2014-01-29T15:00:30Z</time>
      </trkpt>
      <trkpt lat="45.37603" lon="6.53662">
        <ele>1974.34</ele>
        <time>2014-01-29T15:00:34Z</time>
      </trkpt>
      <trkpt lat="45.37608" lon="6.53605">
        <ele>1970.09</ele>
        <time>2014-01-29T15:00:44Z</time>
      </trkpt>
      <trkpt lat="45.37622" lon="6.53551">
        <ele>1964.01</ele>
        <time>2014-01-29T15:00:49Z</time>
      </trkpt>
      <trkpt lat="45.37629" lon="6.53494">
        <ele>1956.21</ele>
        <time>2014-01-29T15:00:53Z</time>
      </trkpt>
      <trkpt lat="45.37638" lon="6.53435">
        <ele>1947.64</ele>
        <time>2014-01-29T15:00:58Z</time>
      </trkpt>
      <trkpt lat="45.37644" lon="6.53378">
        <ele>1939.53</ele>
        <time>2014-01-29T15:01:02Z</time>
      </trkpt>
      <trkpt lat="45.37647" lon="6.53315">
        <ele>1936.82</ele>
        <time>2014-01-29T15:01:08Z</time>
      </trkpt>
      <trkpt lat="45.3766" lon="6.53257">
        <ele>1933.16</ele>
        <time>2014-01-29T15:01:14Z</time>
      </trkpt>
      <trkpt lat="45.37659" lon="6.53195">
        <ele>1930.18</ele>
        <time>2014-01-29T15:01:21Z</time>
      </trkpt>
      <trkpt lat="45.37655" lon="6.53141">
        <ele>1924.43</ele>
        <time>2014-01-29T15:01:29Z</time>
      </trkpt>
      <trkpt lat="45.37622" lon="6.53088">
        <ele>1913.42</ele>
        <time>2014-01-29T15:01:36Z</time>
      </trkpt>
      <trkpt lat="45.37604" lon="6.53042">
        <ele>1905.7</ele>
        <time>2014-01-29T15:01:42Z</time>
      </trkpt>
      <trkpt lat="45.37596" lon="6.52981">
        <ele>1889.14</ele>
        <time>2014-01-29T15:01:48Z</time>
      </trkpt>
      <trkpt lat="45.37607" lon="6.52924">
        <ele>1880.46</ele>
        <time>2014-01-29T15:01:54Z</time>
      </trkpt>
      <trkpt lat="45.37599" lon="6.52866">
        <ele>1867.22</ele>
        <time>2014-01-29T15:02:03Z</time>
      </trkpt>
      <trkpt lat="45.37593" lon="6.52797">
        <ele>1851.65</ele>
        <time>2014-01-29T15:02:10Z</time>
      </trkpt>
      <trkpt lat="45.37592" lon="6.52737">
        <ele>1842.38</ele>
        <time>2014-01-29T15:02:15Z</time>
      </trkpt>
      <trkpt lat="45.37589" lon="6.52687">
        <ele>1834.12</ele>
        <time>2014-01-29T15:03:02Z</time>
      </trkpt>
      <trkpt lat="45.37551" lon="6.52679">
        <ele>1824.4</ele>
        <time>2014-01-29T15:03:15Z</time>
      </trkpt>
      <trkpt lat="45.37513" lon="6.52701">
        <ele>1823.81</ele>
        <time>2014-01-29T15:03:24Z</time>
      </trkpt>
      <trkpt lat="45.37473" lon="6.5272">
        <ele>1821.9</ele>
        <time>2014-01-29T15:03:32Z</time>
      </trkpt>
      <trkpt lat="45.37437" lon="6.52739">
        <ele>1813.27</ele>
        <time>2014-01-29T15:03:45Z</time>
      </trkpt>
      <trkpt lat="45.37416" lon="6.52785">
        <ele>1802.63</ele>
        <time>2014-01-29T15:03:54Z</time>
      </trkpt>
      <trkpt lat="45.37397" lon="6.52842">
        <ele>1801.85</ele>
        <time>2014-01-29T15:04:01Z</time>
      </trkpt>
      <trkpt lat="45.3737" lon="6.52897">
        <ele>1804.22</ele>
        <time>2014-01-29T15:04:09Z</time>
      </trkpt>
      <trkpt lat="45.37333" lon="6.52926">
        <ele>1803.63</ele>
        <time>2014-01-29T15:04:15Z</time>
      </trkpt>
      <trkpt lat="45.37293" lon="6.52904">
        <ele>1797.72</ele>
        <time>2014-01-29T15:04:22Z</time>
      </trkpt>
      <trkpt lat="45.37269" lon="6.52855">
        <ele>1789.38</ele>
        <time>2014-01-29T15:04:31Z</time>
      </trkpt>
      <trkpt lat="45.37253" lon="6.5291">
        <ele>1792.32</ele>
        <time>2014-01-29T15:05:20Z</time>
      </trkpt>
      <trkpt lat="45.37243" lon="6.52963">
        <ele>1802.28</ele>
        <time>2014-01-29T15:05:29Z</time>
      </trkpt>
      <trkpt lat="45.37224" lon="6.53015">
        <ele>1809.32</ele>
        <time>2014-01-29T15:05:39Z</time>
      </trkpt>
      <trkpt lat="45.37208" lon="6.5307">
        <ele>1816.64</ele>
        <time>2014-01-29T15:05:49Z</time>
      </trkpt>
      <trkpt lat="45.37194" lon="6.53122">
        <ele>1826.55</ele>
        <time>2014-01-29T15:05:58Z</time>
      </trkpt>
      <trkpt lat="45.37178" lon="6.53179">
        <ele>1847.98</ele>
        <time>2014-01-29T15:06:08Z</time>
      </trkpt>
      <trkpt lat="45.37164" lon="6.53231">
        <ele>1865.93</ele>
        <time>2014-01-29T15:06:17Z</time>
      </trkpt>
      <trkpt lat="45.37149" lon="6.53284">
        <ele>1875.97</ele>
        <time>2014-01-29T15:06:26Z</time>
      </trkpt>
      <trkpt lat="45.37133" lon="6.53338">
        <ele>1883.12</ele>
        <time>2014-01-29T15:06:36Z</time>
      </trkpt>
      <trkpt lat="45.37118" lon="6.53391">
        <ele>1889.46</ele>
        <time>2014-01-29T15:06:45Z</time>
      </trkpt>
      <trkpt lat="45.37104" lon="6.53446">
        <ele>1899.81</ele>
        <time>2014-01-29T15:06:55Z</time>
      </trkpt>
      <trkpt lat="45.37088" lon="6.53502">
        <ele>1907.39</ele>
        <time>2014-01-29T15:07:05Z</time>
      </trkpt>
      <trkpt lat="45.37073" lon="6.53554">
        <ele>1916.67</ele>
        <time>2014-01-29T15:08:12Z</time>
      </trkpt>
      <trkpt lat="45.37062" lon="6.53603">
        <ele>1928.04</ele>
        <time>2014-01-29T15:08:31Z</time>
      </trkpt>
      <trkpt lat="45.37048" lon="6.53651">
        <ele>1940.68</ele>
        <time>2014-01-29T15:08:41Z</time>
      </trkpt>
      <trkpt lat="45.37032" lon="6.53704">
        <ele>1950.15</ele>
        <time>2014-01-29T15:08:50Z</time>
      </trkpt>
      <trkpt lat="45.37015" lon="6.53755">
        <ele>1965.66</ele>
        <time>2014-01-29T15:09:00Z</time>
      </trkpt>
      <trkpt lat="45.37" lon="6.53812">
        <ele>1976.37</ele>
        <time>2014-01-29T15:09:10Z</time>
      </trkpt>
      <trkpt lat="45.36986" lon="6.53863">
        <ele>1989.95</ele>
        <time>2014-01-29T15:09:20Z</time>
      </trkpt>
      <trkpt lat="45.36971" lon="6.53919">
        <ele>1998.05</ele>
        <time>2014-01-29T15:09:30Z</time>
      </trkpt>
      <trkpt lat="45.36957" lon="6.53972">
        <ele>2003.3</ele>
        <time>2014-01-29T15:09:39Z</time>
      </trkpt>
      <trkpt lat="45.3694" lon="6.54027">
        <ele>2011.18</ele>
        <time>2014-01-29T15:09:49Z</time>
      </trkpt>
      <trkpt lat="45.36925" lon="6.5408">
        <ele>2021.64</ele>
        <time>2014-01-29T15:09:59Z</time>
      </trkpt>
      <trkpt lat="45.3691" lon="6.54132">
        <ele>2044.22</ele>
        <time>2014-01-29T15:10:09Z</time>
      </trkpt>
      <trkpt lat="45.36892" lon="6.54183">
        <ele>2065.06</ele>
        <time>2014-01-29T15:10:19Z</time>
      </trkpt>
      <trkpt lat="45.36877" lon="6.54233">
        <ele>2077.19</ele>
        <time>2014-01-29T15:10:29Z</time>
      </trkpt>
      <trkpt lat="45.3686" lon="6.54289">
        <ele>2089.74</ele>
        <time>2014-01-29T15:10:41Z</time>
      </trkpt>
      <trkpt lat="45.36845" lon="6.54343">
        <ele>2092.11</ele>
        <time>2014-01-29T15:10:50Z</time>
      </trkpt>
      <trkpt lat="45.36828" lon="6.544">
        <ele>2097.01</ele>
        <time>2014-01-29T15:11:00Z</time>
      </trkpt>
      <trkpt lat="45.36813" lon="6.54454">
        <ele>2104.73</ele>
        <time>2014-01-29T15:11:10Z</time>
      </trkpt>
      <trkpt lat="45.36799" lon="6.54504">
        <ele>2118.65</ele>
        <time>2014-01-29T15:11:19Z</time>
      </trkpt>
      <trkpt lat="45.36784" lon="6.54559">
        <ele>2125.42</ele>
        <time>2014-01-29T15:11:28Z</time>
      </trkpt>
      <trkpt lat="45.36768" lon="6.54616">
        <ele>2129.2</ele>
        <time>2014-01-29T15:11:38Z</time>
      </trkpt>
      <trkpt lat="45.36756" lon="6.54674">
        <ele>2140.55</ele>
        <time>2014-01-29T15:11:46Z</time>
      </trkpt>
      <trkpt lat="45.36745" lon="6.54727">
        <ele>2164.09</ele>
        <time>2014-01-29T15:11:54Z</time>
      </trkpt>
      <trkpt lat="45.36728" lon="6.54777">
        <ele>2185.63</ele>
        <time>2014-01-29T15:12:05Z</time>
      </trkpt>
      <trkpt lat="45.36714" lon="6.54829">
        <ele>2189.26</ele>
        <time>2014-01-29T15:12:15Z</time>
      </trkpt>
      <trkpt lat="45.36698" lon="6.54882">
        <ele>2196.34</ele>
        <time>2014-01-29T15:12:25Z</time>
      </trkpt>
      <trkpt lat="45.36682" lon="6.54943">
        <ele>2194.01</ele>
        <time>2014-01-29T15:12:33Z</time>
      </trkpt>
      <trkpt lat="45.36668" lon="6.54992">
        <ele>2198.03</ele>
        <time>2014-01-29T15:12:41Z</time>
      </trkpt>
      <trkpt lat="45.36652" lon="6.55046">
        <ele>2207.31</ele>
        <time>2014-01-29T15:12:51Z</time>
      </trkpt>
      <trkpt lat="45.36637" lon="6.55102">
        <ele>2223.54</ele>
        <time>2014-01-29T15:13:01Z</time>
      </trkpt>
      <trkpt lat="45.36621" lon="6.55157">
        <ele>2239.07</ele>
        <time>2014-01-29T15:13:11Z</time>
      </trkpt>
      <trkpt lat="45.36605" lon="6.55212">
        <ele>2250.93</ele>
        <time>2014-01-29T15:13:21Z</time>
      </trkpt>
      <trkpt lat="45.3659" lon="6.55263">
        <ele>2260</ele>
        <time>2014-01-29T15:13:30Z</time>
      </trkpt>
      <trkpt lat="45.36574" lon="6.5532">
        <ele>2263.82</ele>
        <time>2014-01-29T15:13:40Z</time>
      </trkpt>
      <trkpt lat="45.36561" lon="6.55372">
        <ele>2275.29</ele>
        <time>2014-01-29T15:13:48Z</time>
      </trkpt>
      <trkpt lat="45.36549" lon="6.5543">
        <ele>2289.34</ele>
        <time>2014-01-29T15:13:58Z</time>
      </trkpt>
      <trkpt lat="45.36533" lon="6.55488">
        <ele>2297.57</ele>
        <time>2014-01-29T15:14:08Z</time>
      </trkpt>
      <trkpt lat="45.36524" lon="6.55544">
        <ele>2313.78</ele>
        <time>2014-01-29T15:14:18Z</time>
      </trkpt>
      <trkpt lat="45.36512" lon="6.55595">
        <ele>2330.46</ele>
        <time>2014-01-29T15:14:28Z</time>
      </trkpt>
      <trkpt lat="45.365" lon="6.55649">
        <ele>2365.33</ele>
        <time>2014-01-29T15:14:39Z</time>
      </trkpt>
      <trkpt lat="45.36485" lon="6.55698">
        <ele>2385.14</ele>
        <time>2014-01-29T15:14:50Z</time>
      </trkpt>
      <trkpt lat="45.36472" lon="6.55746">
        <ele>2398.67</ele>
        <time>2014-01-29T15:15:20Z</time>
      </trkpt>
      <trkpt lat="45.36433" lon="6.55753">
        <ele>2395.46</ele>
        <time>2014-01-29T15:15:36Z</time>
      </trkpt>
      <trkpt lat="45.36394" lon="6.55749">
        <ele>2391.57</ele>
        <time>2014-01-29T15:15:47Z</time>
      </trkpt>
      <trkpt lat="45.36354" lon="6.55728">
        <ele>2385.48</ele>
        <time>2014-01-29T15:15:53Z</time>
      </trkpt>
      <trkpt lat="45.36338" lon="6.55687">
        <ele>2371.04</ele>
        <time>2014-01-29T15:16:24Z</time>
      </trkpt>
      <trkpt lat="45.36354" lon="6.55641">
        <ele>2363.66</ele>
        <time>2014-01-29T15:16:31Z</time>
      </trkpt>
      <trkpt lat="45.36371" lon="6.55591">
        <ele>2353.2</ele>
        <time>2014-01-29T15:16:40Z</time>
      </trkpt>
      <trkpt lat="45.36426" lon="6.55466">
        <ele>2311.89</ele>
        <time>2014-01-29T15:17:11Z</time>
      </trkpt>
      <trkpt lat="45.36444" lon="6.55414">
        <ele>2291.42</ele>
        <time>2014-01-29T15:17:20Z</time>
      </trkpt>
      <trkpt lat="45.36456" lon="6.55361">
        <ele>2280.28</ele>
        <time>2014-01-29T15:17:27Z</time>
      </trkpt>
      <trkpt lat="45.36455" lon="6.55301">
        <ele>2267.79</ele>
        <time>2014-01-29T15:17:36Z</time>
      </trkpt>
      <trkpt lat="45.36434" lon="6.55249">
        <ele>2256.24</ele>
        <time>2014-01-29T15:17:47Z</time>
      </trkpt>
      <trkpt lat="45.36434" lon="6.55196">
        <ele>2243.69</ele>
        <time>2014-01-29T15:17:54Z</time>
      </trkpt>
      <trkpt lat="45.36457" lon="6.55151">
        <ele>2236.51</ele>
        <time>2014-01-29T15:18:01Z</time>
      </trkpt>
      <trkpt lat="45.36461" lon="6.55095">
        <ele>2221.63</ele>
        <time>2014-01-29T15:18:10Z</time>
      </trkpt>
      <trkpt lat="45.36462" lon="6.55037">
        <ele>2204.24</ele>
        <time>2014-01-29T15:18:28Z</time>
      </trkpt>
      <trkpt lat="45.36478" lon="6.5499">
        <ele>2191.01</ele>
        <time>2014-01-29T15:18:37Z</time>
      </trkpt>
      <trkpt lat="45.36476" lon="6.5493">
        <ele>2180.81</ele>
        <time>2014-01-29T15:18:46Z</time>
      </trkpt>
      <trkpt lat="45.36483" lon="6.54874">
        <ele>2171.15</ele>
        <time>2014-01-29T15:18:53Z</time>
      </trkpt>
      <trkpt lat="45.36496" lon="6.54814">
        <ele>2162.75</ele>
        <time>2014-01-29T15:19:01Z</time>
      </trkpt>
      <trkpt lat="45.36501" lon="6.54753">
        <ele>2146.34</ele>
        <time>2014-01-29T15:19:12Z</time>
      </trkpt>
      <trkpt lat="45.36482" lon="6.54696">
        <ele>2137.46</ele>
        <time>2014-01-29T15:19:20Z</time>
      </trkpt>
      <trkpt lat="45.36474" lon="6.54638">
        <ele>2132.78</ele>
        <time>2014-01-29T15:19:27Z</time>
      </trkpt>
      <trkpt lat="45.36475" lon="6.54582">
        <ele>2126.81</ele>
        <time>2014-01-29T15:19:34Z</time>
      </trkpt>
      <trkpt lat="45.36487" lon="6.54523">
        <ele>2112.63</ele>
        <time>2014-01-29T15:19:41Z</time>
      </trkpt>
      <trkpt lat="45.36503" lon="6.5448">
        <ele>2106.83</ele>
        <time>2014-01-29T15:19:47Z</time>
      </trkpt>
      <trkpt lat="45.36529" lon="6.54437">
        <ele>2097.38</ele>
        <time>2014-01-29T15:19:54Z</time>
      </trkpt>
      <trkpt lat="45.36555" lon="6.5439">
        <ele>2093.06</ele>
        <time>2014-01-29T15:20:02Z</time>
      </trkpt>
      <trkpt lat="45.36573" lon="6.54335">
        <ele>2085.05</ele>
        <time>2014-01-29T15:20:10Z</time>
      </trkpt>
      <trkpt lat="45.36586" lon="6.54284">
        <ele>2076.42</ele>
        <time>2014-01-29T15:20:16Z</time>
      </trkpt>
      <trkpt lat="45.3661" lon="6.54239">
        <ele>2068.48</ele>
        <time>2014-01-29T15:20:23Z</time>
      </trkpt>
      <trkpt lat="45.36643" lon="6.54211">
        <ele>2063.26</ele>
        <time>2014-01-29T15:20:29Z</time>
      </trkpt>
      <trkpt lat="45.36667" lon="6.54161">
        <ele>2051.93</ele>
        <time>2014-01-29T15:20:39Z</time>
      </trkpt>
      <trkpt lat="45.36664" lon="6.54113">
        <ele>2040.96</ele>
        <time>2014-01-29T15:20:49Z</time>
      </trkpt>
      <trkpt lat="45.36676" lon="6.54051">
        <ele>2027.62</ele>
        <time>2014-01-29T15:20:55Z</time>
      </trkpt>
      <trkpt lat="45.36697" lon="6.53991">
        <ele>2016.45</ele>
        <time>2014-01-29T15:21:01Z</time>
      </trkpt>
      <trkpt lat="45.36702" lon="6.53931">
        <ele>2007.77</ele>
        <time>2014-01-29T15:21:07Z</time>
      </trkpt>
      <trkpt lat="45.36729" lon="6.53876">
        <ele>2000.67</ele>
        <time>2014-01-29T15:21:13Z</time>
      </trkpt>
      <trkpt lat="45.36769" lon="6.53866">
        <ele>1995.18</ele>
        <time>2014-01-29T15:21:19Z</time>
      </trkpt>
      <trkpt lat="45.36816" lon="6.5387">
        <ele>1991.23</ele>
        <time>2014-01-29T15:21:25Z</time>
      </trkpt>
      <trkpt lat="45.36865" lon="6.53871">
        <ele>1986.3</ele>
        <time>2014-01-29T15:21:31Z</time>
      </trkpt>
      <trkpt lat="45.36898" lon="6.5384">
        <ele>1978.44</ele>
        <time>2014-01-29T15:21:37Z</time>
      </trkpt>
      <trkpt lat="45.36923" lon="6.538">
        <ele>1970.62</ele>
        <time>2014-01-29T15:21:44Z</time>
      </trkpt>
      <trkpt lat="45.36936" lon="6.53756">
        <ele>1962.5</ele>
        <time>2014-01-29T15:21:53Z</time>
      </trkpt>
      <trkpt lat="45.36938" lon="6.53693">
        <ele>1951.21</ele>
        <time>2014-01-29T15:22:01Z</time>
      </trkpt>
      <trkpt lat="45.36959" lon="6.53638">
        <ele>1939.31</ele>
        <time>2014-01-29T15:22:10Z</time>
      </trkpt>
      <trkpt lat="45.36965" lon="6.53575">
        <ele>1930.29</ele>
        <time>2014-01-29T15:22:16Z</time>
      </trkpt>
      <trkpt lat="45.36973" lon="6.53513">
        <ele>1916.81</ele>
        <time>2014-01-29T15:22:24Z</time>
      </trkpt>
      <trkpt lat="45.36996" lon="6.53456">
        <ele>1910.06</ele>
        <time>2014-01-29T15:22:30Z</time>
      </trkpt>
      <trkpt lat="45.37014" lon="6.53405">
        <ele>1906.53</ele>
        <time>2014-01-29T15:22:34Z</time>
      </trkpt>
      <trkpt lat="45.37045" lon="6.53362">
        <ele>1899.56</ele>
        <time>2014-01-29T15:22:39Z</time>
      </trkpt>
      <trkpt lat="45.37077" lon="6.53325">
        <ele>1891.23</ele>
        <time>2014-01-29T15:22:47Z</time>
      </trkpt>
      <trkpt lat="45.37089" lon="6.53277">
        <ele>1884.21</ele>
        <time>2014-01-29T15:22:53Z</time>
      </trkpt>
      <trkpt lat="45.37093" lon="6.53215">
        <ele>1873.24</ele>
        <time>2014-01-29T15:22:59Z</time>
      </trkpt>
      <trkpt lat="45.37067" lon="6.53167">
        <ele>1867.79</ele>
        <time>2014-01-29T15:23:06Z</time>
      </trkpt>
      <trkpt lat="45.37047" lon="6.53117">
        <ele>1862.77</ele>
        <time>2014-01-29T15:23:12Z</time>
      </trkpt>
      <trkpt lat="45.37085" lon="6.53106">
        <ele>1850.03</ele>
        <time>2014-01-29T15:23:17Z</time>
      </trkpt>
      <trkpt lat="45.37126" lon="6.5312">
        <ele>1840.81</ele>
        <time>2014-01-29T15:23:23Z</time>
      </trkpt>
      <trkpt lat="45.37164" lon="6.5311">
        <ele>1829.83</ele>
        <time>2014-01-29T15:23:29Z</time>
      </trkpt>
      <trkpt lat="45.37206" lon="6.5309">
        <ele>1819.76</ele>
        <time>2014-01-29T15:23:36Z</time>
      </trkpt>
      <trkpt lat="45.3723" lon="6.53048">
        <ele>1813.98</ele>
        <time>2014-01-29T15:23:42Z</time>
      </trkpt>
      <trkpt lat="45.37258" lon="6.52996">
        <ele>1807.72</ele>
        <time>2014-01-29T15:23:47Z</time>
      </trkpt>
      <trkpt lat="45.3728" lon="6.52953">
        <ele>1801.42</ele>
        <time>2014-01-29T15:23:51Z</time>
      </trkpt>
      <trkpt lat="45.37289" lon="6.52905">
        <ele>1797.3</ele>
        <time>2014-01-29T15:24:20Z</time>
      </trkpt>
      <trkpt lat="45.37298" lon="6.52849">
        <ele>1793.29</ele>
        <time>2014-01-29T15:24:27Z</time>
      </trkpt>
      <trkpt lat="45.37296" lon="6.52784">
        <ele>1789.98</ele>
        <time>2014-01-29T15:24:33Z</time>
      </trkpt>
      <trkpt lat="45.37293" lon="6.52724">
        <ele>1782.19</ele>
        <time>2014-01-29T15:24:39Z</time>
      </trkpt>
      <trkpt lat="45.37282" lon="6.52663">
        <ele>1775.16</ele>
        <time>2014-01-29T15:24:45Z</time>
      </trkpt>
      <trkpt lat="45.37274" lon="6.52609">
        <ele>1770.69</ele>
        <time>2014-01-29T15:24:49Z</time>
      </trkpt>
      <trkpt lat="45.37269" lon="6.52555">
        <ele>1767.28</ele>
        <time>2014-01-29T15:24:53Z</time>
      </trkpt>
      <trkpt lat="45.37285" lon="6.52502">
        <ele>1764.36</ele>
        <time>2014-01-29T15:24:59Z</time>
      </trkpt>
      <trkpt lat="45.37312" lon="6.52456">
        <ele>1757.81</ele>
        <time>2014-01-29T15:25:05Z</time>
      </trkpt>
      <trkpt lat="45.37343" lon="6.52414">
        <ele>1759.09</ele>
        <time>2014-01-29T15:25:11Z</time>
      </trkpt>
      <trkpt lat="45.37375" lon="6.52374">
        <ele>1754.53</ele>
        <time>2014-01-29T15:25:17Z</time>
      </trkpt>
      <trkpt lat="45.3742" lon="6.52364">
        <ele>1755.48</ele>
        <time>2014-01-29T15:25:23Z</time>
      </trkpt>
      <trkpt lat="45.37463" lon="6.52345">
        <ele>1745.03</ele>
        <time>2014-01-29T15:25:28Z</time>
      </trkpt>
      <trkpt lat="45.375" lon="6.52316">
        <ele>1735.88</ele>
        <time>2014-01-29T15:25:32Z</time>
      </trkpt>
      <trkpt lat="45.37531" lon="6.52278">
        <ele>1726.61</ele>
        <time>2014-01-29T15:25:36Z</time>
      </trkpt>
      <trkpt lat="45.3755" lon="6.52225">
        <ele>1719.78</ele>
        <time>2014-01-29T15:25:40Z</time>
      </trkpt>
      <trkpt lat="45.37557" lon="6.52168">
        <ele>1713.12</ele>
        <time>2014-01-29T15:25:44Z</time>
      </trkpt>
      <trkpt lat="45.37594" lon="6.52131">
        <ele>1718.62</ele>
        <time>2014-01-29T15:25:50Z</time>
      </trkpt>
      <trkpt lat="45.37637" lon="6.52143">
        <ele>1717.01</ele>
        <time>2014-01-29T15:25:55Z</time>
      </trkpt>
      <trkpt lat="45.37668" lon="6.52129">
        <ele>1706.07</ele>
        <time>2014-01-29T15:26:03Z</time>
      </trkpt>
      <trkpt lat="45.3765" lon="6.52079">
        <ele>1700.21</ele>
        <time>2014-01-29T15:26:08Z</time>
      </trkpt>
      <trkpt lat="45.37624" lon="6.52038">
        <ele>1694.88</ele>
        <time>2014-01-29T15:26:12Z</time>
      </trkpt>
      <trkpt lat="45.37606" lon="6.5199">
        <ele>1688.39</ele>
        <time>2014-01-29T15:26:17Z</time>
      </trkpt>
      <trkpt lat="45.37627" lon="6.51937">
        <ele>1681.52</ele>
        <time>2014-01-29T15:26:24Z</time>
      </trkpt>
      <trkpt lat="45.37677" lon="6.51931">
        <ele>1680.91</ele>
        <time>2014-01-29T15:26:30Z</time>
      </trkpt>
      <trkpt lat="45.37717" lon="6.51908">
        <ele>1671.92</ele>
        <time>2014-01-29T15:26:35Z</time>
      </trkpt>
      <trkpt lat="45.37753" lon="6.51869">
        <ele>1661.37</ele>
        <time>2014-01-29T15:26:41Z</time>
      </trkpt>
      <trkpt lat="45.37762" lon="6.51807">
        <ele>1650.91</ele>
        <time>2014-01-29T15:26:47Z</time>
      </trkpt>
      <trkpt lat="45.37748" lon="6.51749">
        <ele>1644.51</ele>
        <time>2014-01-29T15:26:51Z</time>
      </trkpt>
      <trkpt lat="45.37713" lon="6.51708">
        <ele>1639.84</ele>
        <time>2014-01-29T15:26:55Z</time>
      </trkpt>
      <trkpt lat="45.37675" lon="6.51684">
        <ele>1638.8</ele>
        <time>2014-01-29T15:26:59Z</time>
      </trkpt>
      <trkpt lat="45.37636" lon="6.51659">
        <ele>1634.51</ele>
        <time>2014-01-29T15:27:04Z</time>
      </trkpt>
      <trkpt lat="45.37602" lon="6.51632">
        <ele>1630.85</ele>
        <time>2014-01-29T15:27:10Z</time>
      </trkpt>
      <trkpt lat="45.37567" lon="6.51598">
        <ele>1624.25</ele>
        <time>2014-01-29T15:27:17Z</time>
      </trkpt>
      <trkpt lat="45.37538" lon="6.5155">
        <ele>1618.74</ele>
        <time>2014-01-29T15:27:23Z</time>
      </trkpt>
      <trkpt lat="45.37524" lon="6.51492">
        <ele>1607.87</ele>
        <time>2014-01-29T15:27:29Z</time>
      </trkpt>
      <trkpt lat="45.37511" lon="6.51423">
        <ele>1595.25</ele>
        <time>2014-01-29T15:27:35Z</time>
      </trkpt>
      <trkpt lat="45.37491" lon="6.51358">
        <ele>1585.52</ele>
        <time>2014-01-29T15:27:41Z</time>
      </trkpt>
      <trkpt lat="45.37482" lon="6.51293">
        <ele>1578.48</ele>
        <time>2014-01-29T15:27:47Z</time>
      </trkpt>
      <trkpt lat="45.37461" lon="6.51238">
        <ele>1570.52</ele>
        <time>2014-01-29T15:27:52Z</time>
      </trkpt>
      <trkpt lat="45.37441" lon="6.51182">
        <ele>1561.62</ele>
        <time>2014-01-29T15:27:58Z</time>
      </trkpt>
      <trkpt lat="45.37433" lon="6.51115">
        <ele>1555.59</ele>
        <time>2014-01-29T15:28:04Z</time>
      </trkpt>
      <trkpt lat="45.37445" lon="6.51057">
        <ele>1553.12</ele>
        <time>2014-01-29T15:28:10Z</time>
      </trkpt>
      <trkpt lat="45.37436" lon="6.50991">
        <ele>1546.19</ele>
        <time>2014-01-29T15:28:17Z</time>
      </trkpt>
      <trkpt lat="45.37423" lon="6.50933">
        <ele>1537.46</ele>
        <time>2014-01-29T15:28:22Z</time>
      </trkpt>
      <trkpt lat="45.37391" lon="6.5089">
        <ele>1526.49</ele>
        <time>2014-01-29T15:28:28Z</time>
      </trkpt>
      <trkpt lat="45.3738" lon="6.50861">
        <ele>1520.03</ele>
        <time>2014-01-29T15:28:37Z</time>
      </trkpt>
      <trkpt lat="45.37422" lon="6.50848">
        <ele>1525.06</ele>
        <time>2014-01-29T15:28:42Z</time>
      </trkpt>
      <trkpt lat="45.37463" lon="6.50868">
        <ele>1523.64</ele>
        <time>2014-01-29T15:28:47Z</time>
      </trkpt>
      <trkpt lat="45.37512" lon="6.50873">
        <ele>1513.62</ele>
        <time>2014-01-29T15:28:53Z</time>
      </trkpt>
      <trkpt lat="45.37551" lon="6.50834">
        <ele>1506.68</ele>
        <time>2014-01-29T15:28:59Z</time>
      </trkpt>
      <trkpt lat="45.37582" lon="6.50788">
        <ele>1498.28</ele>
        <time>2014-01-29T15:29:06Z</time>
      </trkpt>
      <trkpt lat="45.37621" lon="6.50765">
        <ele>1489.87</ele>
        <time>2014-01-29T15:29:16Z</time>
      </trkpt>
      <trkpt lat="45.3766" lon="6.50763">
        <ele>1480.84</ele>
        <time>2014-01-29T15:29:24Z</time>
      </trkpt>
      <trkpt lat="45.3768" lon="6.50709">
        <ele>1466.33</ele>
        <time>2014-01-29T15:29:31Z</time>
      </trkpt>
      <trkpt lat="45.37676" lon="6.5064">
        <ele>1454.86</ele>
        <time>2014-01-29T15:29:37Z</time>
      </trkpt>
      <trkpt lat="45.37695" lon="6.50592">
        <ele>1443.51</ele>
        <time>2014-01-29T15:29:43Z</time>
      </trkpt>
      <trkpt lat="45.37709" lon="6.50546">
        <ele>1436.77</ele>
        <time>2014-01-29T15:29:51Z</time>
      </trkpt>
      <trkpt lat="45.37733" lon="6.50504">
        <ele>1429.72</ele>
        <time>2014-01-29T15:30:00Z</time>
      </trkpt>
      <trkpt lat="45.37763" lon="6.5047">
        <ele>1424.73</ele>
        <time>2014-01-29T15:30:10Z</time>
      </trkpt>
      <trkpt lat="45.37754" lon="6.50434">
        <ele>1420.72</ele>
        <time>2014-01-29T15:35:27Z</time>
      </trkpt>
      <trkpt lat="45.37787" lon="6.50422">
        <ele>1416.98</ele>
        <time>2014-01-29T15:37:12Z</time>
      </trkpt>
      <trkpt lat="45.37793" lon="6.50413">
        <ele>1415.55</ele>
        <time>2014-01-29T15:37:30Z</time>
      </trkpt>
      <trkpt lat="45.37794" lon="6.50386">
        <ele>1413</ele>
        <time>2014-01-29T15:38:04Z</time>
      </trkpt>
      <trkpt lat="45.37809" lon="6.5037">
        <ele>1409.48</ele>
        <time>2014-01-29T15:38:37Z</time>
      </trkpt>
      <trkpt lat="45.37825" lon="6.50383">
        <ele>1408.53</ele>
        <time>2014-01-29T15:38:46Z</time>
      </trkpt>
      <trkpt lat="45.37844" lon="6.50389">
        <ele>1405.84</ele>
        <time>2014-01-29T15:38:56Z</time>
      </trkpt>
      <trkpt lat="45.37853" lon="6.50412">
        <ele>1406.17</ele>
        <time>2014-01-29T15:39:22Z</time>
      </trkpt>
      <trkpt lat="45.37868" lon="6.50429">
        <ele>1405.17</ele>
        <time>2014-01-29T15:39:32Z</time>
      </trkpt>
      <trkpt lat="45.37884" lon="6.50442">
        <ele>1403.6</ele>
        <time>2014-01-29T15:40:08Z</time>
      </trkpt>
      <trkpt lat="45.3791" lon="6.50464">
        <ele>1400.44</ele>
        <time>2014-01-29T15:41:29Z</time>
      </trkpt>
      <trkpt lat="45.37893" lon="6.50456">
        <ele>1403.65</ele>
        <time>2014-01-29T15:42:05Z</time>
      </trkpt>
      <trkpt lat="45.37878" lon="6.50442">
        <ele>1405.01</ele>
        <time>2014-01-29T15:42:49Z</time>
      </trkpt>
      <trkpt lat="45.37865" lon="6.5042">
        <ele>1404.57</ele>
        <time>2014-01-29T15:43:44Z</time>
      </trkpt>
      <trkpt lat="45.37851" lon="6.50404">
        <ele>1405.95</ele>
        <time>2014-01-29T15:44:11Z</time>
      </trkpt>
      <trkpt lat="45.37836" lon="6.50388">
        <ele>1407.31</ele>
        <time>2014-01-29T15:44:28Z</time>
      </trkpt>
      <trkpt lat="45.37823" lon="6.50368">
        <ele>1407.3</ele>
        <time>2014-01-29T15:44:43Z</time>
      </trkpt>
      <trkpt lat="45.3781" lon="6.50387">
        <ele>1411.22</ele>
        <time>2014-01-29T15:45:34Z</time>
      </trkpt>
      <trkpt lat="45.37803" lon="6.50412">
        <ele>1414.73</ele>
        <time>2014-01-29T15:46:31Z</time>
      </trkpt>
      <trkpt lat="45.37788" lon="6.50427">
        <ele>1417.67</ele>
        <time>2014-01-29T15:46:48Z</time>
      </trkpt>
      <trkpt lat="45.37769" lon="6.50417">
        <ele>1417.65</ele>
        <time>2014-01-29T15:47:02Z</time>
      </trkpt>
      <trkpt lat="45.37759" lon="6.50438">
        <ele>1420.92</ele>
        <time>2014-01-29T15:47:27Z</time>
      </trkpt>
      <trkpt lat="45.37754" lon="6.50463">
        <ele>1423.94</ele>
        <time>2014-01-29T15:48:28Z</time>
      </trkpt>
    </trkseg>
  </trk>
</gpx>